<?xml version="1.0" encoding="UTF-8" standalone="no" ?>
<gpx xmlns="http://www.topografix.com/GPX/1/1" xmlns:xsi="http://www.w3.org/2001/XMLSchema-instance" xsi:schemaLocation="http://www.topografix.com/GPX/1/1 http://www.topografix.com/GPX/1/1/gpx.xsd" version="1.1" creator="VisuGPX - https://www.visugpx.com">
  <metadata>
    <name>Sentier des marbrières Félines</name>
    <desc><![CDATA[
]]></desc>
  </metadata>
  <wpt lat="43.33421" lon="2.54463">
    <ele>223.5</ele>
    <name><![CDATA[0-ND du Cros]]></name>
  </wpt>
  <wpt lat="43.34483" lon="2.55957">
    <ele>408.7</ele>
    <name><![CDATA[1-Le moulin de Biot]]></name>
  </wpt>
  <wpt lat="43.34853" lon="2.56771">
    <ele>422.5</ele>
    <name><![CDATA[2-Carrière des Bessous]]></name>
  </wpt>
  <wpt lat="43.35925" lon="2.58547">
    <ele>439.7</ele>
    <name><![CDATA[3-Marbrière de Bel-Soleil]]></name>
  </wpt>
  <wpt lat="43.35596" lon="2.56376">
    <ele>530.2</ele>
    <name><![CDATA[4-Marbrière de la Planette]]></name>
  </wpt>
  <wpt lat="43.3562" lon="2.5632">
    <ele>519.2</ele>
    <name><![CDATA[5-La carrière de Castignou]]></name>
  </wpt>
  <wpt lat="43.34034" lon="2.54713">
    <ele>369.2</ele>
    <name><![CDATA[6-Carrière des escaliers]]></name>
  </wpt>
  <trk>
    <name><![CDATA[Sentier des marbrières Félines]]></name>
    <trkseg>
      <trkpt lat="43.33425" lon="2.54458">
        <ele>220.28</ele>
        <time>2012-09-20T07:30:20Z</time>
      </trkpt>
      <trkpt lat="43.33425" lon="2.5446">
        <ele>221.24</ele>
        <time>2012-09-20T07:30:48Z</time>
      </trkpt>
      <trkpt lat="43.33426" lon="2.54461">
        <ele>221.24</ele>
        <time>2012-09-20T07:31:15Z</time>
      </trkpt>
      <trkpt lat="43.33426" lon="2.54461">
        <ele>221.24</ele>
        <time>2012-09-20T07:31:42Z</time>
      </trkpt>
      <trkpt lat="43.33426" lon="2.54458">
        <ele>221.24</ele>
        <time>2012-09-20T07:32:08Z</time>
      </trkpt>
      <trkpt lat="43.33426" lon="2.54458">
        <ele>220.76</ele>
        <time>2012-09-20T07:32:36Z</time>
      </trkpt>
      <trkpt lat="43.33426" lon="2.54458">
        <ele>220.76</ele>
        <time>2012-09-20T07:32:59Z</time>
      </trkpt>
      <trkpt lat="43.33426" lon="2.54458">
        <ele>221.24</ele>
        <time>2012-09-20T07:33:16Z</time>
      </trkpt>
      <trkpt lat="43.33425" lon="2.54458">
        <ele>221.24</ele>
        <time>2012-09-20T07:33:32Z</time>
      </trkpt>
      <trkpt lat="43.33425" lon="2.54458">
        <ele>221.24</ele>
        <time>2012-09-20T07:33:46Z</time>
      </trkpt>
      <trkpt lat="43.33425" lon="2.54459">
        <ele>220.76</ele>
        <time>2012-09-20T07:34:04Z</time>
      </trkpt>
      <trkpt lat="43.33425" lon="2.54458">
        <ele>221.24</ele>
        <time>2012-09-20T07:34:28Z</time>
      </trkpt>
      <trkpt lat="43.33425" lon="2.54458">
        <ele>220.76</ele>
        <time>2012-09-20T07:34:51Z</time>
      </trkpt>
      <trkpt lat="43.33424" lon="2.54458">
        <ele>220.76</ele>
        <time>2012-09-20T07:35:16Z</time>
      </trkpt>
      <trkpt lat="43.33424" lon="2.54458">
        <ele>221.24</ele>
        <time>2012-09-20T07:35:42Z</time>
      </trkpt>
      <trkpt lat="43.33425" lon="2.54458">
        <ele>221.24</ele>
        <time>2012-09-20T07:36:09Z</time>
      </trkpt>
      <trkpt lat="43.33422" lon="2.54463">
        <ele>219.8</ele>
        <time>2012-09-20T07:36:23Z</time>
      </trkpt>
      <trkpt lat="43.33418" lon="2.54472">
        <ele>219.8</ele>
        <time>2012-09-20T07:36:32Z</time>
      </trkpt>
      <trkpt lat="43.33417" lon="2.54474">
        <ele>219.8</ele>
        <time>2012-09-20T07:36:34Z</time>
      </trkpt>
      <trkpt lat="43.33413" lon="2.54495">
        <ele>216.91</ele>
        <time>2012-09-20T07:36:49Z</time>
      </trkpt>
      <trkpt lat="43.33417" lon="2.54515">
        <ele>215.95</ele>
        <time>2012-09-20T07:37:03Z</time>
      </trkpt>
      <trkpt lat="43.33421" lon="2.54528">
        <ele>213.07</ele>
        <time>2012-09-20T07:37:17Z</time>
      </trkpt>
      <trkpt lat="43.33429" lon="2.54532">
        <ele>212.59</ele>
        <time>2012-09-20T07:37:27Z</time>
      </trkpt>
      <trkpt lat="43.33443" lon="2.54525">
        <ele>210.67</ele>
        <time>2012-09-20T07:37:41Z</time>
      </trkpt>
      <trkpt lat="43.33447" lon="2.54517">
        <ele>210.19</ele>
        <time>2012-09-20T07:37:48Z</time>
      </trkpt>
      <trkpt lat="43.33457" lon="2.54514">
        <ele>211.63</ele>
        <time>2012-09-20T07:38:00Z</time>
      </trkpt>
      <trkpt lat="43.33469" lon="2.54522">
        <ele>212.11</ele>
        <time>2012-09-20T07:38:13Z</time>
      </trkpt>
      <trkpt lat="43.3347" lon="2.54522">
        <ele>212.59</ele>
        <time>2012-09-20T07:38:14Z</time>
      </trkpt>
      <trkpt lat="43.33472" lon="2.54524">
        <ele>212.59</ele>
        <time>2012-09-20T07:38:16Z</time>
      </trkpt>
      <trkpt lat="43.33474" lon="2.54526">
        <ele>212.59</ele>
        <time>2012-09-20T07:38:19Z</time>
      </trkpt>
      <trkpt lat="43.33476" lon="2.54528">
        <ele>213.07</ele>
        <time>2012-09-20T07:38:21Z</time>
      </trkpt>
      <trkpt lat="43.33485" lon="2.54532">
        <ele>213.07</ele>
        <time>2012-09-20T07:38:28Z</time>
      </trkpt>
      <trkpt lat="43.33487" lon="2.54535">
        <ele>213.55</ele>
        <time>2012-09-20T07:38:31Z</time>
      </trkpt>
      <trkpt lat="43.33495" lon="2.54544">
        <ele>214.99</ele>
        <time>2012-09-20T07:38:41Z</time>
      </trkpt>
      <trkpt lat="43.33496" lon="2.54546">
        <ele>214.99</ele>
        <time>2012-09-20T07:38:43Z</time>
      </trkpt>
      <trkpt lat="43.33496" lon="2.54551">
        <ele>215.47</ele>
        <time>2012-09-20T07:38:46Z</time>
      </trkpt>
      <trkpt lat="43.33494" lon="2.5457">
        <ele>216.91</ele>
        <time>2012-09-20T07:38:59Z</time>
      </trkpt>
      <trkpt lat="43.33492" lon="2.54582">
        <ele>217.88</ele>
        <time>2012-09-20T07:39:09Z</time>
      </trkpt>
      <trkpt lat="43.33491" lon="2.54588">
        <ele>218.36</ele>
        <time>2012-09-20T07:39:14Z</time>
      </trkpt>
      <trkpt lat="43.33492" lon="2.54601">
        <ele>219.8</ele>
        <time>2012-09-20T07:39:26Z</time>
      </trkpt>
      <trkpt lat="43.33492" lon="2.54604">
        <ele>220.28</ele>
        <time>2012-09-20T07:39:29Z</time>
      </trkpt>
      <trkpt lat="43.33493" lon="2.54611">
        <ele>221.24</ele>
        <time>2012-09-20T07:39:33Z</time>
      </trkpt>
      <trkpt lat="43.33494" lon="2.54613">
        <ele>221.24</ele>
        <time>2012-09-20T07:39:35Z</time>
      </trkpt>
      <trkpt lat="43.33495" lon="2.54617">
        <ele>221.72</ele>
        <time>2012-09-20T07:39:38Z</time>
      </trkpt>
      <trkpt lat="43.33498" lon="2.54625">
        <ele>222.68</ele>
        <time>2012-09-20T07:39:45Z</time>
      </trkpt>
      <trkpt lat="43.33498" lon="2.54628">
        <ele>223.16</ele>
        <time>2012-09-20T07:39:47Z</time>
      </trkpt>
      <trkpt lat="43.33499" lon="2.54633">
        <ele>223.16</ele>
        <time>2012-09-20T07:39:51Z</time>
      </trkpt>
      <trkpt lat="43.33502" lon="2.54637">
        <ele>223.16</ele>
        <time>2012-09-20T07:39:54Z</time>
      </trkpt>
      <trkpt lat="43.33502" lon="2.5464">
        <ele>224.12</ele>
        <time>2012-09-20T07:39:57Z</time>
      </trkpt>
      <trkpt lat="43.33502" lon="2.54646">
        <ele>224.12</ele>
        <time>2012-09-20T07:40:01Z</time>
      </trkpt>
      <trkpt lat="43.33503" lon="2.54649">
        <ele>224.61</ele>
        <time>2012-09-20T07:40:04Z</time>
      </trkpt>
      <trkpt lat="43.33503" lon="2.54655">
        <ele>224.61</ele>
        <time>2012-09-20T07:40:09Z</time>
      </trkpt>
      <trkpt lat="43.33505" lon="2.5466">
        <ele>225.57</ele>
        <time>2012-09-20T07:40:22Z</time>
      </trkpt>
      <trkpt lat="43.33506" lon="2.54662">
        <ele>226.05</ele>
        <time>2012-09-20T07:40:33Z</time>
      </trkpt>
      <trkpt lat="43.3351" lon="2.54665">
        <ele>226.53</ele>
        <time>2012-09-20T07:40:42Z</time>
      </trkpt>
      <trkpt lat="43.33513" lon="2.5467">
        <ele>228.93</ele>
        <time>2012-09-20T07:40:53Z</time>
      </trkpt>
      <trkpt lat="43.33516" lon="2.54673">
        <ele>230.37</ele>
        <time>2012-09-20T07:41:04Z</time>
      </trkpt>
      <trkpt lat="43.33521" lon="2.54684">
        <ele>233.26</ele>
        <time>2012-09-20T07:41:19Z</time>
      </trkpt>
      <trkpt lat="43.3352" lon="2.54696">
        <ele>235.18</ele>
        <time>2012-09-20T07:41:32Z</time>
      </trkpt>
      <trkpt lat="43.33522" lon="2.54703">
        <ele>237.58</ele>
        <time>2012-09-20T07:41:45Z</time>
      </trkpt>
      <trkpt lat="43.33523" lon="2.54706">
        <ele>239.02</ele>
        <time>2012-09-20T07:41:57Z</time>
      </trkpt>
      <trkpt lat="43.33527" lon="2.54713">
        <ele>240.95</ele>
        <time>2012-09-20T07:42:07Z</time>
      </trkpt>
      <trkpt lat="43.33532" lon="2.54721">
        <ele>241.43</ele>
        <time>2012-09-20T07:42:18Z</time>
      </trkpt>
      <trkpt lat="43.33537" lon="2.54728">
        <ele>243.35</ele>
        <time>2012-09-20T07:42:30Z</time>
      </trkpt>
      <trkpt lat="43.33543" lon="2.54741">
        <ele>245.75</ele>
        <time>2012-09-20T07:42:43Z</time>
      </trkpt>
      <trkpt lat="43.33549" lon="2.5475">
        <ele>247.68</ele>
        <time>2012-09-20T07:42:55Z</time>
      </trkpt>
      <trkpt lat="43.3355" lon="2.54752">
        <ele>248.16</ele>
        <time>2012-09-20T07:42:57Z</time>
      </trkpt>
      <trkpt lat="43.33552" lon="2.54758">
        <ele>248.64</ele>
        <time>2012-09-20T07:43:02Z</time>
      </trkpt>
      <trkpt lat="43.33557" lon="2.54771">
        <ele>249.6</ele>
        <time>2012-09-20T07:43:11Z</time>
      </trkpt>
      <trkpt lat="43.33564" lon="2.5478">
        <ele>251.04</ele>
        <time>2012-09-20T07:43:23Z</time>
      </trkpt>
      <trkpt lat="43.33568" lon="2.54788">
        <ele>252.96</ele>
        <time>2012-09-20T07:43:33Z</time>
      </trkpt>
      <trkpt lat="43.33568" lon="2.54793">
        <ele>254.41</ele>
        <time>2012-09-20T07:43:38Z</time>
      </trkpt>
      <trkpt lat="43.33568" lon="2.54807">
        <ele>254.89</ele>
        <time>2012-09-20T07:43:50Z</time>
      </trkpt>
      <trkpt lat="43.33568" lon="2.54809">
        <ele>255.37</ele>
        <time>2012-09-20T07:43:53Z</time>
      </trkpt>
      <trkpt lat="43.33568" lon="2.54812">
        <ele>256.33</ele>
        <time>2012-09-20T07:43:56Z</time>
      </trkpt>
      <trkpt lat="43.33572" lon="2.54825">
        <ele>258.25</ele>
        <time>2012-09-20T07:44:08Z</time>
      </trkpt>
      <trkpt lat="43.33577" lon="2.54833">
        <ele>260.65</ele>
        <time>2012-09-20T07:44:22Z</time>
      </trkpt>
      <trkpt lat="43.33579" lon="2.54839">
        <ele>261.62</ele>
        <time>2012-09-20T07:44:28Z</time>
      </trkpt>
      <trkpt lat="43.33572" lon="2.54858">
        <ele>263.54</ele>
        <time>2012-09-20T07:44:44Z</time>
      </trkpt>
      <trkpt lat="43.33575" lon="2.5487">
        <ele>264.02</ele>
        <time>2012-09-20T07:44:57Z</time>
      </trkpt>
      <trkpt lat="43.33576" lon="2.54871">
        <ele>264.5</ele>
        <time>2012-09-20T07:44:58Z</time>
      </trkpt>
      <trkpt lat="43.33575" lon="2.5488">
        <ele>264.98</ele>
        <time>2012-09-20T07:45:11Z</time>
      </trkpt>
      <trkpt lat="43.33574" lon="2.54881">
        <ele>264.98</ele>
        <time>2012-09-20T07:45:30Z</time>
      </trkpt>
      <trkpt lat="43.33575" lon="2.54881">
        <ele>264.98</ele>
        <time>2012-09-20T07:45:50Z</time>
      </trkpt>
      <trkpt lat="43.33577" lon="2.54884">
        <ele>264.98</ele>
        <time>2012-09-20T07:45:54Z</time>
      </trkpt>
      <trkpt lat="43.33581" lon="2.54889">
        <ele>264.98</ele>
        <time>2012-09-20T07:46:01Z</time>
      </trkpt>
      <trkpt lat="43.33586" lon="2.54893">
        <ele>265.46</ele>
        <time>2012-09-20T07:46:08Z</time>
      </trkpt>
      <trkpt lat="43.33597" lon="2.54902">
        <ele>266.9</ele>
        <time>2012-09-20T07:46:23Z</time>
      </trkpt>
      <trkpt lat="43.33598" lon="2.54903">
        <ele>266.9</ele>
        <time>2012-09-20T07:46:24Z</time>
      </trkpt>
      <trkpt lat="43.33606" lon="2.5491">
        <ele>267.38</ele>
        <time>2012-09-20T07:46:37Z</time>
      </trkpt>
      <trkpt lat="43.33615" lon="2.54923">
        <ele>268.83</ele>
        <time>2012-09-20T07:46:51Z</time>
      </trkpt>
      <trkpt lat="43.33625" lon="2.54938">
        <ele>267.86</ele>
        <time>2012-09-20T07:47:06Z</time>
      </trkpt>
      <trkpt lat="43.33629" lon="2.54945">
        <ele>268.35</ele>
        <time>2012-09-20T07:47:15Z</time>
      </trkpt>
      <trkpt lat="43.33637" lon="2.54952">
        <ele>268.35</ele>
        <time>2012-09-20T07:47:30Z</time>
      </trkpt>
      <trkpt lat="43.33645" lon="2.54953">
        <ele>267.86</ele>
        <time>2012-09-20T07:47:41Z</time>
      </trkpt>
      <trkpt lat="43.33655" lon="2.54952">
        <ele>266.9</ele>
        <time>2012-09-20T07:47:52Z</time>
      </trkpt>
      <trkpt lat="43.33671" lon="2.54952">
        <ele>264.98</ele>
        <time>2012-09-20T07:48:09Z</time>
      </trkpt>
      <trkpt lat="43.33686" lon="2.54957">
        <ele>264.02</ele>
        <time>2012-09-20T07:48:24Z</time>
      </trkpt>
      <trkpt lat="43.33698" lon="2.54969">
        <ele>264.02</ele>
        <time>2012-09-20T07:48:39Z</time>
      </trkpt>
      <trkpt lat="43.33701" lon="2.54978">
        <ele>263.54</ele>
        <time>2012-09-20T07:48:45Z</time>
      </trkpt>
      <trkpt lat="43.33704" lon="2.54989">
        <ele>264.5</ele>
        <time>2012-09-20T07:48:53Z</time>
      </trkpt>
      <trkpt lat="43.33705" lon="2.54995">
        <ele>264.98</ele>
        <time>2012-09-20T07:48:57Z</time>
      </trkpt>
      <trkpt lat="43.33705" lon="2.55">
        <ele>265.46</ele>
        <time>2012-09-20T07:49:00Z</time>
      </trkpt>
      <trkpt lat="43.33708" lon="2.55021">
        <ele>265.46</ele>
        <time>2012-09-20T07:49:14Z</time>
      </trkpt>
      <trkpt lat="43.3371" lon="2.55043">
        <ele>264.98</ele>
        <time>2012-09-20T07:49:27Z</time>
      </trkpt>
      <trkpt lat="43.33709" lon="2.55054">
        <ele>264.98</ele>
        <time>2012-09-20T07:49:36Z</time>
      </trkpt>
      <trkpt lat="43.33713" lon="2.55078">
        <ele>264.5</ele>
        <time>2012-09-20T07:49:53Z</time>
      </trkpt>
      <trkpt lat="43.33714" lon="2.55082">
        <ele>264.5</ele>
        <time>2012-09-20T07:50:01Z</time>
      </trkpt>
      <trkpt lat="43.33723" lon="2.55101">
        <ele>263.54</ele>
        <time>2012-09-20T07:50:16Z</time>
      </trkpt>
      <trkpt lat="43.33728" lon="2.55108">
        <ele>263.06</ele>
        <time>2012-09-20T07:50:23Z</time>
      </trkpt>
      <trkpt lat="43.3374" lon="2.5512">
        <ele>262.1</ele>
        <time>2012-09-20T07:50:37Z</time>
      </trkpt>
      <trkpt lat="43.33741" lon="2.55121">
        <ele>261.62</ele>
        <time>2012-09-20T07:50:38Z</time>
      </trkpt>
      <trkpt lat="43.33743" lon="2.55124">
        <ele>261.62</ele>
        <time>2012-09-20T07:50:41Z</time>
      </trkpt>
      <trkpt lat="43.33749" lon="2.55127">
        <ele>260.65</ele>
        <time>2012-09-20T07:50:46Z</time>
      </trkpt>
      <trkpt lat="43.33758" lon="2.55132">
        <ele>260.65</ele>
        <time>2012-09-20T07:50:55Z</time>
      </trkpt>
      <trkpt lat="43.3376" lon="2.55133">
        <ele>260.65</ele>
        <time>2012-09-20T07:50:57Z</time>
      </trkpt>
      <trkpt lat="43.33777" lon="2.55146">
        <ele>260.17</ele>
        <time>2012-09-20T07:51:14Z</time>
      </trkpt>
      <trkpt lat="43.33782" lon="2.5515">
        <ele>259.69</ele>
        <time>2012-09-20T07:51:19Z</time>
      </trkpt>
      <trkpt lat="43.33787" lon="2.55153">
        <ele>259.69</ele>
        <time>2012-09-20T07:51:23Z</time>
      </trkpt>
      <trkpt lat="43.33799" lon="2.55158">
        <ele>259.21</ele>
        <time>2012-09-20T07:51:34Z</time>
      </trkpt>
      <trkpt lat="43.33811" lon="2.55174">
        <ele>259.21</ele>
        <time>2012-09-20T07:51:48Z</time>
      </trkpt>
      <trkpt lat="43.33815" lon="2.55188">
        <ele>259.21</ele>
        <time>2012-09-20T07:51:58Z</time>
      </trkpt>
      <trkpt lat="43.33814" lon="2.55211">
        <ele>259.21</ele>
        <time>2012-09-20T07:52:11Z</time>
      </trkpt>
      <trkpt lat="43.33815" lon="2.55212">
        <ele>259.69</ele>
        <time>2012-09-20T07:52:12Z</time>
      </trkpt>
      <trkpt lat="43.33816" lon="2.55222">
        <ele>260.17</ele>
        <time>2012-09-20T07:52:18Z</time>
      </trkpt>
      <trkpt lat="43.33822" lon="2.55241">
        <ele>260.65</ele>
        <time>2012-09-20T07:52:31Z</time>
      </trkpt>
      <trkpt lat="43.33825" lon="2.55258">
        <ele>261.62</ele>
        <time>2012-09-20T07:52:42Z</time>
      </trkpt>
      <trkpt lat="43.33825" lon="2.55262">
        <ele>262.1</ele>
        <time>2012-09-20T07:52:45Z</time>
      </trkpt>
      <trkpt lat="43.33826" lon="2.55274">
        <ele>262.1</ele>
        <time>2012-09-20T07:52:52Z</time>
      </trkpt>
      <trkpt lat="43.33827" lon="2.5529">
        <ele>263.06</ele>
        <time>2012-09-20T07:53:03Z</time>
      </trkpt>
      <trkpt lat="43.33827" lon="2.55292">
        <ele>263.54</ele>
        <time>2012-09-20T07:53:05Z</time>
      </trkpt>
      <trkpt lat="43.33828" lon="2.55311">
        <ele>264.5</ele>
        <time>2012-09-20T07:53:18Z</time>
      </trkpt>
      <trkpt lat="43.33828" lon="2.55318">
        <ele>265.46</ele>
        <time>2012-09-20T07:53:24Z</time>
      </trkpt>
      <trkpt lat="43.33834" lon="2.55332">
        <ele>265.94</ele>
        <time>2012-09-20T07:53:37Z</time>
      </trkpt>
      <trkpt lat="43.33841" lon="2.55341">
        <ele>265.94</ele>
        <time>2012-09-20T07:53:49Z</time>
      </trkpt>
      <trkpt lat="43.33859" lon="2.55349">
        <ele>267.38</ele>
        <time>2012-09-20T07:54:04Z</time>
      </trkpt>
      <trkpt lat="43.33873" lon="2.55353">
        <ele>268.83</ele>
        <time>2012-09-20T07:54:18Z</time>
      </trkpt>
      <trkpt lat="43.33879" lon="2.55355">
        <ele>269.31</ele>
        <time>2012-09-20T07:54:22Z</time>
      </trkpt>
      <trkpt lat="43.33882" lon="2.55356">
        <ele>268.83</ele>
        <time>2012-09-20T07:54:25Z</time>
      </trkpt>
      <trkpt lat="43.33897" lon="2.55363">
        <ele>269.31</ele>
        <time>2012-09-20T07:54:37Z</time>
      </trkpt>
      <trkpt lat="43.33901" lon="2.55364">
        <ele>269.31</ele>
        <time>2012-09-20T07:54:41Z</time>
      </trkpt>
      <trkpt lat="43.33915" lon="2.55377">
        <ele>269.31</ele>
        <time>2012-09-20T07:54:55Z</time>
      </trkpt>
      <trkpt lat="43.33925" lon="2.55382">
        <ele>268.83</ele>
        <time>2012-09-20T07:55:05Z</time>
      </trkpt>
      <trkpt lat="43.33929" lon="2.55385">
        <ele>268.83</ele>
        <time>2012-09-20T07:55:10Z</time>
      </trkpt>
      <trkpt lat="43.33935" lon="2.55396">
        <ele>268.35</ele>
        <time>2012-09-20T07:55:18Z</time>
      </trkpt>
      <trkpt lat="43.33933" lon="2.55414">
        <ele>268.35</ele>
        <time>2012-09-20T07:55:32Z</time>
      </trkpt>
      <trkpt lat="43.33929" lon="2.55423">
        <ele>268.35</ele>
        <time>2012-09-20T07:55:41Z</time>
      </trkpt>
      <trkpt lat="43.33933" lon="2.55423">
        <ele>268.83</ele>
        <time>2012-09-20T07:55:44Z</time>
      </trkpt>
      <trkpt lat="43.3393" lon="2.5543">
        <ele>269.31</ele>
        <time>2012-09-20T07:55:48Z</time>
      </trkpt>
      <trkpt lat="43.33921" lon="2.55444">
        <ele>269.79</ele>
        <time>2012-09-20T07:55:59Z</time>
      </trkpt>
      <trkpt lat="43.33919" lon="2.55446">
        <ele>269.79</ele>
        <time>2012-09-20T07:56:01Z</time>
      </trkpt>
      <trkpt lat="43.33917" lon="2.55448">
        <ele>269.79</ele>
        <time>2012-09-20T07:56:03Z</time>
      </trkpt>
      <trkpt lat="43.33912" lon="2.55451">
        <ele>271.23</ele>
        <time>2012-09-20T07:56:08Z</time>
      </trkpt>
      <trkpt lat="43.3391" lon="2.55452">
        <ele>271.23</ele>
        <time>2012-09-20T07:56:10Z</time>
      </trkpt>
      <trkpt lat="43.33904" lon="2.55456">
        <ele>270.75</ele>
        <time>2012-09-20T07:56:16Z</time>
      </trkpt>
      <trkpt lat="43.339" lon="2.55463">
        <ele>271.23</ele>
        <time>2012-09-20T07:56:21Z</time>
      </trkpt>
      <trkpt lat="43.33897" lon="2.55484">
        <ele>271.71</ele>
        <time>2012-09-20T07:56:35Z</time>
      </trkpt>
      <trkpt lat="43.33901" lon="2.55492">
        <ele>272.67</ele>
        <time>2012-09-20T07:56:42Z</time>
      </trkpt>
      <trkpt lat="43.33909" lon="2.55506">
        <ele>272.19</ele>
        <time>2012-09-20T07:56:54Z</time>
      </trkpt>
      <trkpt lat="43.33915" lon="2.55516">
        <ele>272.67</ele>
        <time>2012-09-20T07:57:03Z</time>
      </trkpt>
      <trkpt lat="43.3392" lon="2.55522">
        <ele>273.63</ele>
        <time>2012-09-20T07:57:17Z</time>
      </trkpt>
      <trkpt lat="43.33921" lon="2.55526">
        <ele>273.63</ele>
        <time>2012-09-20T07:57:31Z</time>
      </trkpt>
      <trkpt lat="43.33922" lon="2.55533">
        <ele>273.63</ele>
        <time>2012-09-20T07:57:38Z</time>
      </trkpt>
      <trkpt lat="43.33931" lon="2.55551">
        <ele>274.59</ele>
        <time>2012-09-20T07:57:52Z</time>
      </trkpt>
      <trkpt lat="43.33939" lon="2.55571">
        <ele>275.07</ele>
        <time>2012-09-20T07:58:04Z</time>
      </trkpt>
      <trkpt lat="43.33939" lon="2.55583">
        <ele>275.56</ele>
        <time>2012-09-20T07:58:10Z</time>
      </trkpt>
      <trkpt lat="43.33941" lon="2.55593">
        <ele>276.52</ele>
        <time>2012-09-20T07:58:17Z</time>
      </trkpt>
      <trkpt lat="43.33942" lon="2.55608">
        <ele>277.96</ele>
        <time>2012-09-20T07:58:29Z</time>
      </trkpt>
      <trkpt lat="43.33944" lon="2.55626">
        <ele>278.92</ele>
        <time>2012-09-20T07:58:42Z</time>
      </trkpt>
      <trkpt lat="43.33944" lon="2.55632">
        <ele>279.4</ele>
        <time>2012-09-20T07:58:46Z</time>
      </trkpt>
      <trkpt lat="43.33945" lon="2.55638">
        <ele>279.4</ele>
        <time>2012-09-20T07:58:50Z</time>
      </trkpt>
      <trkpt lat="43.33944" lon="2.55646">
        <ele>280.36</ele>
        <time>2012-09-20T07:58:55Z</time>
      </trkpt>
      <trkpt lat="43.33945" lon="2.55663">
        <ele>281.32</ele>
        <time>2012-09-20T07:59:06Z</time>
      </trkpt>
      <trkpt lat="43.33945" lon="2.55664">
        <ele>281.32</ele>
        <time>2012-09-20T07:59:07Z</time>
      </trkpt>
      <trkpt lat="43.33948" lon="2.55675">
        <ele>281.32</ele>
        <time>2012-09-20T07:59:14Z</time>
      </trkpt>
      <trkpt lat="43.33952" lon="2.55693">
        <ele>280.84</ele>
        <time>2012-09-20T07:59:25Z</time>
      </trkpt>
      <trkpt lat="43.33953" lon="2.55699">
        <ele>281.32</ele>
        <time>2012-09-20T07:59:29Z</time>
      </trkpt>
      <trkpt lat="43.33953" lon="2.55703">
        <ele>280.36</ele>
        <time>2012-09-20T07:59:32Z</time>
      </trkpt>
      <trkpt lat="43.33953" lon="2.55706">
        <ele>280.84</ele>
        <time>2012-09-20T07:59:34Z</time>
      </trkpt>
      <trkpt lat="43.33949" lon="2.55727">
        <ele>280.84</ele>
        <time>2012-09-20T07:59:48Z</time>
      </trkpt>
      <trkpt lat="43.33943" lon="2.55752">
        <ele>280.84</ele>
        <time>2012-09-20T08:00:04Z</time>
      </trkpt>
      <trkpt lat="43.33945" lon="2.55767">
        <ele>279.88</ele>
        <time>2012-09-20T08:00:13Z</time>
      </trkpt>
      <trkpt lat="43.33955" lon="2.55791">
        <ele>279.88</ele>
        <time>2012-09-20T08:00:30Z</time>
      </trkpt>
      <trkpt lat="43.33964" lon="2.55805">
        <ele>278.92</ele>
        <time>2012-09-20T08:00:43Z</time>
      </trkpt>
      <trkpt lat="43.33966" lon="2.55815">
        <ele>279.4</ele>
        <time>2012-09-20T08:00:49Z</time>
      </trkpt>
      <trkpt lat="43.33965" lon="2.5582">
        <ele>279.4</ele>
        <time>2012-09-20T08:00:53Z</time>
      </trkpt>
      <trkpt lat="43.33955" lon="2.55826">
        <ele>279.88</ele>
        <time>2012-09-20T08:01:03Z</time>
      </trkpt>
      <trkpt lat="43.33946" lon="2.55832">
        <ele>279.88</ele>
        <time>2012-09-20T08:01:12Z</time>
      </trkpt>
      <trkpt lat="43.33943" lon="2.55837">
        <ele>280.36</ele>
        <time>2012-09-20T08:01:17Z</time>
      </trkpt>
      <trkpt lat="43.33942" lon="2.55842">
        <ele>280.84</ele>
        <time>2012-09-20T08:01:21Z</time>
      </trkpt>
      <trkpt lat="43.33941" lon="2.55845">
        <ele>280.36</ele>
        <time>2012-09-20T08:01:23Z</time>
      </trkpt>
      <trkpt lat="43.33938" lon="2.5585">
        <ele>281.32</ele>
        <time>2012-09-20T08:01:28Z</time>
      </trkpt>
      <trkpt lat="43.33936" lon="2.55857">
        <ele>282.28</ele>
        <time>2012-09-20T08:01:33Z</time>
      </trkpt>
      <trkpt lat="43.33936" lon="2.55862">
        <ele>281.8</ele>
        <time>2012-09-20T08:01:36Z</time>
      </trkpt>
      <trkpt lat="43.33933" lon="2.55871">
        <ele>282.28</ele>
        <time>2012-09-20T08:01:43Z</time>
      </trkpt>
      <trkpt lat="43.33931" lon="2.55881">
        <ele>283.25</ele>
        <time>2012-09-20T08:01:50Z</time>
      </trkpt>
      <trkpt lat="43.33931" lon="2.55897">
        <ele>284.21</ele>
        <time>2012-09-20T08:02:01Z</time>
      </trkpt>
      <trkpt lat="43.33932" lon="2.559">
        <ele>284.69</ele>
        <time>2012-09-20T08:02:04Z</time>
      </trkpt>
      <trkpt lat="43.33932" lon="2.55904">
        <ele>285.17</ele>
        <time>2012-09-20T08:02:07Z</time>
      </trkpt>
      <trkpt lat="43.33933" lon="2.55907">
        <ele>285.17</ele>
        <time>2012-09-20T08:02:09Z</time>
      </trkpt>
      <trkpt lat="43.33932" lon="2.55919">
        <ele>285.65</ele>
        <time>2012-09-20T08:02:16Z</time>
      </trkpt>
      <trkpt lat="43.33933" lon="2.55926">
        <ele>286.61</ele>
        <time>2012-09-20T08:02:21Z</time>
      </trkpt>
      <trkpt lat="43.33938" lon="2.55937">
        <ele>287.09</ele>
        <time>2012-09-20T08:02:29Z</time>
      </trkpt>
      <trkpt lat="43.33945" lon="2.55952">
        <ele>288.05</ele>
        <time>2012-09-20T08:02:42Z</time>
      </trkpt>
      <trkpt lat="43.33947" lon="2.55954">
        <ele>288.05</ele>
        <time>2012-09-20T08:02:44Z</time>
      </trkpt>
      <trkpt lat="43.33948" lon="2.55958">
        <ele>288.53</ele>
        <time>2012-09-20T08:02:47Z</time>
      </trkpt>
      <trkpt lat="43.33951" lon="2.55966">
        <ele>289.01</ele>
        <time>2012-09-20T08:02:53Z</time>
      </trkpt>
      <trkpt lat="43.33954" lon="2.55974">
        <ele>289.97</ele>
        <time>2012-09-20T08:03:00Z</time>
      </trkpt>
      <trkpt lat="43.33968" lon="2.55983">
        <ele>290.46</ele>
        <time>2012-09-20T08:03:16Z</time>
      </trkpt>
      <trkpt lat="43.33969" lon="2.55984">
        <ele>290.46</ele>
        <time>2012-09-20T08:03:17Z</time>
      </trkpt>
      <trkpt lat="43.33986" lon="2.55983">
        <ele>291.9</ele>
        <time>2012-09-20T08:03:33Z</time>
      </trkpt>
      <trkpt lat="43.33988" lon="2.55981">
        <ele>292.38</ele>
        <time>2012-09-20T08:03:36Z</time>
      </trkpt>
      <trkpt lat="43.3399" lon="2.55979">
        <ele>292.38</ele>
        <time>2012-09-20T08:03:38Z</time>
      </trkpt>
      <trkpt lat="43.34001" lon="2.55973">
        <ele>293.82</ele>
        <time>2012-09-20T08:03:50Z</time>
      </trkpt>
      <trkpt lat="43.34014" lon="2.55967">
        <ele>294.78</ele>
        <time>2012-09-20T08:04:02Z</time>
      </trkpt>
      <trkpt lat="43.34023" lon="2.55965">
        <ele>295.26</ele>
        <time>2012-09-20T08:04:12Z</time>
      </trkpt>
      <trkpt lat="43.34028" lon="2.55964">
        <ele>296.22</ele>
        <time>2012-09-20T08:04:16Z</time>
      </trkpt>
      <trkpt lat="43.34031" lon="2.55964">
        <ele>296.7</ele>
        <time>2012-09-20T08:04:19Z</time>
      </trkpt>
      <trkpt lat="43.34048" lon="2.55966">
        <ele>298.15</ele>
        <time>2012-09-20T08:04:34Z</time>
      </trkpt>
      <trkpt lat="43.34063" lon="2.55969">
        <ele>298.15</ele>
        <time>2012-09-20T08:04:48Z</time>
      </trkpt>
      <trkpt lat="43.3407" lon="2.55971">
        <ele>298.15</ele>
        <time>2012-09-20T08:04:55Z</time>
      </trkpt>
      <trkpt lat="43.34073" lon="2.55971">
        <ele>298.15</ele>
        <time>2012-09-20T08:04:58Z</time>
      </trkpt>
      <trkpt lat="43.34076" lon="2.55971">
        <ele>300.07</ele>
        <time>2012-09-20T08:05:00Z</time>
      </trkpt>
      <trkpt lat="43.34082" lon="2.55972">
        <ele>301.03</ele>
        <time>2012-09-20T08:05:05Z</time>
      </trkpt>
      <trkpt lat="43.34087" lon="2.55971">
        <ele>301.03</ele>
        <time>2012-09-20T08:05:09Z</time>
      </trkpt>
      <trkpt lat="43.3409" lon="2.55971">
        <ele>301.51</ele>
        <time>2012-09-20T08:05:12Z</time>
      </trkpt>
      <trkpt lat="43.34093" lon="2.5597">
        <ele>301.51</ele>
        <time>2012-09-20T08:05:15Z</time>
      </trkpt>
      <trkpt lat="43.34102" lon="2.55963">
        <ele>302.47</ele>
        <time>2012-09-20T08:05:26Z</time>
      </trkpt>
      <trkpt lat="43.34104" lon="2.55962">
        <ele>302.95</ele>
        <time>2012-09-20T08:05:28Z</time>
      </trkpt>
      <trkpt lat="43.34111" lon="2.55957">
        <ele>302.47</ele>
        <time>2012-09-20T08:05:35Z</time>
      </trkpt>
      <trkpt lat="43.34117" lon="2.55953">
        <ele>302.47</ele>
        <time>2012-09-20T08:05:41Z</time>
      </trkpt>
      <trkpt lat="43.34119" lon="2.5595">
        <ele>302.47</ele>
        <time>2012-09-20T08:05:44Z</time>
      </trkpt>
      <trkpt lat="43.34123" lon="2.55945">
        <ele>301.99</ele>
        <time>2012-09-20T08:05:49Z</time>
      </trkpt>
      <trkpt lat="43.34127" lon="2.5594">
        <ele>301.99</ele>
        <time>2012-09-20T08:05:54Z</time>
      </trkpt>
      <trkpt lat="43.34134" lon="2.55941">
        <ele>301.99</ele>
        <time>2012-09-20T08:06:01Z</time>
      </trkpt>
      <trkpt lat="43.34138" lon="2.55944">
        <ele>301.99</ele>
        <time>2012-09-20T08:06:04Z</time>
      </trkpt>
      <trkpt lat="43.3414" lon="2.55947">
        <ele>302.47</ele>
        <time>2012-09-20T08:06:07Z</time>
      </trkpt>
      <trkpt lat="43.34141" lon="2.55953">
        <ele>302.95</ele>
        <time>2012-09-20T08:06:12Z</time>
      </trkpt>
      <trkpt lat="43.34143" lon="2.55974">
        <ele>303.91</ele>
        <time>2012-09-20T08:06:25Z</time>
      </trkpt>
      <trkpt lat="43.34144" lon="2.5599">
        <ele>302.47</ele>
        <time>2012-09-20T08:06:39Z</time>
      </trkpt>
      <trkpt lat="43.34145" lon="2.55995">
        <ele>305.36</ele>
        <time>2012-09-20T08:06:44Z</time>
      </trkpt>
      <trkpt lat="43.34146" lon="2.56">
        <ele>305.84</ele>
        <time>2012-09-20T08:06:57Z</time>
      </trkpt>
      <trkpt lat="43.34146" lon="2.56001">
        <ele>305.84</ele>
        <time>2012-09-20T08:07:14Z</time>
      </trkpt>
      <trkpt lat="43.34141" lon="2.56011">
        <ele>306.8</ele>
        <time>2012-09-20T08:07:22Z</time>
      </trkpt>
      <trkpt lat="43.34139" lon="2.56018">
        <ele>307.28</ele>
        <time>2012-09-20T08:07:27Z</time>
      </trkpt>
      <trkpt lat="43.34135" lon="2.56033">
        <ele>307.76</ele>
        <time>2012-09-20T08:07:38Z</time>
      </trkpt>
      <trkpt lat="43.34134" lon="2.56038">
        <ele>307.76</ele>
        <time>2012-09-20T08:07:41Z</time>
      </trkpt>
      <trkpt lat="43.34133" lon="2.56041">
        <ele>307.76</ele>
        <time>2012-09-20T08:07:43Z</time>
      </trkpt>
      <trkpt lat="43.34126" lon="2.56056">
        <ele>308.24</ele>
        <time>2012-09-20T08:07:57Z</time>
      </trkpt>
      <trkpt lat="43.34126" lon="2.56059">
        <ele>309.2</ele>
        <time>2012-09-20T08:07:59Z</time>
      </trkpt>
      <trkpt lat="43.34124" lon="2.56063">
        <ele>308.72</ele>
        <time>2012-09-20T08:08:02Z</time>
      </trkpt>
      <trkpt lat="43.34123" lon="2.56067">
        <ele>310.16</ele>
        <time>2012-09-20T08:08:06Z</time>
      </trkpt>
      <trkpt lat="43.34121" lon="2.56069">
        <ele>310.16</ele>
        <time>2012-09-20T08:08:08Z</time>
      </trkpt>
      <trkpt lat="43.34119" lon="2.56073">
        <ele>310.16</ele>
        <time>2012-09-20T08:08:11Z</time>
      </trkpt>
      <trkpt lat="43.34116" lon="2.56083">
        <ele>311.12</ele>
        <time>2012-09-20T08:08:18Z</time>
      </trkpt>
      <trkpt lat="43.34115" lon="2.56085">
        <ele>311.12</ele>
        <time>2012-09-20T08:08:20Z</time>
      </trkpt>
      <trkpt lat="43.34115" lon="2.56088">
        <ele>311.6</ele>
        <time>2012-09-20T08:08:22Z</time>
      </trkpt>
      <trkpt lat="43.34116" lon="2.56093">
        <ele>311.6</ele>
        <time>2012-09-20T08:08:25Z</time>
      </trkpt>
      <trkpt lat="43.34118" lon="2.56097">
        <ele>312.57</ele>
        <time>2012-09-20T08:08:29Z</time>
      </trkpt>
      <trkpt lat="43.34123" lon="2.56099">
        <ele>312.57</ele>
        <time>2012-09-20T08:08:35Z</time>
      </trkpt>
      <trkpt lat="43.34126" lon="2.56097">
        <ele>313.05</ele>
        <time>2012-09-20T08:08:38Z</time>
      </trkpt>
      <trkpt lat="43.34137" lon="2.56091">
        <ele>313.05</ele>
        <time>2012-09-20T08:08:48Z</time>
      </trkpt>
      <trkpt lat="43.34148" lon="2.56088">
        <ele>314.49</ele>
        <time>2012-09-20T08:09:01Z</time>
      </trkpt>
      <trkpt lat="43.34155" lon="2.56088">
        <ele>314.97</ele>
        <time>2012-09-20T08:09:15Z</time>
      </trkpt>
      <trkpt lat="43.34164" lon="2.56091">
        <ele>314.97</ele>
        <time>2012-09-20T08:09:26Z</time>
      </trkpt>
      <trkpt lat="43.34177" lon="2.56095">
        <ele>316.89</ele>
        <time>2012-09-20T08:09:41Z</time>
      </trkpt>
      <trkpt lat="43.34185" lon="2.56097">
        <ele>317.85</ele>
        <time>2012-09-20T08:09:53Z</time>
      </trkpt>
      <trkpt lat="43.34189" lon="2.56095">
        <ele>317.85</ele>
        <time>2012-09-20T08:10:06Z</time>
      </trkpt>
      <trkpt lat="43.34193" lon="2.56091">
        <ele>320.26</ele>
        <time>2012-09-20T08:10:18Z</time>
      </trkpt>
      <trkpt lat="43.34198" lon="2.56089">
        <ele>322.18</ele>
        <time>2012-09-20T08:10:32Z</time>
      </trkpt>
      <trkpt lat="43.34199" lon="2.56083">
        <ele>324.1</ele>
        <time>2012-09-20T08:10:44Z</time>
      </trkpt>
      <trkpt lat="43.34205" lon="2.56081">
        <ele>325.54</ele>
        <time>2012-09-20T08:10:54Z</time>
      </trkpt>
      <trkpt lat="43.3421" lon="2.56082">
        <ele>326.99</ele>
        <time>2012-09-20T08:11:09Z</time>
      </trkpt>
      <trkpt lat="43.34211" lon="2.56082">
        <ele>327.47</ele>
        <time>2012-09-20T08:11:28Z</time>
      </trkpt>
      <trkpt lat="43.34215" lon="2.56083">
        <ele>328.91</ele>
        <time>2012-09-20T08:11:44Z</time>
      </trkpt>
      <trkpt lat="43.34222" lon="2.56079">
        <ele>331.79</ele>
        <time>2012-09-20T08:11:56Z</time>
      </trkpt>
      <trkpt lat="43.34224" lon="2.56076">
        <ele>334.68</ele>
        <time>2012-09-20T08:12:08Z</time>
      </trkpt>
      <trkpt lat="43.34224" lon="2.56075">
        <ele>335.16</ele>
        <time>2012-09-20T08:12:11Z</time>
      </trkpt>
      <trkpt lat="43.34227" lon="2.56059">
        <ele>335.16</ele>
        <time>2012-09-20T08:12:22Z</time>
      </trkpt>
      <trkpt lat="43.34227" lon="2.56051">
        <ele>335.64</ele>
        <time>2012-09-20T08:12:27Z</time>
      </trkpt>
      <trkpt lat="43.34228" lon="2.56029">
        <ele>335.16</ele>
        <time>2012-09-20T08:12:41Z</time>
      </trkpt>
      <trkpt lat="43.34228" lon="2.56027">
        <ele>335.16</ele>
        <time>2012-09-20T08:12:42Z</time>
      </trkpt>
      <trkpt lat="43.34228" lon="2.56024">
        <ele>335.16</ele>
        <time>2012-09-20T08:12:44Z</time>
      </trkpt>
      <trkpt lat="43.34229" lon="2.5601">
        <ele>336.6</ele>
        <time>2012-09-20T08:12:57Z</time>
      </trkpt>
      <trkpt lat="43.34228" lon="2.56004">
        <ele>338.04</ele>
        <time>2012-09-20T08:13:03Z</time>
      </trkpt>
      <trkpt lat="43.34227" lon="2.56001">
        <ele>338.52</ele>
        <time>2012-09-20T08:13:05Z</time>
      </trkpt>
      <trkpt lat="43.34223" lon="2.55985">
        <ele>339.48</ele>
        <time>2012-09-20T08:13:16Z</time>
      </trkpt>
      <trkpt lat="43.34223" lon="2.55971">
        <ele>340.44</ele>
        <time>2012-09-20T08:13:29Z</time>
      </trkpt>
      <trkpt lat="43.34226" lon="2.55958">
        <ele>342.37</ele>
        <time>2012-09-20T08:13:41Z</time>
      </trkpt>
      <trkpt lat="43.34225" lon="2.55956">
        <ele>342.37</ele>
        <time>2012-09-20T08:13:53Z</time>
      </trkpt>
      <trkpt lat="43.34225" lon="2.55955">
        <ele>342.37</ele>
        <time>2012-09-20T08:14:06Z</time>
      </trkpt>
      <trkpt lat="43.34228" lon="2.55948">
        <ele>344.29</ele>
        <time>2012-09-20T08:14:16Z</time>
      </trkpt>
      <trkpt lat="43.34233" lon="2.55936">
        <ele>345.73</ele>
        <time>2012-09-20T08:14:30Z</time>
      </trkpt>
      <trkpt lat="43.34236" lon="2.55932">
        <ele>347.17</ele>
        <time>2012-09-20T08:14:37Z</time>
      </trkpt>
      <trkpt lat="43.3424" lon="2.55925">
        <ele>347.65</ele>
        <time>2012-09-20T08:14:49Z</time>
      </trkpt>
      <trkpt lat="43.34247" lon="2.55914">
        <ele>348.62</ele>
        <time>2012-09-20T08:15:02Z</time>
      </trkpt>
      <trkpt lat="43.34249" lon="2.55905">
        <ele>349.1</ele>
        <time>2012-09-20T08:15:14Z</time>
      </trkpt>
      <trkpt lat="43.34251" lon="2.55895">
        <ele>350.54</ele>
        <time>2012-09-20T08:15:25Z</time>
      </trkpt>
      <trkpt lat="43.34252" lon="2.55892">
        <ele>351.02</ele>
        <time>2012-09-20T08:15:29Z</time>
      </trkpt>
      <trkpt lat="43.34256" lon="2.55886">
        <ele>352.46</ele>
        <time>2012-09-20T08:15:39Z</time>
      </trkpt>
      <trkpt lat="43.34258" lon="2.55879">
        <ele>354.38</ele>
        <time>2012-09-20T08:15:50Z</time>
      </trkpt>
      <trkpt lat="43.34263" lon="2.55871">
        <ele>355.83</ele>
        <time>2012-09-20T08:16:01Z</time>
      </trkpt>
      <trkpt lat="43.34269" lon="2.55864">
        <ele>358.23</ele>
        <time>2012-09-20T08:16:13Z</time>
      </trkpt>
      <trkpt lat="43.34273" lon="2.55856">
        <ele>360.63</ele>
        <time>2012-09-20T08:16:27Z</time>
      </trkpt>
      <trkpt lat="43.34278" lon="2.55847">
        <ele>362.55</ele>
        <time>2012-09-20T08:16:39Z</time>
      </trkpt>
      <trkpt lat="43.34284" lon="2.5584">
        <ele>364</ele>
        <time>2012-09-20T08:16:50Z</time>
      </trkpt>
      <trkpt lat="43.34289" lon="2.55833">
        <ele>366.88</ele>
        <time>2012-09-20T08:17:04Z</time>
      </trkpt>
      <trkpt lat="43.34295" lon="2.55821">
        <ele>367.84</ele>
        <time>2012-09-20T08:17:16Z</time>
      </trkpt>
      <trkpt lat="43.34301" lon="2.55814">
        <ele>369.28</ele>
        <time>2012-09-20T08:17:28Z</time>
      </trkpt>
      <trkpt lat="43.34311" lon="2.5581">
        <ele>371.21</ele>
        <time>2012-09-20T08:17:42Z</time>
      </trkpt>
      <trkpt lat="43.34318" lon="2.55814">
        <ele>373.13</ele>
        <time>2012-09-20T08:17:54Z</time>
      </trkpt>
      <trkpt lat="43.34326" lon="2.55818">
        <ele>374.57</ele>
        <time>2012-09-20T08:18:07Z</time>
      </trkpt>
      <trkpt lat="43.34334" lon="2.55818">
        <ele>376.01</ele>
        <time>2012-09-20T08:18:19Z</time>
      </trkpt>
      <trkpt lat="43.34342" lon="2.55818">
        <ele>377.45</ele>
        <time>2012-09-20T08:18:29Z</time>
      </trkpt>
      <trkpt lat="43.34351" lon="2.55819">
        <ele>378.9</ele>
        <time>2012-09-20T08:18:42Z</time>
      </trkpt>
      <trkpt lat="43.34351" lon="2.55819">
        <ele>378.9</ele>
        <time>2012-09-20T08:18:43Z</time>
      </trkpt>
      <trkpt lat="43.34363" lon="2.55823">
        <ele>380.82</ele>
        <time>2012-09-20T08:18:55Z</time>
      </trkpt>
      <trkpt lat="43.34372" lon="2.55829">
        <ele>382.26</ele>
        <time>2012-09-20T08:19:08Z</time>
      </trkpt>
      <trkpt lat="43.34383" lon="2.55832">
        <ele>383.7</ele>
        <time>2012-09-20T08:19:22Z</time>
      </trkpt>
      <trkpt lat="43.34395" lon="2.55834">
        <ele>385.63</ele>
        <time>2012-09-20T08:19:36Z</time>
      </trkpt>
      <trkpt lat="43.34396" lon="2.55835">
        <ele>386.11</ele>
        <time>2012-09-20T08:19:38Z</time>
      </trkpt>
      <trkpt lat="43.34399" lon="2.55836">
        <ele>386.59</ele>
        <time>2012-09-20T08:19:42Z</time>
      </trkpt>
      <trkpt lat="43.34406" lon="2.55841">
        <ele>388.51</ele>
        <time>2012-09-20T08:19:55Z</time>
      </trkpt>
      <trkpt lat="43.34412" lon="2.55846">
        <ele>390.43</ele>
        <time>2012-09-20T08:20:10Z</time>
      </trkpt>
      <trkpt lat="43.34419" lon="2.55851">
        <ele>392.36</ele>
        <time>2012-09-20T08:20:23Z</time>
      </trkpt>
      <trkpt lat="43.34426" lon="2.55857">
        <ele>394.76</ele>
        <time>2012-09-20T08:20:36Z</time>
      </trkpt>
      <trkpt lat="43.34431" lon="2.55864">
        <ele>395.72</ele>
        <time>2012-09-20T08:20:48Z</time>
      </trkpt>
      <trkpt lat="43.34437" lon="2.55872">
        <ele>397.64</ele>
        <time>2012-09-20T08:21:00Z</time>
      </trkpt>
      <trkpt lat="43.34444" lon="2.55879">
        <ele>399.57</ele>
        <time>2012-09-20T08:21:12Z</time>
      </trkpt>
      <trkpt lat="43.3445" lon="2.55887">
        <ele>401.49</ele>
        <time>2012-09-20T08:21:24Z</time>
      </trkpt>
      <trkpt lat="43.34458" lon="2.55902">
        <ele>403.41</ele>
        <time>2012-09-20T08:21:39Z</time>
      </trkpt>
      <trkpt lat="43.34463" lon="2.55912">
        <ele>405.33</ele>
        <time>2012-09-20T08:21:52Z</time>
      </trkpt>
      <trkpt lat="43.3447" lon="2.55923">
        <ele>406.77</ele>
        <time>2012-09-20T08:22:04Z</time>
      </trkpt>
      <trkpt lat="43.34474" lon="2.55933">
        <ele>406.77</ele>
        <time>2012-09-20T08:22:15Z</time>
      </trkpt>
      <trkpt lat="43.34474" lon="2.55935">
        <ele>407.26</ele>
        <time>2012-09-20T08:22:31Z</time>
      </trkpt>
      <trkpt lat="43.34475" lon="2.55939">
        <ele>407.26</ele>
        <time>2012-09-20T08:23:06Z</time>
      </trkpt>
      <trkpt lat="43.34478" lon="2.55944">
        <ele>407.26</ele>
        <time>2012-09-20T08:23:17Z</time>
      </trkpt>
      <trkpt lat="43.34478" lon="2.55944">
        <ele>407.26</ele>
        <time>2012-09-20T08:23:38Z</time>
      </trkpt>
      <trkpt lat="43.34479" lon="2.55945">
        <ele>407.26</ele>
        <time>2012-09-20T08:23:56Z</time>
      </trkpt>
      <trkpt lat="43.34479" lon="2.55944">
        <ele>407.26</ele>
        <time>2012-09-20T08:24:11Z</time>
      </trkpt>
      <trkpt lat="43.34477" lon="2.55945">
        <ele>406.77</ele>
        <time>2012-09-20T08:24:36Z</time>
      </trkpt>
      <trkpt lat="43.34477" lon="2.55946">
        <ele>406.77</ele>
        <time>2012-09-20T08:25:01Z</time>
      </trkpt>
      <trkpt lat="43.34477" lon="2.55946">
        <ele>406.77</ele>
        <time>2012-09-20T08:25:30Z</time>
      </trkpt>
      <trkpt lat="43.3448" lon="2.55951">
        <ele>407.74</ele>
        <time>2012-09-20T08:25:46Z</time>
      </trkpt>
      <trkpt lat="43.34481" lon="2.55955">
        <ele>407.74</ele>
        <time>2012-09-20T08:25:59Z</time>
      </trkpt>
      <trkpt lat="43.34483" lon="2.55956">
        <ele>407.74</ele>
        <time>2012-09-20T08:26:12Z</time>
      </trkpt>
      <trkpt lat="43.34484" lon="2.5596">
        <ele>408.22</ele>
        <time>2012-09-20T08:26:28Z</time>
      </trkpt>
      <trkpt lat="43.34487" lon="2.55963">
        <ele>408.7</ele>
        <time>2012-09-20T08:26:46Z</time>
      </trkpt>
      <trkpt lat="43.34488" lon="2.55967">
        <ele>408.7</ele>
        <time>2012-09-20T08:26:56Z</time>
      </trkpt>
      <trkpt lat="43.34493" lon="2.55976">
        <ele>409.18</ele>
        <time>2012-09-20T08:27:07Z</time>
      </trkpt>
      <trkpt lat="43.34492" lon="2.55977">
        <ele>409.18</ele>
        <time>2012-09-20T08:27:18Z</time>
      </trkpt>
      <trkpt lat="43.3449" lon="2.5598">
        <ele>409.66</ele>
        <time>2012-09-20T08:27:29Z</time>
      </trkpt>
      <trkpt lat="43.34491" lon="2.5598">
        <ele>409.18</ele>
        <time>2012-09-20T08:27:41Z</time>
      </trkpt>
      <trkpt lat="43.3449" lon="2.55979">
        <ele>408.22</ele>
        <time>2012-09-20T08:28:03Z</time>
      </trkpt>
      <trkpt lat="43.3449" lon="2.55979">
        <ele>409.66</ele>
        <time>2012-09-20T08:28:24Z</time>
      </trkpt>
      <trkpt lat="43.3449" lon="2.5598">
        <ele>409.18</ele>
        <time>2012-09-20T08:28:36Z</time>
      </trkpt>
      <trkpt lat="43.34491" lon="2.55978">
        <ele>409.66</ele>
        <time>2012-09-20T08:29:01Z</time>
      </trkpt>
      <trkpt lat="43.34489" lon="2.55974">
        <ele>409.18</ele>
        <time>2012-09-20T08:29:28Z</time>
      </trkpt>
      <trkpt lat="43.3449" lon="2.55973">
        <ele>408.7</ele>
        <time>2012-09-20T08:29:45Z</time>
      </trkpt>
      <trkpt lat="43.3449" lon="2.55974">
        <ele>408.22</ele>
        <time>2012-09-20T08:30:15Z</time>
      </trkpt>
      <trkpt lat="43.34491" lon="2.55974">
        <ele>409.18</ele>
        <time>2012-09-20T08:30:29Z</time>
      </trkpt>
      <trkpt lat="43.34491" lon="2.55979">
        <ele>408.7</ele>
        <time>2012-09-20T08:30:43Z</time>
      </trkpt>
      <trkpt lat="43.34492" lon="2.55979">
        <ele>409.18</ele>
        <time>2012-09-20T08:30:44Z</time>
      </trkpt>
      <trkpt lat="43.34504" lon="2.55993">
        <ele>407.74</ele>
        <time>2012-09-20T08:30:57Z</time>
      </trkpt>
      <trkpt lat="43.34506" lon="2.55995">
        <ele>408.22</ele>
        <time>2012-09-20T08:30:59Z</time>
      </trkpt>
      <trkpt lat="43.34507" lon="2.55997">
        <ele>407.74</ele>
        <time>2012-09-20T08:31:01Z</time>
      </trkpt>
      <trkpt lat="43.34514" lon="2.56004">
        <ele>408.7</ele>
        <time>2012-09-20T08:31:13Z</time>
      </trkpt>
      <trkpt lat="43.34524" lon="2.56013">
        <ele>408.7</ele>
        <time>2012-09-20T08:31:26Z</time>
      </trkpt>
      <trkpt lat="43.34525" lon="2.56016">
        <ele>409.18</ele>
        <time>2012-09-20T08:31:28Z</time>
      </trkpt>
      <trkpt lat="43.34531" lon="2.56027">
        <ele>410.14</ele>
        <time>2012-09-20T08:31:42Z</time>
      </trkpt>
      <trkpt lat="43.34531" lon="2.56026">
        <ele>409.66</ele>
        <time>2012-09-20T08:32:08Z</time>
      </trkpt>
      <trkpt lat="43.34535" lon="2.5603">
        <ele>409.66</ele>
        <time>2012-09-20T08:32:19Z</time>
      </trkpt>
      <trkpt lat="43.34538" lon="2.56031">
        <ele>410.62</ele>
        <time>2012-09-20T08:32:35Z</time>
      </trkpt>
      <trkpt lat="43.34537" lon="2.56031">
        <ele>410.62</ele>
        <time>2012-09-20T08:32:53Z</time>
      </trkpt>
      <trkpt lat="43.34536" lon="2.56031">
        <ele>410.62</ele>
        <time>2012-09-20T08:33:11Z</time>
      </trkpt>
      <trkpt lat="43.34532" lon="2.56028">
        <ele>410.14</ele>
        <time>2012-09-20T08:33:23Z</time>
      </trkpt>
      <trkpt lat="43.34525" lon="2.56028">
        <ele>410.14</ele>
        <time>2012-09-20T08:33:36Z</time>
      </trkpt>
      <trkpt lat="43.34524" lon="2.56029">
        <ele>410.14</ele>
        <time>2012-09-20T08:33:37Z</time>
      </trkpt>
      <trkpt lat="43.34514" lon="2.56033">
        <ele>410.62</ele>
        <time>2012-09-20T08:33:47Z</time>
      </trkpt>
      <trkpt lat="43.34509" lon="2.56046">
        <ele>413.5</ele>
        <time>2012-09-20T08:33:58Z</time>
      </trkpt>
      <trkpt lat="43.34507" lon="2.5605">
        <ele>410.62</ele>
        <time>2012-09-20T08:34:12Z</time>
      </trkpt>
      <trkpt lat="43.34506" lon="2.56049">
        <ele>411.1</ele>
        <time>2012-09-20T08:34:23Z</time>
      </trkpt>
      <trkpt lat="43.34504" lon="2.56054">
        <ele>410.62</ele>
        <time>2012-09-20T08:34:26Z</time>
      </trkpt>
      <trkpt lat="43.345" lon="2.56063">
        <ele>411.1</ele>
        <time>2012-09-20T08:34:32Z</time>
      </trkpt>
      <trkpt lat="43.34486" lon="2.5608">
        <ele>410.62</ele>
        <time>2012-09-20T08:34:47Z</time>
      </trkpt>
      <trkpt lat="43.34479" lon="2.56094">
        <ele>409.18</ele>
        <time>2012-09-20T08:34:58Z</time>
      </trkpt>
      <trkpt lat="43.34473" lon="2.56101">
        <ele>408.7</ele>
        <time>2012-09-20T08:35:05Z</time>
      </trkpt>
      <trkpt lat="43.34472" lon="2.56112">
        <ele>409.18</ele>
        <time>2012-09-20T08:35:12Z</time>
      </trkpt>
      <trkpt lat="43.34472" lon="2.56116">
        <ele>408.22</ele>
        <time>2012-09-20T08:35:15Z</time>
      </trkpt>
      <trkpt lat="43.34466" lon="2.56128">
        <ele>409.18</ele>
        <time>2012-09-20T08:35:24Z</time>
      </trkpt>
      <trkpt lat="43.34463" lon="2.56133">
        <ele>408.7</ele>
        <time>2012-09-20T08:35:28Z</time>
      </trkpt>
      <trkpt lat="43.34463" lon="2.56142">
        <ele>408.7</ele>
        <time>2012-09-20T08:35:36Z</time>
      </trkpt>
      <trkpt lat="43.34471" lon="2.56152">
        <ele>410.14</ele>
        <time>2012-09-20T08:35:49Z</time>
      </trkpt>
      <trkpt lat="43.34472" lon="2.56156">
        <ele>409.66</ele>
        <time>2012-09-20T08:35:51Z</time>
      </trkpt>
      <trkpt lat="43.34476" lon="2.56173">
        <ele>410.14</ele>
        <time>2012-09-20T08:36:04Z</time>
      </trkpt>
      <trkpt lat="43.34477" lon="2.56179">
        <ele>409.66</ele>
        <time>2012-09-20T08:36:08Z</time>
      </trkpt>
      <trkpt lat="43.34477" lon="2.56191">
        <ele>409.18</ele>
        <time>2012-09-20T08:36:21Z</time>
      </trkpt>
      <trkpt lat="43.34479" lon="2.562">
        <ele>408.7</ele>
        <time>2012-09-20T08:36:36Z</time>
      </trkpt>
      <trkpt lat="43.34479" lon="2.56201">
        <ele>408.22</ele>
        <time>2012-09-20T08:36:46Z</time>
      </trkpt>
      <trkpt lat="43.3448" lon="2.56204">
        <ele>408.7</ele>
        <time>2012-09-20T08:36:56Z</time>
      </trkpt>
      <trkpt lat="43.34488" lon="2.56216">
        <ele>409.66</ele>
        <time>2012-09-20T08:37:09Z</time>
      </trkpt>
      <trkpt lat="43.34488" lon="2.5622">
        <ele>409.66</ele>
        <time>2012-09-20T08:37:23Z</time>
      </trkpt>
      <trkpt lat="43.34482" lon="2.56224">
        <ele>407.74</ele>
        <time>2012-09-20T08:37:34Z</time>
      </trkpt>
      <trkpt lat="43.34478" lon="2.56227">
        <ele>406.29</ele>
        <time>2012-09-20T08:37:47Z</time>
      </trkpt>
      <trkpt lat="43.34477" lon="2.56235">
        <ele>405.33</ele>
        <time>2012-09-20T08:37:59Z</time>
      </trkpt>
      <trkpt lat="43.34473" lon="2.5624">
        <ele>405.33</ele>
        <time>2012-09-20T08:38:11Z</time>
      </trkpt>
      <trkpt lat="43.34472" lon="2.56244">
        <ele>404.85</ele>
        <time>2012-09-20T08:38:22Z</time>
      </trkpt>
      <trkpt lat="43.34471" lon="2.56244">
        <ele>405.33</ele>
        <time>2012-09-20T08:38:42Z</time>
      </trkpt>
      <trkpt lat="43.34471" lon="2.56242">
        <ele>405.81</ele>
        <time>2012-09-20T08:39:00Z</time>
      </trkpt>
      <trkpt lat="43.34471" lon="2.56238">
        <ele>405.81</ele>
        <time>2012-09-20T08:39:13Z</time>
      </trkpt>
      <trkpt lat="43.3447" lon="2.56235">
        <ele>405.33</ele>
        <time>2012-09-20T08:39:21Z</time>
      </trkpt>
      <trkpt lat="43.34466" lon="2.56232">
        <ele>405.33</ele>
        <time>2012-09-20T08:39:33Z</time>
      </trkpt>
      <trkpt lat="43.34465" lon="2.56232">
        <ele>404.85</ele>
        <time>2012-09-20T08:40:01Z</time>
      </trkpt>
      <trkpt lat="43.34469" lon="2.56234">
        <ele>404.85</ele>
        <time>2012-09-20T08:40:22Z</time>
      </trkpt>
      <trkpt lat="43.3447" lon="2.56233">
        <ele>405.33</ele>
        <time>2012-09-20T08:40:31Z</time>
      </trkpt>
      <trkpt lat="43.34473" lon="2.56238">
        <ele>405.81</ele>
        <time>2012-09-20T08:40:43Z</time>
      </trkpt>
      <trkpt lat="43.34475" lon="2.56242">
        <ele>405.33</ele>
        <time>2012-09-20T08:40:58Z</time>
      </trkpt>
      <trkpt lat="43.34474" lon="2.56242">
        <ele>405.33</ele>
        <time>2012-09-20T08:41:22Z</time>
      </trkpt>
      <trkpt lat="43.34475" lon="2.56245">
        <ele>405.33</ele>
        <time>2012-09-20T08:41:38Z</time>
      </trkpt>
      <trkpt lat="43.34475" lon="2.56245">
        <ele>405.33</ele>
        <time>2012-09-20T08:41:55Z</time>
      </trkpt>
      <trkpt lat="43.34474" lon="2.56246">
        <ele>405.81</ele>
        <time>2012-09-20T08:42:09Z</time>
      </trkpt>
      <trkpt lat="43.34475" lon="2.5625">
        <ele>405.33</ele>
        <time>2012-09-20T08:42:24Z</time>
      </trkpt>
      <trkpt lat="43.34475" lon="2.56253">
        <ele>405.33</ele>
        <time>2012-09-20T08:42:26Z</time>
      </trkpt>
      <trkpt lat="43.34476" lon="2.56256">
        <ele>405.81</ele>
        <time>2012-09-20T08:42:28Z</time>
      </trkpt>
      <trkpt lat="43.34481" lon="2.56269">
        <ele>405.33</ele>
        <time>2012-09-20T08:42:41Z</time>
      </trkpt>
      <trkpt lat="43.34483" lon="2.56271">
        <ele>405.81</ele>
        <time>2012-09-20T08:42:44Z</time>
      </trkpt>
      <trkpt lat="43.34489" lon="2.5628">
        <ele>407.26</ele>
        <time>2012-09-20T08:42:56Z</time>
      </trkpt>
      <trkpt lat="43.3449" lon="2.5628">
        <ele>407.26</ele>
        <time>2012-09-20T08:43:13Z</time>
      </trkpt>
      <trkpt lat="43.34495" lon="2.56286">
        <ele>407.74</ele>
        <time>2012-09-20T08:43:29Z</time>
      </trkpt>
      <trkpt lat="43.34499" lon="2.5629">
        <ele>408.22</ele>
        <time>2012-09-20T08:43:36Z</time>
      </trkpt>
      <trkpt lat="43.34501" lon="2.56292">
        <ele>408.22</ele>
        <time>2012-09-20T08:43:40Z</time>
      </trkpt>
      <trkpt lat="43.34505" lon="2.56294">
        <ele>408.7</ele>
        <time>2012-09-20T08:43:45Z</time>
      </trkpt>
      <trkpt lat="43.34514" lon="2.56298">
        <ele>410.14</ele>
        <time>2012-09-20T08:43:56Z</time>
      </trkpt>
      <trkpt lat="43.3452" lon="2.56301">
        <ele>411.1</ele>
        <time>2012-09-20T08:44:04Z</time>
      </trkpt>
      <trkpt lat="43.34529" lon="2.56305">
        <ele>412.54</ele>
        <time>2012-09-20T08:44:15Z</time>
      </trkpt>
      <trkpt lat="43.34538" lon="2.56307">
        <ele>413.02</ele>
        <time>2012-09-20T08:44:28Z</time>
      </trkpt>
      <trkpt lat="43.34545" lon="2.56309">
        <ele>413.98</ele>
        <time>2012-09-20T08:44:39Z</time>
      </trkpt>
      <trkpt lat="43.34549" lon="2.56315">
        <ele>413.5</ele>
        <time>2012-09-20T08:44:51Z</time>
      </trkpt>
      <trkpt lat="43.3455" lon="2.56321">
        <ele>413.98</ele>
        <time>2012-09-20T08:44:58Z</time>
      </trkpt>
      <trkpt lat="43.34552" lon="2.56324">
        <ele>414.47</ele>
        <time>2012-09-20T08:45:02Z</time>
      </trkpt>
      <trkpt lat="43.34557" lon="2.56335">
        <ele>413.5</ele>
        <time>2012-09-20T08:45:18Z</time>
      </trkpt>
      <trkpt lat="43.34559" lon="2.56339">
        <ele>413.02</ele>
        <time>2012-09-20T08:45:31Z</time>
      </trkpt>
      <trkpt lat="43.34561" lon="2.5634">
        <ele>412.54</ele>
        <time>2012-09-20T08:45:45Z</time>
      </trkpt>
      <trkpt lat="43.34571" lon="2.5635">
        <ele>412.54</ele>
        <time>2012-09-20T08:45:59Z</time>
      </trkpt>
      <trkpt lat="43.34574" lon="2.56354">
        <ele>412.06</ele>
        <time>2012-09-20T08:46:03Z</time>
      </trkpt>
      <trkpt lat="43.34581" lon="2.56364">
        <ele>412.06</ele>
        <time>2012-09-20T08:46:13Z</time>
      </trkpt>
      <trkpt lat="43.34583" lon="2.56371">
        <ele>412.06</ele>
        <time>2012-09-20T08:46:18Z</time>
      </trkpt>
      <trkpt lat="43.34583" lon="2.56374">
        <ele>412.54</ele>
        <time>2012-09-20T08:46:20Z</time>
      </trkpt>
      <trkpt lat="43.34585" lon="2.56378">
        <ele>411.58</ele>
        <time>2012-09-20T08:46:23Z</time>
      </trkpt>
      <trkpt lat="43.34587" lon="2.56384">
        <ele>410.62</ele>
        <time>2012-09-20T08:46:28Z</time>
      </trkpt>
      <trkpt lat="43.34592" lon="2.56404">
        <ele>411.1</ele>
        <time>2012-09-20T08:46:42Z</time>
      </trkpt>
      <trkpt lat="43.34601" lon="2.56421">
        <ele>410.14</ele>
        <time>2012-09-20T08:46:57Z</time>
      </trkpt>
      <trkpt lat="43.34602" lon="2.56425">
        <ele>409.18</ele>
        <time>2012-09-20T08:47:12Z</time>
      </trkpt>
      <trkpt lat="43.34603" lon="2.56427">
        <ele>409.66</ele>
        <time>2012-09-20T08:47:17Z</time>
      </trkpt>
      <trkpt lat="43.34607" lon="2.5644">
        <ele>407.74</ele>
        <time>2012-09-20T08:47:29Z</time>
      </trkpt>
      <trkpt lat="43.34608" lon="2.56442">
        <ele>407.26</ele>
        <time>2012-09-20T08:47:32Z</time>
      </trkpt>
      <trkpt lat="43.34615" lon="2.56458">
        <ele>406.29</ele>
        <time>2012-09-20T08:47:44Z</time>
      </trkpt>
      <trkpt lat="43.34626" lon="2.56473">
        <ele>403.89</ele>
        <time>2012-09-20T08:47:59Z</time>
      </trkpt>
      <trkpt lat="43.34638" lon="2.56483">
        <ele>403.89</ele>
        <time>2012-09-20T08:48:15Z</time>
      </trkpt>
      <trkpt lat="43.3464" lon="2.56484">
        <ele>403.89</ele>
        <time>2012-09-20T08:48:17Z</time>
      </trkpt>
      <trkpt lat="43.34659" lon="2.56486">
        <ele>402.93</ele>
        <time>2012-09-20T08:48:34Z</time>
      </trkpt>
      <trkpt lat="43.34665" lon="2.56486">
        <ele>401.97</ele>
        <time>2012-09-20T08:48:41Z</time>
      </trkpt>
      <trkpt lat="43.34668" lon="2.56486">
        <ele>401.49</ele>
        <time>2012-09-20T08:48:43Z</time>
      </trkpt>
      <trkpt lat="43.34673" lon="2.56486">
        <ele>400.53</ele>
        <time>2012-09-20T08:48:50Z</time>
      </trkpt>
      <trkpt lat="43.34682" lon="2.56483">
        <ele>400.05</ele>
        <time>2012-09-20T08:49:04Z</time>
      </trkpt>
      <trkpt lat="43.34688" lon="2.56482">
        <ele>399.57</ele>
        <time>2012-09-20T08:49:20Z</time>
      </trkpt>
      <trkpt lat="43.34691" lon="2.56481">
        <ele>399.08</ele>
        <time>2012-09-20T08:49:23Z</time>
      </trkpt>
      <trkpt lat="43.34702" lon="2.56479">
        <ele>398.12</ele>
        <time>2012-09-20T08:49:34Z</time>
      </trkpt>
      <trkpt lat="43.34717" lon="2.56475">
        <ele>396.2</ele>
        <time>2012-09-20T08:49:50Z</time>
      </trkpt>
      <trkpt lat="43.34728" lon="2.56472">
        <ele>394.28</ele>
        <time>2012-09-20T08:50:01Z</time>
      </trkpt>
      <trkpt lat="43.34737" lon="2.5647">
        <ele>392.84</ele>
        <time>2012-09-20T08:50:09Z</time>
      </trkpt>
      <trkpt lat="43.3474" lon="2.5647">
        <ele>391.87</ele>
        <time>2012-09-20T08:50:13Z</time>
      </trkpt>
      <trkpt lat="43.34756" lon="2.56473">
        <ele>389.95</ele>
        <time>2012-09-20T08:50:28Z</time>
      </trkpt>
      <trkpt lat="43.34773" lon="2.56477">
        <ele>388.51</ele>
        <time>2012-09-20T08:50:44Z</time>
      </trkpt>
      <trkpt lat="43.34777" lon="2.5648">
        <ele>387.55</ele>
        <time>2012-09-20T08:50:48Z</time>
      </trkpt>
      <trkpt lat="43.34778" lon="2.56492">
        <ele>385.63</ele>
        <time>2012-09-20T08:51:01Z</time>
      </trkpt>
      <trkpt lat="43.34771" lon="2.56494">
        <ele>384.18</ele>
        <time>2012-09-20T08:51:09Z</time>
      </trkpt>
      <trkpt lat="43.34768" lon="2.56493">
        <ele>384.18</ele>
        <time>2012-09-20T08:51:11Z</time>
      </trkpt>
      <trkpt lat="43.34756" lon="2.565">
        <ele>381.78</ele>
        <time>2012-09-20T08:51:24Z</time>
      </trkpt>
      <trkpt lat="43.34753" lon="2.56503">
        <ele>381.3</ele>
        <time>2012-09-20T08:51:28Z</time>
      </trkpt>
      <trkpt lat="43.34748" lon="2.56507">
        <ele>380.34</ele>
        <time>2012-09-20T08:51:34Z</time>
      </trkpt>
      <trkpt lat="43.34746" lon="2.56511">
        <ele>378.9</ele>
        <time>2012-09-20T08:51:38Z</time>
      </trkpt>
      <trkpt lat="43.34736" lon="2.56526">
        <ele>376.01</ele>
        <time>2012-09-20T08:51:53Z</time>
      </trkpt>
      <trkpt lat="43.34728" lon="2.56541">
        <ele>374.57</ele>
        <time>2012-09-20T08:52:09Z</time>
      </trkpt>
      <trkpt lat="43.34725" lon="2.56547">
        <ele>374.09</ele>
        <time>2012-09-20T08:52:26Z</time>
      </trkpt>
      <trkpt lat="43.34728" lon="2.56545">
        <ele>373.61</ele>
        <time>2012-09-20T08:52:37Z</time>
      </trkpt>
      <trkpt lat="43.3473" lon="2.56543">
        <ele>373.13</ele>
        <time>2012-09-20T08:52:51Z</time>
      </trkpt>
      <trkpt lat="43.34735" lon="2.56541">
        <ele>373.13</ele>
        <time>2012-09-20T08:52:57Z</time>
      </trkpt>
      <trkpt lat="43.34746" lon="2.56531">
        <ele>373.61</ele>
        <time>2012-09-20T08:53:12Z</time>
      </trkpt>
      <trkpt lat="43.34755" lon="2.56525">
        <ele>373.61</ele>
        <time>2012-09-20T08:53:25Z</time>
      </trkpt>
      <trkpt lat="43.34757" lon="2.56524">
        <ele>373.61</ele>
        <time>2012-09-20T08:53:27Z</time>
      </trkpt>
      <trkpt lat="43.34768" lon="2.56518">
        <ele>374.09</ele>
        <time>2012-09-20T08:53:40Z</time>
      </trkpt>
      <trkpt lat="43.3477" lon="2.56517">
        <ele>374.57</ele>
        <time>2012-09-20T08:53:42Z</time>
      </trkpt>
      <trkpt lat="43.34779" lon="2.56512">
        <ele>374.57</ele>
        <time>2012-09-20T08:53:51Z</time>
      </trkpt>
      <trkpt lat="43.34792" lon="2.56508">
        <ele>375.53</ele>
        <time>2012-09-20T08:54:03Z</time>
      </trkpt>
      <trkpt lat="43.34803" lon="2.56504">
        <ele>376.97</ele>
        <time>2012-09-20T08:54:15Z</time>
      </trkpt>
      <trkpt lat="43.34812" lon="2.56499">
        <ele>376.49</ele>
        <time>2012-09-20T08:54:26Z</time>
      </trkpt>
      <trkpt lat="43.34824" lon="2.56495">
        <ele>378.42</ele>
        <time>2012-09-20T08:54:40Z</time>
      </trkpt>
      <trkpt lat="43.34825" lon="2.56496">
        <ele>377.94</ele>
        <time>2012-09-20T08:54:41Z</time>
      </trkpt>
      <trkpt lat="43.34827" lon="2.56501">
        <ele>377.94</ele>
        <time>2012-09-20T08:54:45Z</time>
      </trkpt>
      <trkpt lat="43.34827" lon="2.56515">
        <ele>378.9</ele>
        <time>2012-09-20T08:54:56Z</time>
      </trkpt>
      <trkpt lat="43.34825" lon="2.56516">
        <ele>379.38</ele>
        <time>2012-09-20T08:54:58Z</time>
      </trkpt>
      <trkpt lat="43.34819" lon="2.56525">
        <ele>379.38</ele>
        <time>2012-09-20T08:55:07Z</time>
      </trkpt>
      <trkpt lat="43.34815" lon="2.56532">
        <ele>380.34</ele>
        <time>2012-09-20T08:55:14Z</time>
      </trkpt>
      <trkpt lat="43.34812" lon="2.56537">
        <ele>380.34</ele>
        <time>2012-09-20T08:55:19Z</time>
      </trkpt>
      <trkpt lat="43.3481" lon="2.56542">
        <ele>380.82</ele>
        <time>2012-09-20T08:55:24Z</time>
      </trkpt>
      <trkpt lat="43.34809" lon="2.56543">
        <ele>380.82</ele>
        <time>2012-09-20T08:55:26Z</time>
      </trkpt>
      <trkpt lat="43.34808" lon="2.56547">
        <ele>381.3</ele>
        <time>2012-09-20T08:55:29Z</time>
      </trkpt>
      <trkpt lat="43.34807" lon="2.56549">
        <ele>381.78</ele>
        <time>2012-09-20T08:55:31Z</time>
      </trkpt>
      <trkpt lat="43.34805" lon="2.56551">
        <ele>381.78</ele>
        <time>2012-09-20T08:55:33Z</time>
      </trkpt>
      <trkpt lat="43.34802" lon="2.56562">
        <ele>382.26</ele>
        <time>2012-09-20T08:55:42Z</time>
      </trkpt>
      <trkpt lat="43.34801" lon="2.56565">
        <ele>382.74</ele>
        <time>2012-09-20T08:55:44Z</time>
      </trkpt>
      <trkpt lat="43.34801" lon="2.56568">
        <ele>382.26</ele>
        <time>2012-09-20T08:55:46Z</time>
      </trkpt>
      <trkpt lat="43.348" lon="2.56573">
        <ele>382.74</ele>
        <time>2012-09-20T08:55:51Z</time>
      </trkpt>
      <trkpt lat="43.348" lon="2.56576">
        <ele>383.22</ele>
        <time>2012-09-20T08:55:53Z</time>
      </trkpt>
      <trkpt lat="43.348" lon="2.56578">
        <ele>383.7</ele>
        <time>2012-09-20T08:55:55Z</time>
      </trkpt>
      <trkpt lat="43.348" lon="2.56581">
        <ele>383.7</ele>
        <time>2012-09-20T08:55:57Z</time>
      </trkpt>
      <trkpt lat="43.34798" lon="2.5659">
        <ele>384.18</ele>
        <time>2012-09-20T08:56:10Z</time>
      </trkpt>
      <trkpt lat="43.34797" lon="2.56593">
        <ele>384.18</ele>
        <time>2012-09-20T08:56:13Z</time>
      </trkpt>
      <trkpt lat="43.34798" lon="2.56602">
        <ele>384.66</ele>
        <time>2012-09-20T08:56:26Z</time>
      </trkpt>
      <trkpt lat="43.34798" lon="2.5661">
        <ele>385.63</ele>
        <time>2012-09-20T08:56:33Z</time>
      </trkpt>
      <trkpt lat="43.34798" lon="2.56625">
        <ele>387.55</ele>
        <time>2012-09-20T08:56:45Z</time>
      </trkpt>
      <trkpt lat="43.34798" lon="2.56631">
        <ele>388.03</ele>
        <time>2012-09-20T08:56:51Z</time>
      </trkpt>
      <trkpt lat="43.34798" lon="2.56633">
        <ele>388.51</ele>
        <time>2012-09-20T08:56:53Z</time>
      </trkpt>
      <trkpt lat="43.34799" lon="2.56642">
        <ele>389.95</ele>
        <time>2012-09-20T08:57:06Z</time>
      </trkpt>
      <trkpt lat="43.34799" lon="2.56645">
        <ele>389.95</ele>
        <time>2012-09-20T08:57:18Z</time>
      </trkpt>
      <trkpt lat="43.34799" lon="2.56646">
        <ele>389.95</ele>
        <time>2012-09-20T08:57:37Z</time>
      </trkpt>
      <trkpt lat="43.34799" lon="2.56647">
        <ele>389.95</ele>
        <time>2012-09-20T08:57:55Z</time>
      </trkpt>
      <trkpt lat="43.34799" lon="2.56647">
        <ele>389.95</ele>
        <time>2012-09-20T08:58:20Z</time>
      </trkpt>
      <trkpt lat="43.34801" lon="2.56652">
        <ele>390.43</ele>
        <time>2012-09-20T08:58:36Z</time>
      </trkpt>
      <trkpt lat="43.34802" lon="2.56658">
        <ele>392.36</ele>
        <time>2012-09-20T08:58:49Z</time>
      </trkpt>
      <trkpt lat="43.34802" lon="2.56669">
        <ele>393.8</ele>
        <time>2012-09-20T08:59:00Z</time>
      </trkpt>
      <trkpt lat="43.34803" lon="2.56675">
        <ele>395.24</ele>
        <time>2012-09-20T08:59:12Z</time>
      </trkpt>
      <trkpt lat="43.34803" lon="2.56685">
        <ele>396.68</ele>
        <time>2012-09-20T08:59:24Z</time>
      </trkpt>
      <trkpt lat="43.34804" lon="2.56692">
        <ele>398.6</ele>
        <time>2012-09-20T08:59:36Z</time>
      </trkpt>
      <trkpt lat="43.34807" lon="2.56701">
        <ele>400.53</ele>
        <time>2012-09-20T08:59:49Z</time>
      </trkpt>
      <trkpt lat="43.3481" lon="2.56707">
        <ele>402.93</ele>
        <time>2012-09-20T09:00:02Z</time>
      </trkpt>
      <trkpt lat="43.34815" lon="2.56711">
        <ele>404.37</ele>
        <time>2012-09-20T09:00:14Z</time>
      </trkpt>
      <trkpt lat="43.34819" lon="2.5672">
        <ele>405.81</ele>
        <time>2012-09-20T09:00:26Z</time>
      </trkpt>
      <trkpt lat="43.34826" lon="2.56721">
        <ele>406.77</ele>
        <time>2012-09-20T09:00:38Z</time>
      </trkpt>
      <trkpt lat="43.34828" lon="2.56726">
        <ele>407.74</ele>
        <time>2012-09-20T09:00:52Z</time>
      </trkpt>
      <trkpt lat="43.34828" lon="2.56728">
        <ele>408.7</ele>
        <time>2012-09-20T09:00:55Z</time>
      </trkpt>
      <trkpt lat="43.34833" lon="2.56729">
        <ele>409.66</ele>
        <time>2012-09-20T09:01:05Z</time>
      </trkpt>
      <trkpt lat="43.3484" lon="2.56731">
        <ele>409.66</ele>
        <time>2012-09-20T09:01:17Z</time>
      </trkpt>
      <trkpt lat="43.34847" lon="2.56736">
        <ele>410.14</ele>
        <time>2012-09-20T09:01:31Z</time>
      </trkpt>
      <trkpt lat="43.34857" lon="2.56733">
        <ele>410.14</ele>
        <time>2012-09-20T09:01:45Z</time>
      </trkpt>
      <trkpt lat="43.34865" lon="2.56729">
        <ele>409.66</ele>
        <time>2012-09-20T09:02:00Z</time>
      </trkpt>
      <trkpt lat="43.34869" lon="2.56728">
        <ele>409.66</ele>
        <time>2012-09-20T09:02:04Z</time>
      </trkpt>
      <trkpt lat="43.34879" lon="2.56733">
        <ele>410.14</ele>
        <time>2012-09-20T09:02:18Z</time>
      </trkpt>
      <trkpt lat="43.34881" lon="2.56735">
        <ele>410.14</ele>
        <time>2012-09-20T09:02:31Z</time>
      </trkpt>
      <trkpt lat="43.34882" lon="2.56731">
        <ele>410.62</ele>
        <time>2012-09-20T09:02:47Z</time>
      </trkpt>
      <trkpt lat="43.34882" lon="2.56734">
        <ele>410.62</ele>
        <time>2012-09-20T09:03:05Z</time>
      </trkpt>
      <trkpt lat="43.34883" lon="2.5673">
        <ele>410.62</ele>
        <time>2012-09-20T09:03:26Z</time>
      </trkpt>
      <trkpt lat="43.34883" lon="2.56731">
        <ele>411.58</ele>
        <time>2012-09-20T09:03:33Z</time>
      </trkpt>
      <trkpt lat="43.34883" lon="2.56731">
        <ele>410.14</ele>
        <time>2012-09-20T09:03:35Z</time>
      </trkpt>
      <trkpt lat="43.34883" lon="2.56731">
        <ele>411.58</ele>
        <time>2012-09-20T09:03:36Z</time>
      </trkpt>
      <trkpt lat="43.34883" lon="2.5673">
        <ele>410.62</ele>
        <time>2012-09-20T09:03:51Z</time>
      </trkpt>
      <trkpt lat="43.34884" lon="2.5673">
        <ele>410.62</ele>
        <time>2012-09-20T09:04:09Z</time>
      </trkpt>
      <trkpt lat="43.34886" lon="2.56729">
        <ele>412.06</ele>
        <time>2012-09-20T09:04:21Z</time>
      </trkpt>
      <trkpt lat="43.34884" lon="2.56731">
        <ele>411.58</ele>
        <time>2012-09-20T09:04:26Z</time>
      </trkpt>
      <trkpt lat="43.34882" lon="2.56733">
        <ele>411.1</ele>
        <time>2012-09-20T09:04:29Z</time>
      </trkpt>
      <trkpt lat="43.34879" lon="2.56735">
        <ele>411.1</ele>
        <time>2012-09-20T09:04:33Z</time>
      </trkpt>
      <trkpt lat="43.34878" lon="2.56733">
        <ele>411.1</ele>
        <time>2012-09-20T09:04:35Z</time>
      </trkpt>
      <trkpt lat="43.34871" lon="2.56732">
        <ele>411.1</ele>
        <time>2012-09-20T09:04:47Z</time>
      </trkpt>
      <trkpt lat="43.34871" lon="2.56733">
        <ele>410.62</ele>
        <time>2012-09-20T09:04:49Z</time>
      </trkpt>
      <trkpt lat="43.34864" lon="2.56734">
        <ele>410.14</ele>
        <time>2012-09-20T09:05:01Z</time>
      </trkpt>
      <trkpt lat="43.34859" lon="2.56734">
        <ele>410.62</ele>
        <time>2012-09-20T09:05:10Z</time>
      </trkpt>
      <trkpt lat="43.34847" lon="2.56733">
        <ele>410.14</ele>
        <time>2012-09-20T09:05:25Z</time>
      </trkpt>
      <trkpt lat="43.3484" lon="2.56729">
        <ele>410.14</ele>
        <time>2012-09-20T09:05:36Z</time>
      </trkpt>
      <trkpt lat="43.34825" lon="2.56733">
        <ele>410.62</ele>
        <time>2012-09-20T09:05:52Z</time>
      </trkpt>
      <trkpt lat="43.34824" lon="2.56734">
        <ele>410.62</ele>
        <time>2012-09-20T09:06:06Z</time>
      </trkpt>
      <trkpt lat="43.34823" lon="2.56735">
        <ele>410.14</ele>
        <time>2012-09-20T09:06:26Z</time>
      </trkpt>
      <trkpt lat="43.34822" lon="2.56736">
        <ele>410.14</ele>
        <time>2012-09-20T09:06:39Z</time>
      </trkpt>
      <trkpt lat="43.34824" lon="2.5674">
        <ele>411.58</ele>
        <time>2012-09-20T09:06:56Z</time>
      </trkpt>
      <trkpt lat="43.34824" lon="2.56741">
        <ele>412.54</ele>
        <time>2012-09-20T09:06:58Z</time>
      </trkpt>
      <trkpt lat="43.34826" lon="2.56747">
        <ele>415.43</ele>
        <time>2012-09-20T09:07:09Z</time>
      </trkpt>
      <trkpt lat="43.34829" lon="2.56751">
        <ele>418.79</ele>
        <time>2012-09-20T09:07:22Z</time>
      </trkpt>
      <trkpt lat="43.34832" lon="2.56755">
        <ele>421.19</ele>
        <time>2012-09-20T09:07:32Z</time>
      </trkpt>
      <trkpt lat="43.34834" lon="2.56755">
        <ele>422.16</ele>
        <time>2012-09-20T09:07:42Z</time>
      </trkpt>
      <trkpt lat="43.34837" lon="2.56754">
        <ele>424.08</ele>
        <time>2012-09-20T09:07:52Z</time>
      </trkpt>
      <trkpt lat="43.3484" lon="2.56757">
        <ele>426.96</ele>
        <time>2012-09-20T09:08:06Z</time>
      </trkpt>
      <trkpt lat="43.34843" lon="2.56762">
        <ele>427.92</ele>
        <time>2012-09-20T09:08:16Z</time>
      </trkpt>
      <trkpt lat="43.34851" lon="2.56769">
        <ele>428.89</ele>
        <time>2012-09-20T09:08:29Z</time>
      </trkpt>
      <trkpt lat="43.34852" lon="2.56772">
        <ele>431.29</ele>
        <time>2012-09-20T09:08:39Z</time>
      </trkpt>
      <trkpt lat="43.34853" lon="2.56772">
        <ele>431.77</ele>
        <time>2012-09-20T09:08:53Z</time>
      </trkpt>
      <trkpt lat="43.34853" lon="2.56771">
        <ele>432.25</ele>
        <time>2012-09-20T09:09:10Z</time>
      </trkpt>
      <trkpt lat="43.34853" lon="2.56773">
        <ele>431.29</ele>
        <time>2012-09-20T09:09:32Z</time>
      </trkpt>
      <trkpt lat="43.34854" lon="2.56773">
        <ele>431.77</ele>
        <time>2012-09-20T09:09:48Z</time>
      </trkpt>
      <trkpt lat="43.34854" lon="2.56774">
        <ele>431.77</ele>
        <time>2012-09-20T09:10:07Z</time>
      </trkpt>
      <trkpt lat="43.34853" lon="2.56773">
        <ele>431.77</ele>
        <time>2012-09-20T09:10:27Z</time>
      </trkpt>
      <trkpt lat="43.34854" lon="2.5677">
        <ele>432.25</ele>
        <time>2012-09-20T09:10:44Z</time>
      </trkpt>
      <trkpt lat="43.34854" lon="2.56767">
        <ele>431.77</ele>
        <time>2012-09-20T09:10:49Z</time>
      </trkpt>
      <trkpt lat="43.34857" lon="2.56761">
        <ele>431.77</ele>
        <time>2012-09-20T09:11:04Z</time>
      </trkpt>
      <trkpt lat="43.34861" lon="2.56763">
        <ele>432.25</ele>
        <time>2012-09-20T09:11:15Z</time>
      </trkpt>
      <trkpt lat="43.3486" lon="2.56761">
        <ele>431.77</ele>
        <time>2012-09-20T09:11:30Z</time>
      </trkpt>
      <trkpt lat="43.34857" lon="2.56761">
        <ele>431.29</ele>
        <time>2012-09-20T09:11:45Z</time>
      </trkpt>
      <trkpt lat="43.34854" lon="2.5677">
        <ele>431.29</ele>
        <time>2012-09-20T09:11:57Z</time>
      </trkpt>
      <trkpt lat="43.34853" lon="2.56771">
        <ele>431.77</ele>
        <time>2012-09-20T09:12:11Z</time>
      </trkpt>
      <trkpt lat="43.34854" lon="2.56771">
        <ele>431.29</ele>
        <time>2012-09-20T09:12:29Z</time>
      </trkpt>
      <trkpt lat="43.34854" lon="2.56773">
        <ele>431.77</ele>
        <time>2012-09-20T09:12:45Z</time>
      </trkpt>
      <trkpt lat="43.34854" lon="2.56775">
        <ele>430.81</ele>
        <time>2012-09-20T09:12:59Z</time>
      </trkpt>
      <trkpt lat="43.34856" lon="2.5678">
        <ele>430.33</ele>
        <time>2012-09-20T09:13:12Z</time>
      </trkpt>
      <trkpt lat="43.34857" lon="2.5678">
        <ele>430.33</ele>
        <time>2012-09-20T09:13:29Z</time>
      </trkpt>
      <trkpt lat="43.34859" lon="2.56779">
        <ele>430.33</ele>
        <time>2012-09-20T09:13:41Z</time>
      </trkpt>
      <trkpt lat="43.34864" lon="2.56782">
        <ele>432.25</ele>
        <time>2012-09-20T09:13:52Z</time>
      </trkpt>
      <trkpt lat="43.34868" lon="2.56775">
        <ele>431.77</ele>
        <time>2012-09-20T09:14:00Z</time>
      </trkpt>
      <trkpt lat="43.34875" lon="2.56771">
        <ele>432.73</ele>
        <time>2012-09-20T09:14:14Z</time>
      </trkpt>
      <trkpt lat="43.34877" lon="2.5677">
        <ele>434.65</ele>
        <time>2012-09-20T09:14:29Z</time>
      </trkpt>
      <trkpt lat="43.3488" lon="2.5677">
        <ele>436.1</ele>
        <time>2012-09-20T09:14:42Z</time>
      </trkpt>
      <trkpt lat="43.34886" lon="2.5677">
        <ele>438.02</ele>
        <time>2012-09-20T09:14:54Z</time>
      </trkpt>
      <trkpt lat="43.34887" lon="2.56771">
        <ele>439.46</ele>
        <time>2012-09-20T09:14:57Z</time>
      </trkpt>
      <trkpt lat="43.34894" lon="2.56765">
        <ele>440.42</ele>
        <time>2012-09-20T09:15:09Z</time>
      </trkpt>
      <trkpt lat="43.34897" lon="2.56762">
        <ele>441.86</ele>
        <time>2012-09-20T09:15:19Z</time>
      </trkpt>
      <trkpt lat="43.349" lon="2.56764">
        <ele>442.82</ele>
        <time>2012-09-20T09:15:30Z</time>
      </trkpt>
      <trkpt lat="43.34899" lon="2.56768">
        <ele>443.31</ele>
        <time>2012-09-20T09:15:33Z</time>
      </trkpt>
      <trkpt lat="43.34901" lon="2.56773">
        <ele>444.75</ele>
        <time>2012-09-20T09:15:45Z</time>
      </trkpt>
      <trkpt lat="43.34903" lon="2.56781">
        <ele>446.19</ele>
        <time>2012-09-20T09:15:58Z</time>
      </trkpt>
      <trkpt lat="43.34905" lon="2.56787">
        <ele>448.11</ele>
        <time>2012-09-20T09:16:09Z</time>
      </trkpt>
      <trkpt lat="43.34909" lon="2.56791">
        <ele>449.55</ele>
        <time>2012-09-20T09:16:20Z</time>
      </trkpt>
      <trkpt lat="43.34914" lon="2.56799">
        <ele>451.96</ele>
        <time>2012-09-20T09:16:33Z</time>
      </trkpt>
      <trkpt lat="43.34919" lon="2.56804">
        <ele>453.88</ele>
        <time>2012-09-20T09:16:46Z</time>
      </trkpt>
      <trkpt lat="43.34919" lon="2.56805">
        <ele>453.88</ele>
        <time>2012-09-20T09:16:47Z</time>
      </trkpt>
      <trkpt lat="43.34921" lon="2.56806">
        <ele>454.84</ele>
        <time>2012-09-20T09:16:52Z</time>
      </trkpt>
      <trkpt lat="43.34923" lon="2.56806">
        <ele>455.32</ele>
        <time>2012-09-20T09:16:54Z</time>
      </trkpt>
      <trkpt lat="43.34928" lon="2.56805">
        <ele>456.76</ele>
        <time>2012-09-20T09:17:05Z</time>
      </trkpt>
      <trkpt lat="43.34932" lon="2.56807">
        <ele>459.17</ele>
        <time>2012-09-20T09:17:17Z</time>
      </trkpt>
      <trkpt lat="43.34936" lon="2.56806">
        <ele>459.17</ele>
        <time>2012-09-20T09:17:25Z</time>
      </trkpt>
      <trkpt lat="43.34944" lon="2.56814">
        <ele>461.09</ele>
        <time>2012-09-20T09:17:37Z</time>
      </trkpt>
      <trkpt lat="43.34944" lon="2.56817">
        <ele>461.09</ele>
        <time>2012-09-20T09:17:39Z</time>
      </trkpt>
      <trkpt lat="43.34948" lon="2.56828">
        <ele>462.05</ele>
        <time>2012-09-20T09:17:49Z</time>
      </trkpt>
      <trkpt lat="43.34951" lon="2.5683">
        <ele>462.05</ele>
        <time>2012-09-20T09:17:52Z</time>
      </trkpt>
      <trkpt lat="43.34956" lon="2.56829">
        <ele>463.01</ele>
        <time>2012-09-20T09:18:01Z</time>
      </trkpt>
      <trkpt lat="43.34964" lon="2.56825">
        <ele>464.45</ele>
        <time>2012-09-20T09:18:11Z</time>
      </trkpt>
      <trkpt lat="43.34973" lon="2.56825">
        <ele>464.93</ele>
        <time>2012-09-20T09:18:21Z</time>
      </trkpt>
      <trkpt lat="43.34984" lon="2.56829">
        <ele>465.42</ele>
        <time>2012-09-20T09:18:34Z</time>
      </trkpt>
      <trkpt lat="43.34986" lon="2.56829">
        <ele>465.42</ele>
        <time>2012-09-20T09:18:36Z</time>
      </trkpt>
      <trkpt lat="43.34988" lon="2.56829">
        <ele>465.9</ele>
        <time>2012-09-20T09:18:39Z</time>
      </trkpt>
      <trkpt lat="43.34992" lon="2.56832">
        <ele>466.38</ele>
        <time>2012-09-20T09:18:45Z</time>
      </trkpt>
      <trkpt lat="43.35" lon="2.56821">
        <ele>467.34</ele>
        <time>2012-09-20T09:18:59Z</time>
      </trkpt>
      <trkpt lat="43.35009" lon="2.56817">
        <ele>468.3</ele>
        <time>2012-09-20T09:19:11Z</time>
      </trkpt>
      <trkpt lat="43.35016" lon="2.56815">
        <ele>469.26</ele>
        <time>2012-09-20T09:19:21Z</time>
      </trkpt>
      <trkpt lat="43.35022" lon="2.56811">
        <ele>471.18</ele>
        <time>2012-09-20T09:19:32Z</time>
      </trkpt>
      <trkpt lat="43.35029" lon="2.56809">
        <ele>472.63</ele>
        <time>2012-09-20T09:19:44Z</time>
      </trkpt>
      <trkpt lat="43.35032" lon="2.56811">
        <ele>473.11</ele>
        <time>2012-09-20T09:19:50Z</time>
      </trkpt>
      <trkpt lat="43.35039" lon="2.56815">
        <ele>474.55</ele>
        <time>2012-09-20T09:20:02Z</time>
      </trkpt>
      <trkpt lat="43.35043" lon="2.56815">
        <ele>475.03</ele>
        <time>2012-09-20T09:20:08Z</time>
      </trkpt>
      <trkpt lat="43.35051" lon="2.56817">
        <ele>476.47</ele>
        <time>2012-09-20T09:20:19Z</time>
      </trkpt>
      <trkpt lat="43.35059" lon="2.56819">
        <ele>477.91</ele>
        <time>2012-09-20T09:20:29Z</time>
      </trkpt>
      <trkpt lat="43.35064" lon="2.56819">
        <ele>478.87</ele>
        <time>2012-09-20T09:20:35Z</time>
      </trkpt>
      <trkpt lat="43.35066" lon="2.5682">
        <ele>479.35</ele>
        <time>2012-09-20T09:20:39Z</time>
      </trkpt>
      <trkpt lat="43.35074" lon="2.56825">
        <ele>480.32</ele>
        <time>2012-09-20T09:20:50Z</time>
      </trkpt>
      <trkpt lat="43.35084" lon="2.56834">
        <ele>482.72</ele>
        <time>2012-09-20T09:21:03Z</time>
      </trkpt>
      <trkpt lat="43.35089" lon="2.56848">
        <ele>483.2</ele>
        <time>2012-09-20T09:21:17Z</time>
      </trkpt>
      <trkpt lat="43.35094" lon="2.56863">
        <ele>483.68</ele>
        <time>2012-09-20T09:21:28Z</time>
      </trkpt>
      <trkpt lat="43.35097" lon="2.56868">
        <ele>483.68</ele>
        <time>2012-09-20T09:21:34Z</time>
      </trkpt>
      <trkpt lat="43.35102" lon="2.56885">
        <ele>482.24</ele>
        <time>2012-09-20T09:21:51Z</time>
      </trkpt>
      <trkpt lat="43.35103" lon="2.56889">
        <ele>482.24</ele>
        <time>2012-09-20T09:21:55Z</time>
      </trkpt>
      <trkpt lat="43.35108" lon="2.56903">
        <ele>481.76</ele>
        <time>2012-09-20T09:22:08Z</time>
      </trkpt>
      <trkpt lat="43.35113" lon="2.56917">
        <ele>481.28</ele>
        <time>2012-09-20T09:22:24Z</time>
      </trkpt>
      <trkpt lat="43.35115" lon="2.56924">
        <ele>480.8</ele>
        <time>2012-09-20T09:22:30Z</time>
      </trkpt>
      <trkpt lat="43.35115" lon="2.5693">
        <ele>480.8</ele>
        <time>2012-09-20T09:22:34Z</time>
      </trkpt>
      <trkpt lat="43.35117" lon="2.56945">
        <ele>480.8</ele>
        <time>2012-09-20T09:22:49Z</time>
      </trkpt>
      <trkpt lat="43.35117" lon="2.56946">
        <ele>480.32</ele>
        <time>2012-09-20T09:22:50Z</time>
      </trkpt>
      <trkpt lat="43.35118" lon="2.56953">
        <ele>480.8</ele>
        <time>2012-09-20T09:22:55Z</time>
      </trkpt>
      <trkpt lat="43.35122" lon="2.56966">
        <ele>480.32</ele>
        <time>2012-09-20T09:23:08Z</time>
      </trkpt>
      <trkpt lat="43.35123" lon="2.56982">
        <ele>480.32</ele>
        <time>2012-09-20T09:23:20Z</time>
      </trkpt>
      <trkpt lat="43.35124" lon="2.56988">
        <ele>480.32</ele>
        <time>2012-09-20T09:23:26Z</time>
      </trkpt>
      <trkpt lat="43.35128" lon="2.57002">
        <ele>480.8</ele>
        <time>2012-09-20T09:23:38Z</time>
      </trkpt>
      <trkpt lat="43.35128" lon="2.5701">
        <ele>480.32</ele>
        <time>2012-09-20T09:23:47Z</time>
      </trkpt>
      <trkpt lat="43.35131" lon="2.57024">
        <ele>479.35</ele>
        <time>2012-09-20T09:24:01Z</time>
      </trkpt>
      <trkpt lat="43.35134" lon="2.57035">
        <ele>478.39</ele>
        <time>2012-09-20T09:24:12Z</time>
      </trkpt>
      <trkpt lat="43.35137" lon="2.57052">
        <ele>476.95</ele>
        <time>2012-09-20T09:24:26Z</time>
      </trkpt>
      <trkpt lat="43.35137" lon="2.57056">
        <ele>476.95</ele>
        <time>2012-09-20T09:24:29Z</time>
      </trkpt>
      <trkpt lat="43.35139" lon="2.57065">
        <ele>475.51</ele>
        <time>2012-09-20T09:24:36Z</time>
      </trkpt>
      <trkpt lat="43.35141" lon="2.57071">
        <ele>475.03</ele>
        <time>2012-09-20T09:24:41Z</time>
      </trkpt>
      <trkpt lat="43.35143" lon="2.57076">
        <ele>474.55</ele>
        <time>2012-09-20T09:24:46Z</time>
      </trkpt>
      <trkpt lat="43.35144" lon="2.57092">
        <ele>472.63</ele>
        <time>2012-09-20T09:25:01Z</time>
      </trkpt>
      <trkpt lat="43.35143" lon="2.57099">
        <ele>470.7</ele>
        <time>2012-09-20T09:25:13Z</time>
      </trkpt>
      <trkpt lat="43.35144" lon="2.57101">
        <ele>469.26</ele>
        <time>2012-09-20T09:25:25Z</time>
      </trkpt>
      <trkpt lat="43.35148" lon="2.57112">
        <ele>468.78</ele>
        <time>2012-09-20T09:25:36Z</time>
      </trkpt>
      <trkpt lat="43.35151" lon="2.57124">
        <ele>468.78</ele>
        <time>2012-09-20T09:25:47Z</time>
      </trkpt>
      <trkpt lat="43.35152" lon="2.57125">
        <ele>468.78</ele>
        <time>2012-09-20T09:25:49Z</time>
      </trkpt>
      <trkpt lat="43.35156" lon="2.57134">
        <ele>468.3</ele>
        <time>2012-09-20T09:26:02Z</time>
      </trkpt>
      <trkpt lat="43.35157" lon="2.57146">
        <ele>465.9</ele>
        <time>2012-09-20T09:26:17Z</time>
      </trkpt>
      <trkpt lat="43.35157" lon="2.57151">
        <ele>465.9</ele>
        <time>2012-09-20T09:26:29Z</time>
      </trkpt>
      <trkpt lat="43.35159" lon="2.57162">
        <ele>464.45</ele>
        <time>2012-09-20T09:26:41Z</time>
      </trkpt>
      <trkpt lat="43.35161" lon="2.57169">
        <ele>463.49</ele>
        <time>2012-09-20T09:26:49Z</time>
      </trkpt>
      <trkpt lat="43.35165" lon="2.57176">
        <ele>462.53</ele>
        <time>2012-09-20T09:27:01Z</time>
      </trkpt>
      <trkpt lat="43.35166" lon="2.57178">
        <ele>461.09</ele>
        <time>2012-09-20T09:27:14Z</time>
      </trkpt>
      <trkpt lat="43.35168" lon="2.57186">
        <ele>460.13</ele>
        <time>2012-09-20T09:27:27Z</time>
      </trkpt>
      <trkpt lat="43.35171" lon="2.57192">
        <ele>458.21</ele>
        <time>2012-09-20T09:27:44Z</time>
      </trkpt>
      <trkpt lat="43.35176" lon="2.57206">
        <ele>457.24</ele>
        <time>2012-09-20T09:27:55Z</time>
      </trkpt>
      <trkpt lat="43.35178" lon="2.57211">
        <ele>457.24</ele>
        <time>2012-09-20T09:28:06Z</time>
      </trkpt>
      <trkpt lat="43.35179" lon="2.57211">
        <ele>457.24</ele>
        <time>2012-09-20T09:28:10Z</time>
      </trkpt>
      <trkpt lat="43.35181" lon="2.57214">
        <ele>456.76</ele>
        <time>2012-09-20T09:28:19Z</time>
      </trkpt>
      <trkpt lat="43.35183" lon="2.57221">
        <ele>456.28</ele>
        <time>2012-09-20T09:28:30Z</time>
      </trkpt>
      <trkpt lat="43.35187" lon="2.57229">
        <ele>454.36</ele>
        <time>2012-09-20T09:28:43Z</time>
      </trkpt>
      <trkpt lat="43.35189" lon="2.57233">
        <ele>453.88</ele>
        <time>2012-09-20T09:28:49Z</time>
      </trkpt>
      <trkpt lat="43.35193" lon="2.57236">
        <ele>454.84</ele>
        <time>2012-09-20T09:29:02Z</time>
      </trkpt>
      <trkpt lat="43.35195" lon="2.57245">
        <ele>454.84</ele>
        <time>2012-09-20T09:29:12Z</time>
      </trkpt>
      <trkpt lat="43.35196" lon="2.57246">
        <ele>453.4</ele>
        <time>2012-09-20T09:29:19Z</time>
      </trkpt>
      <trkpt lat="43.352" lon="2.57258">
        <ele>454.36</ele>
        <time>2012-09-20T09:29:31Z</time>
      </trkpt>
      <trkpt lat="43.35204" lon="2.57269">
        <ele>454.84</ele>
        <time>2012-09-20T09:29:41Z</time>
      </trkpt>
      <trkpt lat="43.35209" lon="2.57278">
        <ele>454.36</ele>
        <time>2012-09-20T09:29:52Z</time>
      </trkpt>
      <trkpt lat="43.35211" lon="2.57285">
        <ele>454.36</ele>
        <time>2012-09-20T09:29:58Z</time>
      </trkpt>
      <trkpt lat="43.35211" lon="2.57291">
        <ele>454.36</ele>
        <time>2012-09-20T09:30:04Z</time>
      </trkpt>
      <trkpt lat="43.35213" lon="2.57297">
        <ele>454.36</ele>
        <time>2012-09-20T09:30:11Z</time>
      </trkpt>
      <trkpt lat="43.35216" lon="2.57303">
        <ele>452.44</ele>
        <time>2012-09-20T09:30:24Z</time>
      </trkpt>
      <trkpt lat="43.35224" lon="2.57313">
        <ele>451.96</ele>
        <time>2012-09-20T09:30:37Z</time>
      </trkpt>
      <trkpt lat="43.35231" lon="2.5732">
        <ele>451</ele>
        <time>2012-09-20T09:30:50Z</time>
      </trkpt>
      <trkpt lat="43.35238" lon="2.57325">
        <ele>450.52</ele>
        <time>2012-09-20T09:31:03Z</time>
      </trkpt>
      <trkpt lat="43.35239" lon="2.5733">
        <ele>449.07</ele>
        <time>2012-09-20T09:31:17Z</time>
      </trkpt>
      <trkpt lat="43.35242" lon="2.57336">
        <ele>446.67</ele>
        <time>2012-09-20T09:31:25Z</time>
      </trkpt>
      <trkpt lat="43.35244" lon="2.57341">
        <ele>445.71</ele>
        <time>2012-09-20T09:31:37Z</time>
      </trkpt>
      <trkpt lat="43.35245" lon="2.57341">
        <ele>445.23</ele>
        <time>2012-09-20T09:31:51Z</time>
      </trkpt>
      <trkpt lat="43.35246" lon="2.57343">
        <ele>444.27</ele>
        <time>2012-09-20T09:32:05Z</time>
      </trkpt>
      <trkpt lat="43.35246" lon="2.57348">
        <ele>443.31</ele>
        <time>2012-09-20T09:32:16Z</time>
      </trkpt>
      <trkpt lat="43.35247" lon="2.57353">
        <ele>441.38</ele>
        <time>2012-09-20T09:32:27Z</time>
      </trkpt>
      <trkpt lat="43.3525" lon="2.57358">
        <ele>439.46</ele>
        <time>2012-09-20T09:32:40Z</time>
      </trkpt>
      <trkpt lat="43.3525" lon="2.5736">
        <ele>437.54</ele>
        <time>2012-09-20T09:32:52Z</time>
      </trkpt>
      <trkpt lat="43.35254" lon="2.57366">
        <ele>436.1</ele>
        <time>2012-09-20T09:33:05Z</time>
      </trkpt>
      <trkpt lat="43.35255" lon="2.57369">
        <ele>435.13</ele>
        <time>2012-09-20T09:33:16Z</time>
      </trkpt>
      <trkpt lat="43.35256" lon="2.57373">
        <ele>434.17</ele>
        <time>2012-09-20T09:33:28Z</time>
      </trkpt>
      <trkpt lat="43.3526" lon="2.57377">
        <ele>432.73</ele>
        <time>2012-09-20T09:33:40Z</time>
      </trkpt>
      <trkpt lat="43.35264" lon="2.57383">
        <ele>430.81</ele>
        <time>2012-09-20T09:33:53Z</time>
      </trkpt>
      <trkpt lat="43.35267" lon="2.57387">
        <ele>429.37</ele>
        <time>2012-09-20T09:34:05Z</time>
      </trkpt>
      <trkpt lat="43.35272" lon="2.57391">
        <ele>428.4</ele>
        <time>2012-09-20T09:34:16Z</time>
      </trkpt>
      <trkpt lat="43.35276" lon="2.57395">
        <ele>426.96</ele>
        <time>2012-09-20T09:34:24Z</time>
      </trkpt>
      <trkpt lat="43.35285" lon="2.57403">
        <ele>426.96</ele>
        <time>2012-09-20T09:34:38Z</time>
      </trkpt>
      <trkpt lat="43.35286" lon="2.57407">
        <ele>426</ele>
        <time>2012-09-20T09:34:42Z</time>
      </trkpt>
      <trkpt lat="43.35287" lon="2.57409">
        <ele>426</ele>
        <time>2012-09-20T09:34:45Z</time>
      </trkpt>
      <trkpt lat="43.35294" lon="2.57416">
        <ele>425.04</ele>
        <time>2012-09-20T09:34:57Z</time>
      </trkpt>
      <trkpt lat="43.35297" lon="2.57422">
        <ele>423.6</ele>
        <time>2012-09-20T09:35:07Z</time>
      </trkpt>
      <trkpt lat="43.35299" lon="2.57424">
        <ele>423.6</ele>
        <time>2012-09-20T09:35:09Z</time>
      </trkpt>
      <trkpt lat="43.35301" lon="2.57426">
        <ele>423.6</ele>
        <time>2012-09-20T09:35:12Z</time>
      </trkpt>
      <trkpt lat="43.35308" lon="2.57436">
        <ele>423.12</ele>
        <time>2012-09-20T09:35:25Z</time>
      </trkpt>
      <trkpt lat="43.35311" lon="2.5744">
        <ele>422.64</ele>
        <time>2012-09-20T09:35:35Z</time>
      </trkpt>
      <trkpt lat="43.35312" lon="2.57444">
        <ele>423.6</ele>
        <time>2012-09-20T09:35:50Z</time>
      </trkpt>
      <trkpt lat="43.35314" lon="2.57446">
        <ele>424.56</ele>
        <time>2012-09-20T09:36:01Z</time>
      </trkpt>
      <trkpt lat="43.35315" lon="2.57448">
        <ele>425.52</ele>
        <time>2012-09-20T09:36:13Z</time>
      </trkpt>
      <trkpt lat="43.35315" lon="2.57451">
        <ele>426.96</ele>
        <time>2012-09-20T09:36:26Z</time>
      </trkpt>
      <trkpt lat="43.35315" lon="2.57454">
        <ele>428.4</ele>
        <time>2012-09-20T09:36:38Z</time>
      </trkpt>
      <trkpt lat="43.35311" lon="2.57459">
        <ele>429.85</ele>
        <time>2012-09-20T09:36:49Z</time>
      </trkpt>
      <trkpt lat="43.35307" lon="2.57466">
        <ele>431.77</ele>
        <time>2012-09-20T09:37:01Z</time>
      </trkpt>
      <trkpt lat="43.35305" lon="2.5747">
        <ele>433.69</ele>
        <time>2012-09-20T09:37:13Z</time>
      </trkpt>
      <trkpt lat="43.353" lon="2.57474">
        <ele>436.1</ele>
        <time>2012-09-20T09:37:24Z</time>
      </trkpt>
      <trkpt lat="43.35295" lon="2.5748">
        <ele>437.54</ele>
        <time>2012-09-20T09:37:34Z</time>
      </trkpt>
      <trkpt lat="43.35293" lon="2.57483">
        <ele>438.5</ele>
        <time>2012-09-20T09:37:43Z</time>
      </trkpt>
      <trkpt lat="43.3529" lon="2.5749">
        <ele>440.9</ele>
        <time>2012-09-20T09:37:56Z</time>
      </trkpt>
      <trkpt lat="43.35289" lon="2.57491">
        <ele>440.42</ele>
        <time>2012-09-20T09:38:07Z</time>
      </trkpt>
      <trkpt lat="43.35289" lon="2.57493">
        <ele>439.94</ele>
        <time>2012-09-20T09:38:18Z</time>
      </trkpt>
      <trkpt lat="43.35292" lon="2.57495">
        <ele>439.94</ele>
        <time>2012-09-20T09:38:27Z</time>
      </trkpt>
      <trkpt lat="43.35291" lon="2.57496">
        <ele>440.9</ele>
        <time>2012-09-20T09:38:38Z</time>
      </trkpt>
      <trkpt lat="43.35294" lon="2.57494">
        <ele>442.34</ele>
        <time>2012-09-20T09:38:53Z</time>
      </trkpt>
      <trkpt lat="43.35296" lon="2.57494">
        <ele>443.31</ele>
        <time>2012-09-20T09:38:59Z</time>
      </trkpt>
      <trkpt lat="43.35298" lon="2.57496">
        <ele>443.31</ele>
        <time>2012-09-20T09:39:02Z</time>
      </trkpt>
      <trkpt lat="43.35299" lon="2.57497">
        <ele>443.31</ele>
        <time>2012-09-20T09:39:04Z</time>
      </trkpt>
      <trkpt lat="43.35302" lon="2.57498">
        <ele>443.31</ele>
        <time>2012-09-20T09:39:07Z</time>
      </trkpt>
      <trkpt lat="43.35308" lon="2.57502">
        <ele>443.31</ele>
        <time>2012-09-20T09:39:23Z</time>
      </trkpt>
      <trkpt lat="43.3531" lon="2.57504">
        <ele>443.79</ele>
        <time>2012-09-20T09:39:32Z</time>
      </trkpt>
      <trkpt lat="43.35316" lon="2.57508">
        <ele>445.23</ele>
        <time>2012-09-20T09:39:40Z</time>
      </trkpt>
      <trkpt lat="43.3532" lon="2.57516">
        <ele>447.63</ele>
        <time>2012-09-20T09:39:52Z</time>
      </trkpt>
      <trkpt lat="43.35323" lon="2.57521">
        <ele>449.07</ele>
        <time>2012-09-20T09:40:04Z</time>
      </trkpt>
      <trkpt lat="43.35325" lon="2.57526">
        <ele>450.52</ele>
        <time>2012-09-20T09:40:14Z</time>
      </trkpt>
      <trkpt lat="43.35325" lon="2.57527">
        <ele>451.96</ele>
        <time>2012-09-20T09:40:24Z</time>
      </trkpt>
      <trkpt lat="43.35325" lon="2.57527">
        <ele>452.44</ele>
        <time>2012-09-20T09:40:25Z</time>
      </trkpt>
      <trkpt lat="43.3533" lon="2.5754">
        <ele>453.88</ele>
        <time>2012-09-20T09:40:39Z</time>
      </trkpt>
      <trkpt lat="43.35334" lon="2.57543">
        <ele>453.88</ele>
        <time>2012-09-20T09:40:44Z</time>
      </trkpt>
      <trkpt lat="43.35337" lon="2.57549">
        <ele>453.4</ele>
        <time>2012-09-20T09:40:50Z</time>
      </trkpt>
      <trkpt lat="43.35343" lon="2.57552">
        <ele>454.36</ele>
        <time>2012-09-20T09:41:00Z</time>
      </trkpt>
      <trkpt lat="43.35346" lon="2.57555">
        <ele>455.32</ele>
        <time>2012-09-20T09:41:12Z</time>
      </trkpt>
      <trkpt lat="43.35353" lon="2.57562">
        <ele>456.28</ele>
        <time>2012-09-20T09:41:22Z</time>
      </trkpt>
      <trkpt lat="43.35355" lon="2.57563">
        <ele>457.72</ele>
        <time>2012-09-20T09:41:32Z</time>
      </trkpt>
      <trkpt lat="43.35363" lon="2.57572">
        <ele>458.21</ele>
        <time>2012-09-20T09:41:44Z</time>
      </trkpt>
      <trkpt lat="43.3537" lon="2.57579">
        <ele>458.21</ele>
        <time>2012-09-20T09:41:55Z</time>
      </trkpt>
      <trkpt lat="43.35372" lon="2.57579">
        <ele>458.69</ele>
        <time>2012-09-20T09:41:58Z</time>
      </trkpt>
      <trkpt lat="43.35376" lon="2.57584">
        <ele>458.69</ele>
        <time>2012-09-20T09:42:06Z</time>
      </trkpt>
      <trkpt lat="43.35385" lon="2.57592">
        <ele>458.21</ele>
        <time>2012-09-20T09:42:17Z</time>
      </trkpt>
      <trkpt lat="43.35391" lon="2.57599">
        <ele>459.17</ele>
        <time>2012-09-20T09:42:29Z</time>
      </trkpt>
      <trkpt lat="43.35392" lon="2.57598">
        <ele>460.61</ele>
        <time>2012-09-20T09:42:41Z</time>
      </trkpt>
      <trkpt lat="43.35393" lon="2.57599">
        <ele>462.05</ele>
        <time>2012-09-20T09:42:52Z</time>
      </trkpt>
      <trkpt lat="43.35396" lon="2.576">
        <ele>463.49</ele>
        <time>2012-09-20T09:43:04Z</time>
      </trkpt>
      <trkpt lat="43.354" lon="2.57606">
        <ele>465.42</ele>
        <time>2012-09-20T09:43:15Z</time>
      </trkpt>
      <trkpt lat="43.35406" lon="2.57614">
        <ele>464.45</ele>
        <time>2012-09-20T09:43:26Z</time>
      </trkpt>
      <trkpt lat="43.35408" lon="2.57616">
        <ele>463.97</ele>
        <time>2012-09-20T09:43:38Z</time>
      </trkpt>
      <trkpt lat="43.35414" lon="2.57619">
        <ele>465.9</ele>
        <time>2012-09-20T09:43:49Z</time>
      </trkpt>
      <trkpt lat="43.35415" lon="2.5762">
        <ele>466.38</ele>
        <time>2012-09-20T09:43:53Z</time>
      </trkpt>
      <trkpt lat="43.35419" lon="2.57623">
        <ele>468.78</ele>
        <time>2012-09-20T09:44:03Z</time>
      </trkpt>
      <trkpt lat="43.35421" lon="2.57624">
        <ele>470.7</ele>
        <time>2012-09-20T09:44:16Z</time>
      </trkpt>
      <trkpt lat="43.35426" lon="2.57629">
        <ele>471.66</ele>
        <time>2012-09-20T09:44:27Z</time>
      </trkpt>
      <trkpt lat="43.35428" lon="2.5763">
        <ele>473.11</ele>
        <time>2012-09-20T09:44:35Z</time>
      </trkpt>
      <trkpt lat="43.3543" lon="2.57633">
        <ele>473.11</ele>
        <time>2012-09-20T09:44:38Z</time>
      </trkpt>
      <trkpt lat="43.35434" lon="2.57639">
        <ele>474.55</ele>
        <time>2012-09-20T09:44:50Z</time>
      </trkpt>
      <trkpt lat="43.35439" lon="2.57647">
        <ele>475.99</ele>
        <time>2012-09-20T09:45:00Z</time>
      </trkpt>
      <trkpt lat="43.35442" lon="2.5765">
        <ele>477.43</ele>
        <time>2012-09-20T09:45:11Z</time>
      </trkpt>
      <trkpt lat="43.3545" lon="2.57658">
        <ele>475.99</ele>
        <time>2012-09-20T09:45:24Z</time>
      </trkpt>
      <trkpt lat="43.35456" lon="2.57663">
        <ele>475.51</ele>
        <time>2012-09-20T09:45:32Z</time>
      </trkpt>
      <trkpt lat="43.35463" lon="2.57669">
        <ele>474.07</ele>
        <time>2012-09-20T09:45:45Z</time>
      </trkpt>
      <trkpt lat="43.35468" lon="2.57673">
        <ele>472.63</ele>
        <time>2012-09-20T09:45:56Z</time>
      </trkpt>
      <trkpt lat="43.35473" lon="2.57676">
        <ele>470.22</ele>
        <time>2012-09-20T09:46:06Z</time>
      </trkpt>
      <trkpt lat="43.3548" lon="2.57681">
        <ele>468.3</ele>
        <time>2012-09-20T09:46:18Z</time>
      </trkpt>
      <trkpt lat="43.35487" lon="2.57682">
        <ele>467.82</ele>
        <time>2012-09-20T09:46:30Z</time>
      </trkpt>
      <trkpt lat="43.3549" lon="2.57687">
        <ele>466.38</ele>
        <time>2012-09-20T09:46:40Z</time>
      </trkpt>
      <trkpt lat="43.35496" lon="2.5769">
        <ele>465.42</ele>
        <time>2012-09-20T09:46:53Z</time>
      </trkpt>
      <trkpt lat="43.35497" lon="2.57693">
        <ele>464.45</ele>
        <time>2012-09-20T09:47:05Z</time>
      </trkpt>
      <trkpt lat="43.35503" lon="2.57698">
        <ele>463.01</ele>
        <time>2012-09-20T09:47:16Z</time>
      </trkpt>
      <trkpt lat="43.35502" lon="2.57699">
        <ele>462.53</ele>
        <time>2012-09-20T09:47:31Z</time>
      </trkpt>
      <trkpt lat="43.35506" lon="2.57706">
        <ele>460.13</ele>
        <time>2012-09-20T09:47:43Z</time>
      </trkpt>
      <trkpt lat="43.35505" lon="2.57708">
        <ele>458.69</ele>
        <time>2012-09-20T09:47:57Z</time>
      </trkpt>
      <trkpt lat="43.35497" lon="2.57711">
        <ele>456.76</ele>
        <time>2012-09-20T09:48:12Z</time>
      </trkpt>
      <trkpt lat="43.35491" lon="2.5771">
        <ele>454.36</ele>
        <time>2012-09-20T09:48:28Z</time>
      </trkpt>
      <trkpt lat="43.35487" lon="2.57716">
        <ele>452.92</ele>
        <time>2012-09-20T09:48:39Z</time>
      </trkpt>
      <trkpt lat="43.35483" lon="2.57721">
        <ele>451</ele>
        <time>2012-09-20T09:48:48Z</time>
      </trkpt>
      <trkpt lat="43.3548" lon="2.57718">
        <ele>451</ele>
        <time>2012-09-20T09:48:58Z</time>
      </trkpt>
      <trkpt lat="43.3548" lon="2.57724">
        <ele>451</ele>
        <time>2012-09-20T09:49:06Z</time>
      </trkpt>
      <trkpt lat="43.35476" lon="2.57738">
        <ele>452.92</ele>
        <time>2012-09-20T09:49:20Z</time>
      </trkpt>
      <trkpt lat="43.3547" lon="2.57741">
        <ele>453.4</ele>
        <time>2012-09-20T09:49:31Z</time>
      </trkpt>
      <trkpt lat="43.35468" lon="2.57744">
        <ele>452.44</ele>
        <time>2012-09-20T09:49:41Z</time>
      </trkpt>
      <trkpt lat="43.35466" lon="2.57754">
        <ele>451.48</ele>
        <time>2012-09-20T09:49:55Z</time>
      </trkpt>
      <trkpt lat="43.35466" lon="2.57758">
        <ele>449.55</ele>
        <time>2012-09-20T09:50:06Z</time>
      </trkpt>
      <trkpt lat="43.35467" lon="2.57767">
        <ele>448.59</ele>
        <time>2012-09-20T09:50:16Z</time>
      </trkpt>
      <trkpt lat="43.35466" lon="2.57776">
        <ele>448.11</ele>
        <time>2012-09-20T09:50:22Z</time>
      </trkpt>
      <trkpt lat="43.35467" lon="2.57779">
        <ele>448.11</ele>
        <time>2012-09-20T09:50:25Z</time>
      </trkpt>
      <trkpt lat="43.35469" lon="2.57786">
        <ele>447.63</ele>
        <time>2012-09-20T09:50:30Z</time>
      </trkpt>
      <trkpt lat="43.35469" lon="2.57788">
        <ele>447.15</ele>
        <time>2012-09-20T09:50:32Z</time>
      </trkpt>
      <trkpt lat="43.35469" lon="2.57801">
        <ele>446.19</ele>
        <time>2012-09-20T09:50:45Z</time>
      </trkpt>
      <trkpt lat="43.35472" lon="2.57812">
        <ele>446.19</ele>
        <time>2012-09-20T09:50:55Z</time>
      </trkpt>
      <trkpt lat="43.35472" lon="2.57824">
        <ele>444.75</ele>
        <time>2012-09-20T09:51:04Z</time>
      </trkpt>
      <trkpt lat="43.35473" lon="2.57828">
        <ele>444.75</ele>
        <time>2012-09-20T09:51:08Z</time>
      </trkpt>
      <trkpt lat="43.35474" lon="2.57843">
        <ele>445.71</ele>
        <time>2012-09-20T09:51:21Z</time>
      </trkpt>
      <trkpt lat="43.35474" lon="2.57849">
        <ele>445.71</ele>
        <time>2012-09-20T09:51:27Z</time>
      </trkpt>
      <trkpt lat="43.35461" lon="2.57864">
        <ele>445.23</ele>
        <time>2012-09-20T09:51:41Z</time>
      </trkpt>
      <trkpt lat="43.35454" lon="2.57875">
        <ele>445.71</ele>
        <time>2012-09-20T09:51:52Z</time>
      </trkpt>
      <trkpt lat="43.35448" lon="2.57886">
        <ele>446.67</ele>
        <time>2012-09-20T09:52:04Z</time>
      </trkpt>
      <trkpt lat="43.35446" lon="2.57888">
        <ele>446.67</ele>
        <time>2012-09-20T09:52:06Z</time>
      </trkpt>
      <trkpt lat="43.35442" lon="2.57891">
        <ele>446.19</ele>
        <time>2012-09-20T09:52:10Z</time>
      </trkpt>
      <trkpt lat="43.35438" lon="2.57897">
        <ele>446.19</ele>
        <time>2012-09-20T09:52:16Z</time>
      </trkpt>
      <trkpt lat="43.35426" lon="2.57909">
        <ele>445.71</ele>
        <time>2012-09-20T09:52:30Z</time>
      </trkpt>
      <trkpt lat="43.35424" lon="2.5791">
        <ele>445.23</ele>
        <time>2012-09-20T09:52:32Z</time>
      </trkpt>
      <trkpt lat="43.35422" lon="2.57912">
        <ele>444.75</ele>
        <time>2012-09-20T09:52:35Z</time>
      </trkpt>
      <trkpt lat="43.3542" lon="2.57914">
        <ele>444.75</ele>
        <time>2012-09-20T09:52:38Z</time>
      </trkpt>
      <trkpt lat="43.3541" lon="2.57928">
        <ele>444.75</ele>
        <time>2012-09-20T09:52:52Z</time>
      </trkpt>
      <trkpt lat="43.354" lon="2.5794">
        <ele>444.75</ele>
        <time>2012-09-20T09:53:07Z</time>
      </trkpt>
      <trkpt lat="43.35394" lon="2.57952">
        <ele>444.27</ele>
        <time>2012-09-20T09:53:19Z</time>
      </trkpt>
      <trkpt lat="43.35388" lon="2.57961">
        <ele>443.31</ele>
        <time>2012-09-20T09:53:28Z</time>
      </trkpt>
      <trkpt lat="43.35382" lon="2.57969">
        <ele>441.86</ele>
        <time>2012-09-20T09:53:42Z</time>
      </trkpt>
      <trkpt lat="43.35381" lon="2.57969">
        <ele>442.34</ele>
        <time>2012-09-20T09:53:58Z</time>
      </trkpt>
      <trkpt lat="43.35377" lon="2.57981">
        <ele>441.86</ele>
        <time>2012-09-20T09:54:13Z</time>
      </trkpt>
      <trkpt lat="43.35374" lon="2.57989">
        <ele>442.82</ele>
        <time>2012-09-20T09:54:23Z</time>
      </trkpt>
      <trkpt lat="43.35369" lon="2.57998">
        <ele>442.34</ele>
        <time>2012-09-20T09:54:31Z</time>
      </trkpt>
      <trkpt lat="43.35368" lon="2.58">
        <ele>441.86</ele>
        <time>2012-09-20T09:54:33Z</time>
      </trkpt>
      <trkpt lat="43.35362" lon="2.58008">
        <ele>440.42</ele>
        <time>2012-09-20T09:54:42Z</time>
      </trkpt>
      <trkpt lat="43.35355" lon="2.58017">
        <ele>438.98</ele>
        <time>2012-09-20T09:54:52Z</time>
      </trkpt>
      <trkpt lat="43.3535" lon="2.58035">
        <ele>438.02</ele>
        <time>2012-09-20T09:55:07Z</time>
      </trkpt>
      <trkpt lat="43.35347" lon="2.58043">
        <ele>437.54</ele>
        <time>2012-09-20T09:55:13Z</time>
      </trkpt>
      <trkpt lat="43.35343" lon="2.58054">
        <ele>436.58</ele>
        <time>2012-09-20T09:55:21Z</time>
      </trkpt>
      <trkpt lat="43.35343" lon="2.58066">
        <ele>437.06</ele>
        <time>2012-09-20T09:55:30Z</time>
      </trkpt>
      <trkpt lat="43.35344" lon="2.58071">
        <ele>437.06</ele>
        <time>2012-09-20T09:55:34Z</time>
      </trkpt>
      <trkpt lat="43.35343" lon="2.58075">
        <ele>437.06</ele>
        <time>2012-09-20T09:55:37Z</time>
      </trkpt>
      <trkpt lat="43.35341" lon="2.58082">
        <ele>437.54</ele>
        <time>2012-09-20T09:55:50Z</time>
      </trkpt>
      <trkpt lat="43.35339" lon="2.58092">
        <ele>436.1</ele>
        <time>2012-09-20T09:56:03Z</time>
      </trkpt>
      <trkpt lat="43.35334" lon="2.58093">
        <ele>435.61</ele>
        <time>2012-09-20T09:56:17Z</time>
      </trkpt>
      <trkpt lat="43.35331" lon="2.58095">
        <ele>434.65</ele>
        <time>2012-09-20T09:56:36Z</time>
      </trkpt>
      <trkpt lat="43.35327" lon="2.58098">
        <ele>433.69</ele>
        <time>2012-09-20T09:56:46Z</time>
      </trkpt>
      <trkpt lat="43.35322" lon="2.58106">
        <ele>431.29</ele>
        <time>2012-09-20T09:56:58Z</time>
      </trkpt>
      <trkpt lat="43.35319" lon="2.58118">
        <ele>429.85</ele>
        <time>2012-09-20T09:57:12Z</time>
      </trkpt>
      <trkpt lat="43.3532" lon="2.58125">
        <ele>430.33</ele>
        <time>2012-09-20T09:57:23Z</time>
      </trkpt>
      <trkpt lat="43.35321" lon="2.58129">
        <ele>429.85</ele>
        <time>2012-09-20T09:57:36Z</time>
      </trkpt>
      <trkpt lat="43.35321" lon="2.58132">
        <ele>429.37</ele>
        <time>2012-09-20T09:57:48Z</time>
      </trkpt>
      <trkpt lat="43.35323" lon="2.58138">
        <ele>428.89</ele>
        <time>2012-09-20T09:58:00Z</time>
      </trkpt>
      <trkpt lat="43.35322" lon="2.58144">
        <ele>428.89</ele>
        <time>2012-09-20T09:58:13Z</time>
      </trkpt>
      <trkpt lat="43.35324" lon="2.58148">
        <ele>428.89</ele>
        <time>2012-09-20T09:58:25Z</time>
      </trkpt>
      <trkpt lat="43.35325" lon="2.5815">
        <ele>428.4</ele>
        <time>2012-09-20T09:58:36Z</time>
      </trkpt>
      <trkpt lat="43.35325" lon="2.5815">
        <ele>428.89</ele>
        <time>2012-09-20T09:58:48Z</time>
      </trkpt>
      <trkpt lat="43.35324" lon="2.5815">
        <ele>428.4</ele>
        <time>2012-09-20T09:59:01Z</time>
      </trkpt>
      <trkpt lat="43.35324" lon="2.58151">
        <ele>428.89</ele>
        <time>2012-09-20T09:59:18Z</time>
      </trkpt>
      <trkpt lat="43.35324" lon="2.58151">
        <ele>428.89</ele>
        <time>2012-09-20T09:59:41Z</time>
      </trkpt>
      <trkpt lat="43.35324" lon="2.58151">
        <ele>428.4</ele>
        <time>2012-09-20T09:59:55Z</time>
      </trkpt>
      <trkpt lat="43.35324" lon="2.58151">
        <ele>428.4</ele>
        <time>2012-09-20T10:00:16Z</time>
      </trkpt>
      <trkpt lat="43.35324" lon="2.58151">
        <ele>428.4</ele>
        <time>2012-09-20T10:00:37Z</time>
      </trkpt>
      <trkpt lat="43.35324" lon="2.5815">
        <ele>427.92</ele>
        <time>2012-09-20T10:00:57Z</time>
      </trkpt>
      <trkpt lat="43.35324" lon="2.58151">
        <ele>427.92</ele>
        <time>2012-09-20T10:01:16Z</time>
      </trkpt>
      <trkpt lat="43.35324" lon="2.58151">
        <ele>428.4</ele>
        <time>2012-09-20T10:01:36Z</time>
      </trkpt>
      <trkpt lat="43.35321" lon="2.58152">
        <ele>428.4</ele>
        <time>2012-09-20T10:01:56Z</time>
      </trkpt>
      <trkpt lat="43.35322" lon="2.58153">
        <ele>427.92</ele>
        <time>2012-09-20T10:02:11Z</time>
      </trkpt>
      <trkpt lat="43.35322" lon="2.58153">
        <ele>427.92</ele>
        <time>2012-09-20T10:02:26Z</time>
      </trkpt>
      <trkpt lat="43.35322" lon="2.5815">
        <ele>428.4</ele>
        <time>2012-09-20T10:02:38Z</time>
      </trkpt>
      <trkpt lat="43.35325" lon="2.58153">
        <ele>428.4</ele>
        <time>2012-09-20T10:02:45Z</time>
      </trkpt>
      <trkpt lat="43.35332" lon="2.5816">
        <ele>428.4</ele>
        <time>2012-09-20T10:02:56Z</time>
      </trkpt>
      <trkpt lat="43.35335" lon="2.58162">
        <ele>428.89</ele>
        <time>2012-09-20T10:03:08Z</time>
      </trkpt>
      <trkpt lat="43.35337" lon="2.58165">
        <ele>429.37</ele>
        <time>2012-09-20T10:03:18Z</time>
      </trkpt>
      <trkpt lat="43.3534" lon="2.58164">
        <ele>428.89</ele>
        <time>2012-09-20T10:03:29Z</time>
      </trkpt>
      <trkpt lat="43.3534" lon="2.58163">
        <ele>429.85</ele>
        <time>2012-09-20T10:03:40Z</time>
      </trkpt>
      <trkpt lat="43.3534" lon="2.58167">
        <ele>429.37</ele>
        <time>2012-09-20T10:03:58Z</time>
      </trkpt>
      <trkpt lat="43.35342" lon="2.58168">
        <ele>429.85</ele>
        <time>2012-09-20T10:04:12Z</time>
      </trkpt>
      <trkpt lat="43.35342" lon="2.58167">
        <ele>429.85</ele>
        <time>2012-09-20T10:04:25Z</time>
      </trkpt>
      <trkpt lat="43.35342" lon="2.58167">
        <ele>429.37</ele>
        <time>2012-09-20T10:04:42Z</time>
      </trkpt>
      <trkpt lat="43.35342" lon="2.58167">
        <ele>429.37</ele>
        <time>2012-09-20T10:05:05Z</time>
      </trkpt>
      <trkpt lat="43.35342" lon="2.58167">
        <ele>429.85</ele>
        <time>2012-09-20T10:05:18Z</time>
      </trkpt>
      <trkpt lat="43.35343" lon="2.58167">
        <ele>429.37</ele>
        <time>2012-09-20T10:05:33Z</time>
      </trkpt>
      <trkpt lat="43.35343" lon="2.58167">
        <ele>429.85</ele>
        <time>2012-09-20T10:05:34Z</time>
      </trkpt>
      <trkpt lat="43.35344" lon="2.58169">
        <ele>429.85</ele>
        <time>2012-09-20T10:05:37Z</time>
      </trkpt>
      <trkpt lat="43.3535" lon="2.5818">
        <ele>430.33</ele>
        <time>2012-09-20T10:05:49Z</time>
      </trkpt>
      <trkpt lat="43.35356" lon="2.58184">
        <ele>431.77</ele>
        <time>2012-09-20T10:06:00Z</time>
      </trkpt>
      <trkpt lat="43.35361" lon="2.58185">
        <ele>433.69</ele>
        <time>2012-09-20T10:06:08Z</time>
      </trkpt>
      <trkpt lat="43.35368" lon="2.5819">
        <ele>435.61</ele>
        <time>2012-09-20T10:06:20Z</time>
      </trkpt>
      <trkpt lat="43.35375" lon="2.58188">
        <ele>437.06</ele>
        <time>2012-09-20T10:06:32Z</time>
      </trkpt>
      <trkpt lat="43.35379" lon="2.58177">
        <ele>438.5</ele>
        <time>2012-09-20T10:06:42Z</time>
      </trkpt>
      <trkpt lat="43.35383" lon="2.58169">
        <ele>439.94</ele>
        <time>2012-09-20T10:06:57Z</time>
      </trkpt>
      <trkpt lat="43.35382" lon="2.58171">
        <ele>439.94</ele>
        <time>2012-09-20T10:07:10Z</time>
      </trkpt>
      <trkpt lat="43.35384" lon="2.58169">
        <ele>440.42</ele>
        <time>2012-09-20T10:07:27Z</time>
      </trkpt>
      <trkpt lat="43.35384" lon="2.58169">
        <ele>440.42</ele>
        <time>2012-09-20T10:07:31Z</time>
      </trkpt>
      <trkpt lat="43.35383" lon="2.5817">
        <ele>429.85</ele>
        <time>2012-09-20T10:46:58Z</time>
      </trkpt>
      <trkpt lat="43.3538" lon="2.58167">
        <ele>429.85</ele>
        <time>2012-09-20T10:47:05Z</time>
      </trkpt>
      <trkpt lat="43.35381" lon="2.58168">
        <ele>431.29</ele>
        <time>2012-09-20T10:47:14Z</time>
      </trkpt>
      <trkpt lat="43.35383" lon="2.58168">
        <ele>434.17</ele>
        <time>2012-09-20T10:47:27Z</time>
      </trkpt>
      <trkpt lat="43.35385" lon="2.58169">
        <ele>437.54</ele>
        <time>2012-09-20T10:47:50Z</time>
      </trkpt>
      <trkpt lat="43.35387" lon="2.58166">
        <ele>438.02</ele>
        <time>2012-09-20T10:48:18Z</time>
      </trkpt>
      <trkpt lat="43.35388" lon="2.58166">
        <ele>438.5</ele>
        <time>2012-09-20T10:48:50Z</time>
      </trkpt>
      <trkpt lat="43.35388" lon="2.58166">
        <ele>438.5</ele>
        <time>2012-09-20T10:49:21Z</time>
      </trkpt>
      <trkpt lat="43.35388" lon="2.58167">
        <ele>438.98</ele>
        <time>2012-09-20T10:49:57Z</time>
      </trkpt>
      <trkpt lat="43.35388" lon="2.58167">
        <ele>438.02</ele>
        <time>2012-09-20T10:50:27Z</time>
      </trkpt>
      <trkpt lat="43.35388" lon="2.58168">
        <ele>438.98</ele>
        <time>2012-09-20T10:51:01Z</time>
      </trkpt>
      <trkpt lat="43.35387" lon="2.58168">
        <ele>438.5</ele>
        <time>2012-09-20T10:51:28Z</time>
      </trkpt>
      <trkpt lat="43.35387" lon="2.58168">
        <ele>438.5</ele>
        <time>2012-09-20T10:52:01Z</time>
      </trkpt>
      <trkpt lat="43.35386" lon="2.58169">
        <ele>438.5</ele>
        <time>2012-09-20T10:52:33Z</time>
      </trkpt>
      <trkpt lat="43.35385" lon="2.5817">
        <ele>438.5</ele>
        <time>2012-09-20T10:53:05Z</time>
      </trkpt>
      <trkpt lat="43.35385" lon="2.58169">
        <ele>438.02</ele>
        <time>2012-09-20T10:53:40Z</time>
      </trkpt>
      <trkpt lat="43.35384" lon="2.58169">
        <ele>438.02</ele>
        <time>2012-09-20T10:54:14Z</time>
      </trkpt>
      <trkpt lat="43.35385" lon="2.58169">
        <ele>438.02</ele>
        <time>2012-09-20T10:54:46Z</time>
      </trkpt>
      <trkpt lat="43.35384" lon="2.58168">
        <ele>438.02</ele>
        <time>2012-09-20T10:55:16Z</time>
      </trkpt>
      <trkpt lat="43.35384" lon="2.58168">
        <ele>438.02</ele>
        <time>2012-09-20T10:55:47Z</time>
      </trkpt>
      <trkpt lat="43.35384" lon="2.58168">
        <ele>438.02</ele>
        <time>2012-09-20T10:56:18Z</time>
      </trkpt>
      <trkpt lat="43.35384" lon="2.58168">
        <ele>437.54</ele>
        <time>2012-09-20T10:56:46Z</time>
      </trkpt>
      <trkpt lat="43.35384" lon="2.58167">
        <ele>438.5</ele>
        <time>2012-09-20T10:57:14Z</time>
      </trkpt>
      <trkpt lat="43.35384" lon="2.58168">
        <ele>438.02</ele>
        <time>2012-09-20T10:57:49Z</time>
      </trkpt>
      <trkpt lat="43.35384" lon="2.58169">
        <ele>438.02</ele>
        <time>2012-09-20T10:58:23Z</time>
      </trkpt>
      <trkpt lat="43.35384" lon="2.58168">
        <ele>437.54</ele>
        <time>2012-09-20T10:58:56Z</time>
      </trkpt>
      <trkpt lat="43.35383" lon="2.58167">
        <ele>437.54</ele>
        <time>2012-09-20T10:59:28Z</time>
      </trkpt>
      <trkpt lat="43.35384" lon="2.58167">
        <ele>437.54</ele>
        <time>2012-09-20T11:00:01Z</time>
      </trkpt>
      <trkpt lat="43.35384" lon="2.58167">
        <ele>438.02</ele>
        <time>2012-09-20T11:00:34Z</time>
      </trkpt>
      <trkpt lat="43.35384" lon="2.58168">
        <ele>437.54</ele>
        <time>2012-09-20T11:01:13Z</time>
      </trkpt>
      <trkpt lat="43.35384" lon="2.58167">
        <ele>438.02</ele>
        <time>2012-09-20T11:01:51Z</time>
      </trkpt>
      <trkpt lat="43.35384" lon="2.58168">
        <ele>438.5</ele>
        <time>2012-09-20T11:02:22Z</time>
      </trkpt>
      <trkpt lat="43.35383" lon="2.58168">
        <ele>438.5</ele>
        <time>2012-09-20T11:02:38Z</time>
      </trkpt>
      <trkpt lat="43.35383" lon="2.58168">
        <ele>438.98</ele>
        <time>2012-09-20T11:02:53Z</time>
      </trkpt>
      <trkpt lat="43.35383" lon="2.58168">
        <ele>438.5</ele>
        <time>2012-09-20T11:03:10Z</time>
      </trkpt>
      <trkpt lat="43.35382" lon="2.58167">
        <ele>438.5</ele>
        <time>2012-09-20T11:03:34Z</time>
      </trkpt>
      <trkpt lat="43.3538" lon="2.58171">
        <ele>437.54</ele>
        <time>2012-09-20T11:03:51Z</time>
      </trkpt>
      <trkpt lat="43.35379" lon="2.58174">
        <ele>437.06</ele>
        <time>2012-09-20T11:04:03Z</time>
      </trkpt>
      <trkpt lat="43.35376" lon="2.58183">
        <ele>436.1</ele>
        <time>2012-09-20T11:04:19Z</time>
      </trkpt>
      <trkpt lat="43.35373" lon="2.58189">
        <ele>436.1</ele>
        <time>2012-09-20T11:04:32Z</time>
      </trkpt>
      <trkpt lat="43.3537" lon="2.58189">
        <ele>434.65</ele>
        <time>2012-09-20T11:04:45Z</time>
      </trkpt>
      <trkpt lat="43.35363" lon="2.58187">
        <ele>432.25</ele>
        <time>2012-09-20T11:04:55Z</time>
      </trkpt>
      <trkpt lat="43.35356" lon="2.58184">
        <ele>430.81</ele>
        <time>2012-09-20T11:05:09Z</time>
      </trkpt>
      <trkpt lat="43.35355" lon="2.58185">
        <ele>430.33</ele>
        <time>2012-09-20T11:05:12Z</time>
      </trkpt>
      <trkpt lat="43.35354" lon="2.58188">
        <ele>429.37</ele>
        <time>2012-09-20T11:05:14Z</time>
      </trkpt>
      <trkpt lat="43.35355" lon="2.58205">
        <ele>429.85</ele>
        <time>2012-09-20T11:05:25Z</time>
      </trkpt>
      <trkpt lat="43.35356" lon="2.58213">
        <ele>430.81</ele>
        <time>2012-09-20T11:05:30Z</time>
      </trkpt>
      <trkpt lat="43.35359" lon="2.58223">
        <ele>431.29</ele>
        <time>2012-09-20T11:05:43Z</time>
      </trkpt>
      <trkpt lat="43.35361" lon="2.58226">
        <ele>430.81</ele>
        <time>2012-09-20T11:05:55Z</time>
      </trkpt>
      <trkpt lat="43.35366" lon="2.58229">
        <ele>431.29</ele>
        <time>2012-09-20T11:06:06Z</time>
      </trkpt>
      <trkpt lat="43.35367" lon="2.58229">
        <ele>429.85</ele>
        <time>2012-09-20T11:06:09Z</time>
      </trkpt>
      <trkpt lat="43.35375" lon="2.58228">
        <ele>428.89</ele>
        <time>2012-09-20T11:06:19Z</time>
      </trkpt>
      <trkpt lat="43.35386" lon="2.58228">
        <ele>429.85</ele>
        <time>2012-09-20T11:06:33Z</time>
      </trkpt>
      <trkpt lat="43.35392" lon="2.58227">
        <ele>428.4</ele>
        <time>2012-09-20T11:06:40Z</time>
      </trkpt>
      <trkpt lat="43.35401" lon="2.58223">
        <ele>427.92</ele>
        <time>2012-09-20T11:06:48Z</time>
      </trkpt>
      <trkpt lat="43.35412" lon="2.58222">
        <ele>426.96</ele>
        <time>2012-09-20T11:06:57Z</time>
      </trkpt>
      <trkpt lat="43.35427" lon="2.58223">
        <ele>425.52</ele>
        <time>2012-09-20T11:07:10Z</time>
      </trkpt>
      <trkpt lat="43.35432" lon="2.58223">
        <ele>424.56</ele>
        <time>2012-09-20T11:07:14Z</time>
      </trkpt>
      <trkpt lat="43.35437" lon="2.58222">
        <ele>424.56</ele>
        <time>2012-09-20T11:07:19Z</time>
      </trkpt>
      <trkpt lat="43.35443" lon="2.58223">
        <ele>423.6</ele>
        <time>2012-09-20T11:07:25Z</time>
      </trkpt>
      <trkpt lat="43.35449" lon="2.58224">
        <ele>423.12</ele>
        <time>2012-09-20T11:07:31Z</time>
      </trkpt>
      <trkpt lat="43.35462" lon="2.58226">
        <ele>421.19</ele>
        <time>2012-09-20T11:07:42Z</time>
      </trkpt>
      <trkpt lat="43.35465" lon="2.58224">
        <ele>420.71</ele>
        <time>2012-09-20T11:07:45Z</time>
      </trkpt>
      <trkpt lat="43.35475" lon="2.58226">
        <ele>419.75</ele>
        <time>2012-09-20T11:07:55Z</time>
      </trkpt>
      <trkpt lat="43.35484" lon="2.58225">
        <ele>417.35</ele>
        <time>2012-09-20T11:08:04Z</time>
      </trkpt>
      <trkpt lat="43.35489" lon="2.58225">
        <ele>418.31</ele>
        <time>2012-09-20T11:08:11Z</time>
      </trkpt>
      <trkpt lat="43.35498" lon="2.58217">
        <ele>417.83</ele>
        <time>2012-09-20T11:08:26Z</time>
      </trkpt>
      <trkpt lat="43.35501" lon="2.58214">
        <ele>417.35</ele>
        <time>2012-09-20T11:08:31Z</time>
      </trkpt>
      <trkpt lat="43.35511" lon="2.58207">
        <ele>416.39</ele>
        <time>2012-09-20T11:08:40Z</time>
      </trkpt>
      <trkpt lat="43.35516" lon="2.58202">
        <ele>415.91</ele>
        <time>2012-09-20T11:08:46Z</time>
      </trkpt>
      <trkpt lat="43.35521" lon="2.58195">
        <ele>415.43</ele>
        <time>2012-09-20T11:08:59Z</time>
      </trkpt>
      <trkpt lat="43.35522" lon="2.58195">
        <ele>414.95</ele>
        <time>2012-09-20T11:09:00Z</time>
      </trkpt>
      <trkpt lat="43.35524" lon="2.58194">
        <ele>414.47</ele>
        <time>2012-09-20T11:09:03Z</time>
      </trkpt>
      <trkpt lat="43.35528" lon="2.58192">
        <ele>413.98</ele>
        <time>2012-09-20T11:09:07Z</time>
      </trkpt>
      <trkpt lat="43.35532" lon="2.58192">
        <ele>413.5</ele>
        <time>2012-09-20T11:09:11Z</time>
      </trkpt>
      <trkpt lat="43.35534" lon="2.58193">
        <ele>413.02</ele>
        <time>2012-09-20T11:09:13Z</time>
      </trkpt>
      <trkpt lat="43.3554" lon="2.58205">
        <ele>411.1</ele>
        <time>2012-09-20T11:09:26Z</time>
      </trkpt>
      <trkpt lat="43.35542" lon="2.58219">
        <ele>410.62</ele>
        <time>2012-09-20T11:09:38Z</time>
      </trkpt>
      <trkpt lat="43.35543" lon="2.58235">
        <ele>409.18</ele>
        <time>2012-09-20T11:09:51Z</time>
      </trkpt>
      <trkpt lat="43.35541" lon="2.58244">
        <ele>410.62</ele>
        <time>2012-09-20T11:10:00Z</time>
      </trkpt>
      <trkpt lat="43.35541" lon="2.58246">
        <ele>410.62</ele>
        <time>2012-09-20T11:10:02Z</time>
      </trkpt>
      <trkpt lat="43.35541" lon="2.58249">
        <ele>410.62</ele>
        <time>2012-09-20T11:10:04Z</time>
      </trkpt>
      <trkpt lat="43.35541" lon="2.58251">
        <ele>411.1</ele>
        <time>2012-09-20T11:10:06Z</time>
      </trkpt>
      <trkpt lat="43.3554" lon="2.58257">
        <ele>412.06</ele>
        <time>2012-09-20T11:10:11Z</time>
      </trkpt>
      <trkpt lat="43.3554" lon="2.58273">
        <ele>413.5</ele>
        <time>2012-09-20T11:10:24Z</time>
      </trkpt>
      <trkpt lat="43.3554" lon="2.58286">
        <ele>415.91</ele>
        <time>2012-09-20T11:10:37Z</time>
      </trkpt>
      <trkpt lat="43.3554" lon="2.58289">
        <ele>415.91</ele>
        <time>2012-09-20T11:10:40Z</time>
      </trkpt>
      <trkpt lat="43.3554" lon="2.58301">
        <ele>417.35</ele>
        <time>2012-09-20T11:10:51Z</time>
      </trkpt>
      <trkpt lat="43.35542" lon="2.58311">
        <ele>419.27</ele>
        <time>2012-09-20T11:11:02Z</time>
      </trkpt>
      <trkpt lat="43.35547" lon="2.58317">
        <ele>420.23</ele>
        <time>2012-09-20T11:11:11Z</time>
      </trkpt>
      <trkpt lat="43.35547" lon="2.58321">
        <ele>419.75</ele>
        <time>2012-09-20T11:11:14Z</time>
      </trkpt>
      <trkpt lat="43.35548" lon="2.58324">
        <ele>419.75</ele>
        <time>2012-09-20T11:11:16Z</time>
      </trkpt>
      <trkpt lat="43.3555" lon="2.58339">
        <ele>420.71</ele>
        <time>2012-09-20T11:11:28Z</time>
      </trkpt>
      <trkpt lat="43.35554" lon="2.58345">
        <ele>423.6</ele>
        <time>2012-09-20T11:11:39Z</time>
      </trkpt>
      <trkpt lat="43.35556" lon="2.5835">
        <ele>423.12</ele>
        <time>2012-09-20T11:11:45Z</time>
      </trkpt>
      <trkpt lat="43.35563" lon="2.58363">
        <ele>425.52</ele>
        <time>2012-09-20T11:11:59Z</time>
      </trkpt>
      <trkpt lat="43.35571" lon="2.58374">
        <ele>426.96</ele>
        <time>2012-09-20T11:12:12Z</time>
      </trkpt>
      <trkpt lat="43.35574" lon="2.58377">
        <ele>427.44</ele>
        <time>2012-09-20T11:12:16Z</time>
      </trkpt>
      <trkpt lat="43.35575" lon="2.5838">
        <ele>427.44</ele>
        <time>2012-09-20T11:12:18Z</time>
      </trkpt>
      <trkpt lat="43.35581" lon="2.5839">
        <ele>427.44</ele>
        <time>2012-09-20T11:12:27Z</time>
      </trkpt>
      <trkpt lat="43.35592" lon="2.58409">
        <ele>427.44</ele>
        <time>2012-09-20T11:12:42Z</time>
      </trkpt>
      <trkpt lat="43.35601" lon="2.58414">
        <ele>427.44</ele>
        <time>2012-09-20T11:12:55Z</time>
      </trkpt>
      <trkpt lat="43.35605" lon="2.58417">
        <ele>427.44</ele>
        <time>2012-09-20T11:13:07Z</time>
      </trkpt>
      <trkpt lat="43.35606" lon="2.58418">
        <ele>427.44</ele>
        <time>2012-09-20T11:13:08Z</time>
      </trkpt>
      <trkpt lat="43.3561" lon="2.58422">
        <ele>427.92</ele>
        <time>2012-09-20T11:13:14Z</time>
      </trkpt>
      <trkpt lat="43.35617" lon="2.58437">
        <ele>427.44</ele>
        <time>2012-09-20T11:13:26Z</time>
      </trkpt>
      <trkpt lat="43.35622" lon="2.58456">
        <ele>429.37</ele>
        <time>2012-09-20T11:13:38Z</time>
      </trkpt>
      <trkpt lat="43.35623" lon="2.58457">
        <ele>429.37</ele>
        <time>2012-09-20T11:13:39Z</time>
      </trkpt>
      <trkpt lat="43.35628" lon="2.58474">
        <ele>430.81</ele>
        <time>2012-09-20T11:13:54Z</time>
      </trkpt>
      <trkpt lat="43.35628" lon="2.58476">
        <ele>430.81</ele>
        <time>2012-09-20T11:13:55Z</time>
      </trkpt>
      <trkpt lat="43.35632" lon="2.58489">
        <ele>431.77</ele>
        <time>2012-09-20T11:14:05Z</time>
      </trkpt>
      <trkpt lat="43.35633" lon="2.58495">
        <ele>431.77</ele>
        <time>2012-09-20T11:14:09Z</time>
      </trkpt>
      <trkpt lat="43.35643" lon="2.58515">
        <ele>432.73</ele>
        <time>2012-09-20T11:14:25Z</time>
      </trkpt>
      <trkpt lat="43.35644" lon="2.58517">
        <ele>432.25</ele>
        <time>2012-09-20T11:14:27Z</time>
      </trkpt>
      <trkpt lat="43.35658" lon="2.58526">
        <ele>435.13</ele>
        <time>2012-09-20T11:14:42Z</time>
      </trkpt>
      <trkpt lat="43.35665" lon="2.58532">
        <ele>435.13</ele>
        <time>2012-09-20T11:14:51Z</time>
      </trkpt>
      <trkpt lat="43.35668" lon="2.58534">
        <ele>435.61</ele>
        <time>2012-09-20T11:14:55Z</time>
      </trkpt>
      <trkpt lat="43.3568" lon="2.58541">
        <ele>436.1</ele>
        <time>2012-09-20T11:15:10Z</time>
      </trkpt>
      <trkpt lat="43.35684" lon="2.58543">
        <ele>436.1</ele>
        <time>2012-09-20T11:15:13Z</time>
      </trkpt>
      <trkpt lat="43.35691" lon="2.58545">
        <ele>435.61</ele>
        <time>2012-09-20T11:15:20Z</time>
      </trkpt>
      <trkpt lat="43.35705" lon="2.58548">
        <ele>436.58</ele>
        <time>2012-09-20T11:15:33Z</time>
      </trkpt>
      <trkpt lat="43.35718" lon="2.58551">
        <ele>435.13</ele>
        <time>2012-09-20T11:15:44Z</time>
      </trkpt>
      <trkpt lat="43.35722" lon="2.5855">
        <ele>436.58</ele>
        <time>2012-09-20T11:15:47Z</time>
      </trkpt>
      <trkpt lat="43.35733" lon="2.58549">
        <ele>435.13</ele>
        <time>2012-09-20T11:15:57Z</time>
      </trkpt>
      <trkpt lat="43.35747" lon="2.5855">
        <ele>433.69</ele>
        <time>2012-09-20T11:16:09Z</time>
      </trkpt>
      <trkpt lat="43.35755" lon="2.58549">
        <ele>433.21</ele>
        <time>2012-09-20T11:16:17Z</time>
      </trkpt>
      <trkpt lat="43.35759" lon="2.58548">
        <ele>432.73</ele>
        <time>2012-09-20T11:16:20Z</time>
      </trkpt>
      <trkpt lat="43.35773" lon="2.58542">
        <ele>432.25</ele>
        <time>2012-09-20T11:16:32Z</time>
      </trkpt>
      <trkpt lat="43.35784" lon="2.5854">
        <ele>431.29</ele>
        <time>2012-09-20T11:16:41Z</time>
      </trkpt>
      <trkpt lat="43.35788" lon="2.58539">
        <ele>430.81</ele>
        <time>2012-09-20T11:16:45Z</time>
      </trkpt>
      <trkpt lat="43.35796" lon="2.58539">
        <ele>430.81</ele>
        <time>2012-09-20T11:16:52Z</time>
      </trkpt>
      <trkpt lat="43.35814" lon="2.58536">
        <ele>428.4</ele>
        <time>2012-09-20T11:17:08Z</time>
      </trkpt>
      <trkpt lat="43.35828" lon="2.58538">
        <ele>427.92</ele>
        <time>2012-09-20T11:17:20Z</time>
      </trkpt>
      <trkpt lat="43.35839" lon="2.58543">
        <ele>426.96</ele>
        <time>2012-09-20T11:17:30Z</time>
      </trkpt>
      <trkpt lat="43.35852" lon="2.58547">
        <ele>425.52</ele>
        <time>2012-09-20T11:17:43Z</time>
      </trkpt>
      <trkpt lat="43.35856" lon="2.5855">
        <ele>425.52</ele>
        <time>2012-09-20T11:17:55Z</time>
      </trkpt>
      <trkpt lat="43.35856" lon="2.5855">
        <ele>425.52</ele>
        <time>2012-09-20T11:18:14Z</time>
      </trkpt>
      <trkpt lat="43.35861" lon="2.58549">
        <ele>425.52</ele>
        <time>2012-09-20T11:18:32Z</time>
      </trkpt>
      <trkpt lat="43.35865" lon="2.58548">
        <ele>426.96</ele>
        <time>2012-09-20T11:18:44Z</time>
      </trkpt>
      <trkpt lat="43.35872" lon="2.58547">
        <ele>427.92</ele>
        <time>2012-09-20T11:18:54Z</time>
      </trkpt>
      <trkpt lat="43.35875" lon="2.58548">
        <ele>427.92</ele>
        <time>2012-09-20T11:18:58Z</time>
      </trkpt>
      <trkpt lat="43.35885" lon="2.58545">
        <ele>428.4</ele>
        <time>2012-09-20T11:19:10Z</time>
      </trkpt>
      <trkpt lat="43.35894" lon="2.58544">
        <ele>429.85</ele>
        <time>2012-09-20T11:19:22Z</time>
      </trkpt>
      <trkpt lat="43.35897" lon="2.58542">
        <ele>429.85</ele>
        <time>2012-09-20T11:19:26Z</time>
      </trkpt>
      <trkpt lat="43.35905" lon="2.58545">
        <ele>429.85</ele>
        <time>2012-09-20T11:19:34Z</time>
      </trkpt>
      <trkpt lat="43.35907" lon="2.58544">
        <ele>430.33</ele>
        <time>2012-09-20T11:19:36Z</time>
      </trkpt>
      <trkpt lat="43.35917" lon="2.58543">
        <ele>430.81</ele>
        <time>2012-09-20T11:19:50Z</time>
      </trkpt>
      <trkpt lat="43.35925" lon="2.58548">
        <ele>430.81</ele>
        <time>2012-09-20T11:20:02Z</time>
      </trkpt>
      <trkpt lat="43.35925" lon="2.58547">
        <ele>431.29</ele>
        <time>2012-09-20T11:20:14Z</time>
      </trkpt>
      <trkpt lat="43.35926" lon="2.58547">
        <ele>431.29</ele>
        <time>2012-09-20T11:20:32Z</time>
      </trkpt>
      <trkpt lat="43.35935" lon="2.58543">
        <ele>431.77</ele>
        <time>2012-09-20T11:20:43Z</time>
      </trkpt>
      <trkpt lat="43.35943" lon="2.58542">
        <ele>432.25</ele>
        <time>2012-09-20T11:20:55Z</time>
      </trkpt>
      <trkpt lat="43.35948" lon="2.58543">
        <ele>434.65</ele>
        <time>2012-09-20T11:21:08Z</time>
      </trkpt>
      <trkpt lat="43.35953" lon="2.5854">
        <ele>436.58</ele>
        <time>2012-09-20T11:21:21Z</time>
      </trkpt>
      <trkpt lat="43.35955" lon="2.58535">
        <ele>438.02</ele>
        <time>2012-09-20T11:21:35Z</time>
      </trkpt>
      <trkpt lat="43.35962" lon="2.58533">
        <ele>440.42</ele>
        <time>2012-09-20T11:21:47Z</time>
      </trkpt>
      <trkpt lat="43.3597" lon="2.5853">
        <ele>440.9</ele>
        <time>2012-09-20T11:21:58Z</time>
      </trkpt>
      <trkpt lat="43.35967" lon="2.58522">
        <ele>443.79</ele>
        <time>2012-09-20T11:22:11Z</time>
      </trkpt>
      <trkpt lat="43.35965" lon="2.58519">
        <ele>444.75</ele>
        <time>2012-09-20T11:22:16Z</time>
      </trkpt>
      <trkpt lat="43.3596" lon="2.58508">
        <ele>447.63</ele>
        <time>2012-09-20T11:22:30Z</time>
      </trkpt>
      <trkpt lat="43.35954" lon="2.58508">
        <ele>447.15</ele>
        <time>2012-09-20T11:22:36Z</time>
      </trkpt>
      <trkpt lat="43.35949" lon="2.58508">
        <ele>446.67</ele>
        <time>2012-09-20T11:22:40Z</time>
      </trkpt>
      <trkpt lat="43.35944" lon="2.58506">
        <ele>447.15</ele>
        <time>2012-09-20T11:22:54Z</time>
      </trkpt>
      <trkpt lat="43.35944" lon="2.58502">
        <ele>448.11</ele>
        <time>2012-09-20T11:23:04Z</time>
      </trkpt>
      <trkpt lat="43.35945" lon="2.58495">
        <ele>450.03</ele>
        <time>2012-09-20T11:23:19Z</time>
      </trkpt>
      <trkpt lat="43.35945" lon="2.58492">
        <ele>452.92</ele>
        <time>2012-09-20T11:23:30Z</time>
      </trkpt>
      <trkpt lat="43.35945" lon="2.58486">
        <ele>454.36</ele>
        <time>2012-09-20T11:23:45Z</time>
      </trkpt>
      <trkpt lat="43.35947" lon="2.58484">
        <ele>456.28</ele>
        <time>2012-09-20T11:23:57Z</time>
      </trkpt>
      <trkpt lat="43.3595" lon="2.58478">
        <ele>459.17</ele>
        <time>2012-09-20T11:24:11Z</time>
      </trkpt>
      <trkpt lat="43.35944" lon="2.58471">
        <ele>460.13</ele>
        <time>2012-09-20T11:24:23Z</time>
      </trkpt>
      <trkpt lat="43.3594" lon="2.58463">
        <ele>463.01</ele>
        <time>2012-09-20T11:24:37Z</time>
      </trkpt>
      <trkpt lat="43.35938" lon="2.58453">
        <ele>465.42</ele>
        <time>2012-09-20T11:24:51Z</time>
      </trkpt>
      <trkpt lat="43.35938" lon="2.58449">
        <ele>467.34</ele>
        <time>2012-09-20T11:25:04Z</time>
      </trkpt>
      <trkpt lat="43.35938" lon="2.58447">
        <ele>467.34</ele>
        <time>2012-09-20T11:25:16Z</time>
      </trkpt>
      <trkpt lat="43.35939" lon="2.58445">
        <ele>468.78</ele>
        <time>2012-09-20T11:25:28Z</time>
      </trkpt>
      <trkpt lat="43.3594" lon="2.58444">
        <ele>469.74</ele>
        <time>2012-09-20T11:25:43Z</time>
      </trkpt>
      <trkpt lat="43.35941" lon="2.58443">
        <ele>470.22</ele>
        <time>2012-09-20T11:25:55Z</time>
      </trkpt>
      <trkpt lat="43.35938" lon="2.5844">
        <ele>471.18</ele>
        <time>2012-09-20T11:26:05Z</time>
      </trkpt>
      <trkpt lat="43.35933" lon="2.58437">
        <ele>472.14</ele>
        <time>2012-09-20T11:26:16Z</time>
      </trkpt>
      <trkpt lat="43.35925" lon="2.5843">
        <ele>474.07</ele>
        <time>2012-09-20T11:26:30Z</time>
      </trkpt>
      <trkpt lat="43.35915" lon="2.58424">
        <ele>475.03</ele>
        <time>2012-09-20T11:26:44Z</time>
      </trkpt>
      <trkpt lat="43.35911" lon="2.5842">
        <ele>476.95</ele>
        <time>2012-09-20T11:26:56Z</time>
      </trkpt>
      <trkpt lat="43.35906" lon="2.58415">
        <ele>477.43</ele>
        <time>2012-09-20T11:27:09Z</time>
      </trkpt>
      <trkpt lat="43.35899" lon="2.58413">
        <ele>478.87</ele>
        <time>2012-09-20T11:27:21Z</time>
      </trkpt>
      <trkpt lat="43.35896" lon="2.58411">
        <ele>478.87</ele>
        <time>2012-09-20T11:27:36Z</time>
      </trkpt>
      <trkpt lat="43.35896" lon="2.58411">
        <ele>478.87</ele>
        <time>2012-09-20T11:27:51Z</time>
      </trkpt>
      <trkpt lat="43.35896" lon="2.58411">
        <ele>477.43</ele>
        <time>2012-09-20T11:27:56Z</time>
      </trkpt>
      <trkpt lat="43.35897" lon="2.58412">
        <ele>478.87</ele>
        <time>2012-09-20T11:28:22Z</time>
      </trkpt>
      <trkpt lat="43.35896" lon="2.58412">
        <ele>477.91</ele>
        <time>2012-09-20T11:28:43Z</time>
      </trkpt>
      <trkpt lat="43.35896" lon="2.58411">
        <ele>478.39</ele>
        <time>2012-09-20T11:29:09Z</time>
      </trkpt>
      <trkpt lat="43.35895" lon="2.58411">
        <ele>479.35</ele>
        <time>2012-09-20T11:29:30Z</time>
      </trkpt>
      <trkpt lat="43.35892" lon="2.58411">
        <ele>479.84</ele>
        <time>2012-09-20T11:29:45Z</time>
      </trkpt>
      <trkpt lat="43.35891" lon="2.58411">
        <ele>480.8</ele>
        <time>2012-09-20T11:29:51Z</time>
      </trkpt>
      <trkpt lat="43.35883" lon="2.58407">
        <ele>481.76</ele>
        <time>2012-09-20T11:30:00Z</time>
      </trkpt>
      <trkpt lat="43.35874" lon="2.584">
        <ele>483.2</ele>
        <time>2012-09-20T11:30:13Z</time>
      </trkpt>
      <trkpt lat="43.35869" lon="2.58397">
        <ele>483.68</ele>
        <time>2012-09-20T11:30:20Z</time>
      </trkpt>
      <trkpt lat="43.35865" lon="2.58394">
        <ele>484.16</ele>
        <time>2012-09-20T11:30:26Z</time>
      </trkpt>
      <trkpt lat="43.35858" lon="2.58389">
        <ele>485.6</ele>
        <time>2012-09-20T11:30:38Z</time>
      </trkpt>
      <trkpt lat="43.35857" lon="2.58388">
        <ele>486.08</ele>
        <time>2012-09-20T11:30:39Z</time>
      </trkpt>
      <trkpt lat="43.35846" lon="2.58381">
        <ele>488.01</ele>
        <time>2012-09-20T11:30:53Z</time>
      </trkpt>
      <trkpt lat="43.35844" lon="2.5838">
        <ele>488.49</ele>
        <time>2012-09-20T11:30:56Z</time>
      </trkpt>
      <trkpt lat="43.35837" lon="2.58375">
        <ele>489.45</ele>
        <time>2012-09-20T11:31:08Z</time>
      </trkpt>
      <trkpt lat="43.35834" lon="2.58373">
        <ele>489.45</ele>
        <time>2012-09-20T11:31:12Z</time>
      </trkpt>
      <trkpt lat="43.35832" lon="2.58371">
        <ele>490.41</ele>
        <time>2012-09-20T11:31:15Z</time>
      </trkpt>
      <trkpt lat="43.35824" lon="2.58366">
        <ele>491.37</ele>
        <time>2012-09-20T11:31:30Z</time>
      </trkpt>
      <trkpt lat="43.35812" lon="2.58363">
        <ele>492.81</ele>
        <time>2012-09-20T11:31:43Z</time>
      </trkpt>
      <trkpt lat="43.35811" lon="2.58363">
        <ele>492.81</ele>
        <time>2012-09-20T11:31:44Z</time>
      </trkpt>
      <trkpt lat="43.35805" lon="2.58361">
        <ele>493.77</ele>
        <time>2012-09-20T11:31:50Z</time>
      </trkpt>
      <trkpt lat="43.358" lon="2.58358">
        <ele>494.26</ele>
        <time>2012-09-20T11:31:54Z</time>
      </trkpt>
      <trkpt lat="43.35788" lon="2.58352">
        <ele>495.7</ele>
        <time>2012-09-20T11:32:04Z</time>
      </trkpt>
      <trkpt lat="43.35781" lon="2.58347">
        <ele>497.14</ele>
        <time>2012-09-20T11:32:16Z</time>
      </trkpt>
      <trkpt lat="43.3578" lon="2.58347">
        <ele>497.14</ele>
        <time>2012-09-20T11:32:18Z</time>
      </trkpt>
      <trkpt lat="43.35778" lon="2.58344">
        <ele>498.58</ele>
        <time>2012-09-20T11:32:21Z</time>
      </trkpt>
      <trkpt lat="43.35776" lon="2.58343">
        <ele>499.06</ele>
        <time>2012-09-20T11:32:24Z</time>
      </trkpt>
      <trkpt lat="43.35775" lon="2.58341">
        <ele>499.06</ele>
        <time>2012-09-20T11:32:27Z</time>
      </trkpt>
      <trkpt lat="43.3577" lon="2.58333">
        <ele>500.98</ele>
        <time>2012-09-20T11:32:36Z</time>
      </trkpt>
      <trkpt lat="43.35768" lon="2.58333">
        <ele>500.5</ele>
        <time>2012-09-20T11:32:39Z</time>
      </trkpt>
      <trkpt lat="43.35765" lon="2.58329">
        <ele>501.95</ele>
        <time>2012-09-20T11:32:44Z</time>
      </trkpt>
      <trkpt lat="43.3576" lon="2.58318">
        <ele>503.87</ele>
        <time>2012-09-20T11:32:58Z</time>
      </trkpt>
      <trkpt lat="43.35756" lon="2.58309">
        <ele>506.75</ele>
        <time>2012-09-20T11:33:11Z</time>
      </trkpt>
      <trkpt lat="43.35754" lon="2.58307">
        <ele>506.75</ele>
        <time>2012-09-20T11:33:15Z</time>
      </trkpt>
      <trkpt lat="43.35752" lon="2.58302">
        <ele>507.71</ele>
        <time>2012-09-20T11:33:20Z</time>
      </trkpt>
      <trkpt lat="43.35748" lon="2.58293">
        <ele>509.64</ele>
        <time>2012-09-20T11:33:35Z</time>
      </trkpt>
      <trkpt lat="43.35746" lon="2.58292">
        <ele>509.16</ele>
        <time>2012-09-20T11:33:56Z</time>
      </trkpt>
      <trkpt lat="43.35745" lon="2.58292">
        <ele>509.64</ele>
        <time>2012-09-20T11:34:08Z</time>
      </trkpt>
      <trkpt lat="43.35745" lon="2.58292">
        <ele>510.12</ele>
        <time>2012-09-20T11:34:31Z</time>
      </trkpt>
      <trkpt lat="43.35746" lon="2.58293">
        <ele>510.12</ele>
        <time>2012-09-20T11:34:52Z</time>
      </trkpt>
      <trkpt lat="43.35746" lon="2.58294">
        <ele>510.12</ele>
        <time>2012-09-20T11:35:13Z</time>
      </trkpt>
      <trkpt lat="43.35744" lon="2.58291">
        <ele>510.12</ele>
        <time>2012-09-20T11:35:35Z</time>
      </trkpt>
      <trkpt lat="43.35744" lon="2.58283">
        <ele>511.08</ele>
        <time>2012-09-20T11:35:46Z</time>
      </trkpt>
      <trkpt lat="43.35744" lon="2.58269">
        <ele>513</ele>
        <time>2012-09-20T11:35:59Z</time>
      </trkpt>
      <trkpt lat="43.35745" lon="2.58257">
        <ele>514.44</ele>
        <time>2012-09-20T11:36:11Z</time>
      </trkpt>
      <trkpt lat="43.35745" lon="2.58251">
        <ele>514.92</ele>
        <time>2012-09-20T11:36:18Z</time>
      </trkpt>
      <trkpt lat="43.35747" lon="2.58236">
        <ele>516.85</ele>
        <time>2012-09-20T11:36:32Z</time>
      </trkpt>
      <trkpt lat="43.35748" lon="2.58222">
        <ele>517.81</ele>
        <time>2012-09-20T11:36:44Z</time>
      </trkpt>
      <trkpt lat="43.35749" lon="2.58208">
        <ele>519.25</ele>
        <time>2012-09-20T11:36:56Z</time>
      </trkpt>
      <trkpt lat="43.35748" lon="2.58196">
        <ele>520.21</ele>
        <time>2012-09-20T11:37:07Z</time>
      </trkpt>
      <trkpt lat="43.35748" lon="2.58185">
        <ele>522.13</ele>
        <time>2012-09-20T11:37:21Z</time>
      </trkpt>
      <trkpt lat="43.35747" lon="2.58185">
        <ele>521.65</ele>
        <time>2012-09-20T11:37:38Z</time>
      </trkpt>
      <trkpt lat="43.35748" lon="2.58182">
        <ele>522.13</ele>
        <time>2012-09-20T11:38:02Z</time>
      </trkpt>
      <trkpt lat="43.35749" lon="2.58171">
        <ele>523.58</ele>
        <time>2012-09-20T11:38:13Z</time>
      </trkpt>
      <trkpt lat="43.35751" lon="2.58161">
        <ele>524.54</ele>
        <time>2012-09-20T11:38:22Z</time>
      </trkpt>
      <trkpt lat="43.35752" lon="2.58153">
        <ele>525.5</ele>
        <time>2012-09-20T11:38:29Z</time>
      </trkpt>
      <trkpt lat="43.35751" lon="2.58147">
        <ele>526.46</ele>
        <time>2012-09-20T11:38:34Z</time>
      </trkpt>
      <trkpt lat="43.35751" lon="2.58142">
        <ele>526.46</ele>
        <time>2012-09-20T11:38:38Z</time>
      </trkpt>
      <trkpt lat="43.35751" lon="2.58136">
        <ele>526.46</ele>
        <time>2012-09-20T11:38:42Z</time>
      </trkpt>
      <trkpt lat="43.3575" lon="2.58133">
        <ele>526.46</ele>
        <time>2012-09-20T11:38:44Z</time>
      </trkpt>
      <trkpt lat="43.35749" lon="2.58121">
        <ele>527.9</ele>
        <time>2012-09-20T11:38:56Z</time>
      </trkpt>
      <trkpt lat="43.3575" lon="2.5811">
        <ele>529.82</ele>
        <time>2012-09-20T11:39:09Z</time>
      </trkpt>
      <trkpt lat="43.35749" lon="2.58102">
        <ele>530.79</ele>
        <time>2012-09-20T11:39:16Z</time>
      </trkpt>
      <trkpt lat="43.35749" lon="2.58093">
        <ele>532.23</ele>
        <time>2012-09-20T11:39:29Z</time>
      </trkpt>
      <trkpt lat="43.35749" lon="2.58092">
        <ele>531.75</ele>
        <time>2012-09-20T11:39:46Z</time>
      </trkpt>
      <trkpt lat="43.35749" lon="2.58087">
        <ele>532.23</ele>
        <time>2012-09-20T11:40:05Z</time>
      </trkpt>
      <trkpt lat="43.35748" lon="2.58078">
        <ele>534.15</ele>
        <time>2012-09-20T11:40:16Z</time>
      </trkpt>
      <trkpt lat="43.35744" lon="2.58062">
        <ele>536.07</ele>
        <time>2012-09-20T11:40:29Z</time>
      </trkpt>
      <trkpt lat="43.35744" lon="2.5806">
        <ele>536.07</ele>
        <time>2012-09-20T11:40:31Z</time>
      </trkpt>
      <trkpt lat="43.35743" lon="2.58057">
        <ele>537.03</ele>
        <time>2012-09-20T11:40:34Z</time>
      </trkpt>
      <trkpt lat="43.35742" lon="2.58039">
        <ele>538.48</ele>
        <time>2012-09-20T11:40:47Z</time>
      </trkpt>
      <trkpt lat="43.35741" lon="2.58031">
        <ele>539.44</ele>
        <time>2012-09-20T11:40:53Z</time>
      </trkpt>
      <trkpt lat="43.35741" lon="2.58026">
        <ele>539.44</ele>
        <time>2012-09-20T11:40:57Z</time>
      </trkpt>
      <trkpt lat="43.35742" lon="2.58022">
        <ele>539.92</ele>
        <time>2012-09-20T11:41:00Z</time>
      </trkpt>
      <trkpt lat="43.35741" lon="2.58">
        <ele>540.88</ele>
        <time>2012-09-20T11:41:13Z</time>
      </trkpt>
      <trkpt lat="43.35741" lon="2.57995">
        <ele>541.36</ele>
        <time>2012-09-20T11:41:16Z</time>
      </trkpt>
      <trkpt lat="43.3574" lon="2.57983">
        <ele>541.84</ele>
        <time>2012-09-20T11:41:23Z</time>
      </trkpt>
      <trkpt lat="43.35746" lon="2.57962">
        <ele>543.76</ele>
        <time>2012-09-20T11:41:38Z</time>
      </trkpt>
      <trkpt lat="43.35746" lon="2.5796">
        <ele>544.24</ele>
        <time>2012-09-20T11:41:40Z</time>
      </trkpt>
      <trkpt lat="43.35744" lon="2.57945">
        <ele>545.69</ele>
        <time>2012-09-20T11:41:51Z</time>
      </trkpt>
      <trkpt lat="43.35744" lon="2.5794">
        <ele>546.17</ele>
        <time>2012-09-20T11:41:54Z</time>
      </trkpt>
      <trkpt lat="43.35743" lon="2.57925">
        <ele>548.09</ele>
        <time>2012-09-20T11:42:07Z</time>
      </trkpt>
      <trkpt lat="43.35742" lon="2.57921">
        <ele>548.09</ele>
        <time>2012-09-20T11:42:10Z</time>
      </trkpt>
      <trkpt lat="43.35738" lon="2.57904">
        <ele>548.57</ele>
        <time>2012-09-20T11:42:22Z</time>
      </trkpt>
      <trkpt lat="43.35737" lon="2.57897">
        <ele>549.53</ele>
        <time>2012-09-20T11:42:27Z</time>
      </trkpt>
      <trkpt lat="43.35736" lon="2.57878">
        <ele>550.49</ele>
        <time>2012-09-20T11:42:40Z</time>
      </trkpt>
      <trkpt lat="43.35734" lon="2.57857">
        <ele>551.45</ele>
        <time>2012-09-20T11:42:55Z</time>
      </trkpt>
      <trkpt lat="43.35736" lon="2.57841">
        <ele>551.45</ele>
        <time>2012-09-20T11:43:07Z</time>
      </trkpt>
      <trkpt lat="43.35735" lon="2.57835">
        <ele>552.41</ele>
        <time>2012-09-20T11:43:11Z</time>
      </trkpt>
      <trkpt lat="43.35731" lon="2.57827">
        <ele>551.45</ele>
        <time>2012-09-20T11:43:17Z</time>
      </trkpt>
      <trkpt lat="43.35734" lon="2.5781">
        <ele>553.38</ele>
        <time>2012-09-20T11:43:30Z</time>
      </trkpt>
      <trkpt lat="43.35736" lon="2.578">
        <ele>554.34</ele>
        <time>2012-09-20T11:43:43Z</time>
      </trkpt>
      <trkpt lat="43.35736" lon="2.578">
        <ele>554.34</ele>
        <time>2012-09-20T11:44:04Z</time>
      </trkpt>
      <trkpt lat="43.35736" lon="2.57798">
        <ele>553.86</ele>
        <time>2012-09-20T11:44:19Z</time>
      </trkpt>
      <trkpt lat="43.35737" lon="2.5779">
        <ele>554.34</ele>
        <time>2012-09-20T11:44:28Z</time>
      </trkpt>
      <trkpt lat="43.35735" lon="2.5778">
        <ele>555.3</ele>
        <time>2012-09-20T11:44:37Z</time>
      </trkpt>
      <trkpt lat="43.35741" lon="2.57769">
        <ele>556.74</ele>
        <time>2012-09-20T11:44:51Z</time>
      </trkpt>
      <trkpt lat="43.35743" lon="2.57759">
        <ele>558.66</ele>
        <time>2012-09-20T11:45:01Z</time>
      </trkpt>
      <trkpt lat="43.35746" lon="2.57742">
        <ele>559.62</ele>
        <time>2012-09-20T11:45:16Z</time>
      </trkpt>
      <trkpt lat="43.35742" lon="2.57724">
        <ele>559.14</ele>
        <time>2012-09-20T11:45:30Z</time>
      </trkpt>
      <trkpt lat="43.35738" lon="2.57715">
        <ele>558.18</ele>
        <time>2012-09-20T11:45:42Z</time>
      </trkpt>
      <trkpt lat="43.35738" lon="2.57713">
        <ele>558.18</ele>
        <time>2012-09-20T11:45:46Z</time>
      </trkpt>
      <trkpt lat="43.35739" lon="2.57707">
        <ele>559.14</ele>
        <time>2012-09-20T11:46:02Z</time>
      </trkpt>
      <trkpt lat="43.3574" lon="2.57694">
        <ele>559.14</ele>
        <time>2012-09-20T11:46:14Z</time>
      </trkpt>
      <trkpt lat="43.35744" lon="2.57688">
        <ele>560.11</ele>
        <time>2012-09-20T11:46:24Z</time>
      </trkpt>
      <trkpt lat="43.35745" lon="2.57686">
        <ele>560.59</ele>
        <time>2012-09-20T11:46:28Z</time>
      </trkpt>
      <trkpt lat="43.35747" lon="2.57685">
        <ele>561.55</ele>
        <time>2012-09-20T11:46:32Z</time>
      </trkpt>
      <trkpt lat="43.3575" lon="2.57688">
        <ele>561.55</ele>
        <time>2012-09-20T11:46:36Z</time>
      </trkpt>
      <trkpt lat="43.35758" lon="2.57701">
        <ele>562.99</ele>
        <time>2012-09-20T11:46:51Z</time>
      </trkpt>
      <trkpt lat="43.35761" lon="2.5771">
        <ele>563.95</ele>
        <time>2012-09-20T11:47:04Z</time>
      </trkpt>
      <trkpt lat="43.35761" lon="2.5771">
        <ele>563.47</ele>
        <time>2012-09-20T11:47:26Z</time>
      </trkpt>
      <trkpt lat="43.35761" lon="2.57712">
        <ele>563.95</ele>
        <time>2012-09-20T11:47:48Z</time>
      </trkpt>
      <trkpt lat="43.35761" lon="2.57711">
        <ele>564.43</ele>
        <time>2012-09-20T11:48:04Z</time>
      </trkpt>
      <trkpt lat="43.35763" lon="2.57718">
        <ele>564.43</ele>
        <time>2012-09-20T11:48:27Z</time>
      </trkpt>
      <trkpt lat="43.35764" lon="2.5772">
        <ele>563.95</ele>
        <time>2012-09-20T11:48:29Z</time>
      </trkpt>
      <trkpt lat="43.35765" lon="2.57724">
        <ele>564.91</ele>
        <time>2012-09-20T11:48:42Z</time>
      </trkpt>
      <trkpt lat="43.35764" lon="2.57723">
        <ele>565.39</ele>
        <time>2012-09-20T11:48:50Z</time>
      </trkpt>
      <trkpt lat="43.35764" lon="2.57722">
        <ele>565.39</ele>
        <time>2012-09-20T11:48:55Z</time>
      </trkpt>
      <trkpt lat="43.35764" lon="2.57726">
        <ele>564.43</ele>
        <time>2012-09-20T11:49:03Z</time>
      </trkpt>
      <trkpt lat="43.35769" lon="2.57735">
        <ele>566.35</ele>
        <time>2012-09-20T11:49:13Z</time>
      </trkpt>
      <trkpt lat="43.3577" lon="2.57738">
        <ele>567.32</ele>
        <time>2012-09-20T11:49:18Z</time>
      </trkpt>
      <trkpt lat="43.35771" lon="2.5774">
        <ele>566.83</ele>
        <time>2012-09-20T11:49:20Z</time>
      </trkpt>
      <trkpt lat="43.35773" lon="2.57744">
        <ele>567.32</ele>
        <time>2012-09-20T11:49:24Z</time>
      </trkpt>
      <trkpt lat="43.35781" lon="2.57752">
        <ele>568.76</ele>
        <time>2012-09-20T11:49:39Z</time>
      </trkpt>
      <trkpt lat="43.35789" lon="2.57759">
        <ele>570.2</ele>
        <time>2012-09-20T11:49:52Z</time>
      </trkpt>
      <trkpt lat="43.3579" lon="2.57759">
        <ele>569.72</ele>
        <time>2012-09-20T11:49:54Z</time>
      </trkpt>
      <trkpt lat="43.35801" lon="2.57754">
        <ele>572.6</ele>
        <time>2012-09-20T11:50:09Z</time>
      </trkpt>
      <trkpt lat="43.35811" lon="2.57752">
        <ele>574.53</ele>
        <time>2012-09-20T11:50:22Z</time>
      </trkpt>
      <trkpt lat="43.35816" lon="2.57754">
        <ele>574.53</ele>
        <time>2012-09-20T11:50:29Z</time>
      </trkpt>
      <trkpt lat="43.35823" lon="2.57765">
        <ele>575.49</ele>
        <time>2012-09-20T11:50:41Z</time>
      </trkpt>
      <trkpt lat="43.35828" lon="2.57769">
        <ele>575.97</ele>
        <time>2012-09-20T11:50:49Z</time>
      </trkpt>
      <trkpt lat="43.35831" lon="2.57771">
        <ele>576.45</ele>
        <time>2012-09-20T11:50:52Z</time>
      </trkpt>
      <trkpt lat="43.35842" lon="2.57777">
        <ele>577.89</ele>
        <time>2012-09-20T11:51:05Z</time>
      </trkpt>
      <trkpt lat="43.35844" lon="2.57777">
        <ele>578.37</ele>
        <time>2012-09-20T11:51:07Z</time>
      </trkpt>
      <trkpt lat="43.3585" lon="2.57781">
        <ele>578.85</ele>
        <time>2012-09-20T11:51:13Z</time>
      </trkpt>
      <trkpt lat="43.35853" lon="2.5778">
        <ele>579.81</ele>
        <time>2012-09-20T11:51:17Z</time>
      </trkpt>
      <trkpt lat="43.35862" lon="2.57774">
        <ele>581.25</ele>
        <time>2012-09-20T11:51:30Z</time>
      </trkpt>
      <trkpt lat="43.35865" lon="2.57775">
        <ele>582.22</ele>
        <time>2012-09-20T11:51:33Z</time>
      </trkpt>
      <trkpt lat="43.35869" lon="2.57775">
        <ele>582.22</ele>
        <time>2012-09-20T11:51:38Z</time>
      </trkpt>
      <trkpt lat="43.35872" lon="2.57775">
        <ele>582.22</ele>
        <time>2012-09-20T11:51:40Z</time>
      </trkpt>
      <trkpt lat="43.35874" lon="2.57775">
        <ele>583.18</ele>
        <time>2012-09-20T11:51:43Z</time>
      </trkpt>
      <trkpt lat="43.35875" lon="2.57773">
        <ele>583.18</ele>
        <time>2012-09-20T11:51:45Z</time>
      </trkpt>
      <trkpt lat="43.35877" lon="2.57772">
        <ele>583.66</ele>
        <time>2012-09-20T11:51:47Z</time>
      </trkpt>
      <trkpt lat="43.3589" lon="2.57764">
        <ele>586.06</ele>
        <time>2012-09-20T11:52:01Z</time>
      </trkpt>
      <trkpt lat="43.35897" lon="2.5776">
        <ele>586.54</ele>
        <time>2012-09-20T11:52:10Z</time>
      </trkpt>
      <trkpt lat="43.35901" lon="2.57757">
        <ele>586.54</ele>
        <time>2012-09-20T11:52:14Z</time>
      </trkpt>
      <trkpt lat="43.35911" lon="2.57749">
        <ele>588.46</ele>
        <time>2012-09-20T11:52:26Z</time>
      </trkpt>
      <trkpt lat="43.35912" lon="2.57747">
        <ele>588.46</ele>
        <time>2012-09-20T11:52:28Z</time>
      </trkpt>
      <trkpt lat="43.35913" lon="2.57744">
        <ele>588.95</ele>
        <time>2012-09-20T11:52:30Z</time>
      </trkpt>
      <trkpt lat="43.35917" lon="2.57736">
        <ele>588.95</ele>
        <time>2012-09-20T11:52:36Z</time>
      </trkpt>
      <trkpt lat="43.35925" lon="2.57722">
        <ele>589.43</ele>
        <time>2012-09-20T11:52:50Z</time>
      </trkpt>
      <trkpt lat="43.35931" lon="2.57709">
        <ele>589.43</ele>
        <time>2012-09-20T11:53:05Z</time>
      </trkpt>
      <trkpt lat="43.35936" lon="2.57706">
        <ele>589.43</ele>
        <time>2012-09-20T11:53:11Z</time>
      </trkpt>
      <trkpt lat="43.35944" lon="2.57701">
        <ele>589.43</ele>
        <time>2012-09-20T11:53:21Z</time>
      </trkpt>
      <trkpt lat="43.35948" lon="2.57694">
        <ele>589.43</ele>
        <time>2012-09-20T11:53:36Z</time>
      </trkpt>
      <trkpt lat="43.35955" lon="2.57676">
        <ele>588.95</ele>
        <time>2012-09-20T11:53:49Z</time>
      </trkpt>
      <trkpt lat="43.3596" lon="2.57658">
        <ele>588.46</ele>
        <time>2012-09-20T11:54:03Z</time>
      </trkpt>
      <trkpt lat="43.35963" lon="2.57643">
        <ele>588.46</ele>
        <time>2012-09-20T11:54:13Z</time>
      </trkpt>
      <trkpt lat="43.35965" lon="2.57639">
        <ele>587.98</ele>
        <time>2012-09-20T11:54:16Z</time>
      </trkpt>
      <trkpt lat="43.35965" lon="2.57621">
        <ele>587.5</ele>
        <time>2012-09-20T11:54:29Z</time>
      </trkpt>
      <trkpt lat="43.35965" lon="2.57602">
        <ele>586.54</ele>
        <time>2012-09-20T11:54:43Z</time>
      </trkpt>
      <trkpt lat="43.35965" lon="2.57596">
        <ele>586.06</ele>
        <time>2012-09-20T11:54:48Z</time>
      </trkpt>
      <trkpt lat="43.35968" lon="2.57583">
        <ele>586.54</ele>
        <time>2012-09-20T11:55:00Z</time>
      </trkpt>
      <trkpt lat="43.35969" lon="2.57571">
        <ele>585.1</ele>
        <time>2012-09-20T11:55:11Z</time>
      </trkpt>
      <trkpt lat="43.35969" lon="2.57568">
        <ele>585.58</ele>
        <time>2012-09-20T11:55:14Z</time>
      </trkpt>
      <trkpt lat="43.35969" lon="2.5756">
        <ele>585.58</ele>
        <time>2012-09-20T11:55:20Z</time>
      </trkpt>
      <trkpt lat="43.3597" lon="2.57556">
        <ele>585.58</ele>
        <time>2012-09-20T11:55:23Z</time>
      </trkpt>
      <trkpt lat="43.35972" lon="2.5755">
        <ele>585.58</ele>
        <time>2012-09-20T11:55:27Z</time>
      </trkpt>
      <trkpt lat="43.35973" lon="2.57545">
        <ele>586.06</ele>
        <time>2012-09-20T11:55:30Z</time>
      </trkpt>
      <trkpt lat="43.3598" lon="2.57534">
        <ele>586.06</ele>
        <time>2012-09-20T11:55:45Z</time>
      </trkpt>
      <trkpt lat="43.35982" lon="2.57531">
        <ele>586.06</ele>
        <time>2012-09-20T11:56:07Z</time>
      </trkpt>
      <trkpt lat="43.35988" lon="2.57527">
        <ele>586.54</ele>
        <time>2012-09-20T11:56:19Z</time>
      </trkpt>
      <trkpt lat="43.3599" lon="2.57527">
        <ele>586.54</ele>
        <time>2012-09-20T11:56:21Z</time>
      </trkpt>
      <trkpt lat="43.36" lon="2.57522">
        <ele>587.02</ele>
        <time>2012-09-20T11:56:34Z</time>
      </trkpt>
      <trkpt lat="43.36007" lon="2.57523">
        <ele>587.02</ele>
        <time>2012-09-20T11:56:41Z</time>
      </trkpt>
      <trkpt lat="43.36009" lon="2.57521">
        <ele>587.02</ele>
        <time>2012-09-20T11:56:43Z</time>
      </trkpt>
      <trkpt lat="43.3601" lon="2.57518">
        <ele>587.98</ele>
        <time>2012-09-20T11:56:45Z</time>
      </trkpt>
      <trkpt lat="43.36018" lon="2.57511">
        <ele>586.54</ele>
        <time>2012-09-20T11:56:58Z</time>
      </trkpt>
      <trkpt lat="43.36021" lon="2.57505">
        <ele>586.54</ele>
        <time>2012-09-20T11:57:08Z</time>
      </trkpt>
      <trkpt lat="43.36021" lon="2.57503">
        <ele>586.54</ele>
        <time>2012-09-20T11:57:10Z</time>
      </trkpt>
      <trkpt lat="43.36021" lon="2.5749">
        <ele>587.5</ele>
        <time>2012-09-20T11:57:21Z</time>
      </trkpt>
      <trkpt lat="43.3602" lon="2.57481">
        <ele>587.98</ele>
        <time>2012-09-20T11:57:28Z</time>
      </trkpt>
      <trkpt lat="43.36025" lon="2.57473">
        <ele>588.46</ele>
        <time>2012-09-20T11:57:36Z</time>
      </trkpt>
      <trkpt lat="43.36028" lon="2.57468">
        <ele>588.95</ele>
        <time>2012-09-20T11:57:41Z</time>
      </trkpt>
      <trkpt lat="43.36035" lon="2.57461">
        <ele>588.95</ele>
        <time>2012-09-20T11:57:51Z</time>
      </trkpt>
      <trkpt lat="43.36036" lon="2.57459">
        <ele>589.43</ele>
        <time>2012-09-20T11:57:53Z</time>
      </trkpt>
      <trkpt lat="43.36037" lon="2.57456">
        <ele>589.43</ele>
        <time>2012-09-20T11:57:55Z</time>
      </trkpt>
      <trkpt lat="43.36043" lon="2.57443">
        <ele>589.43</ele>
        <time>2012-09-20T11:58:08Z</time>
      </trkpt>
      <trkpt lat="43.36041" lon="2.57432">
        <ele>590.39</ele>
        <time>2012-09-20T11:58:18Z</time>
      </trkpt>
      <trkpt lat="43.36041" lon="2.57414">
        <ele>591.35</ele>
        <time>2012-09-20T11:58:32Z</time>
      </trkpt>
      <trkpt lat="43.36042" lon="2.5741">
        <ele>591.35</ele>
        <time>2012-09-20T11:58:35Z</time>
      </trkpt>
      <trkpt lat="43.36047" lon="2.57399">
        <ele>592.31</ele>
        <time>2012-09-20T11:58:44Z</time>
      </trkpt>
      <trkpt lat="43.36063" lon="2.57392">
        <ele>593.27</ele>
        <time>2012-09-20T11:59:00Z</time>
      </trkpt>
      <trkpt lat="43.36064" lon="2.57391">
        <ele>592.79</ele>
        <time>2012-09-20T11:59:01Z</time>
      </trkpt>
      <trkpt lat="43.36069" lon="2.5739">
        <ele>592.79</ele>
        <time>2012-09-20T11:59:06Z</time>
      </trkpt>
      <trkpt lat="43.36072" lon="2.57392">
        <ele>592.79</ele>
        <time>2012-09-20T11:59:09Z</time>
      </trkpt>
      <trkpt lat="43.36082" lon="2.57387">
        <ele>591.83</ele>
        <time>2012-09-20T11:59:22Z</time>
      </trkpt>
      <trkpt lat="43.36086" lon="2.57384">
        <ele>592.31</ele>
        <time>2012-09-20T11:59:26Z</time>
      </trkpt>
      <trkpt lat="43.36092" lon="2.57378">
        <ele>592.31</ele>
        <time>2012-09-20T11:59:34Z</time>
      </trkpt>
      <trkpt lat="43.36107" lon="2.57373">
        <ele>592.79</ele>
        <time>2012-09-20T11:59:49Z</time>
      </trkpt>
      <trkpt lat="43.36114" lon="2.57372">
        <ele>592.79</ele>
        <time>2012-09-20T11:59:55Z</time>
      </trkpt>
      <trkpt lat="43.36119" lon="2.57369">
        <ele>592.79</ele>
        <time>2012-09-20T12:00:00Z</time>
      </trkpt>
      <trkpt lat="43.36121" lon="2.57367">
        <ele>592.79</ele>
        <time>2012-09-20T12:00:02Z</time>
      </trkpt>
      <trkpt lat="43.36124" lon="2.57361">
        <ele>592.79</ele>
        <time>2012-09-20T12:00:07Z</time>
      </trkpt>
      <trkpt lat="43.36126" lon="2.5736">
        <ele>592.79</ele>
        <time>2012-09-20T12:00:09Z</time>
      </trkpt>
      <trkpt lat="43.36132" lon="2.57349">
        <ele>592.79</ele>
        <time>2012-09-20T12:00:19Z</time>
      </trkpt>
      <trkpt lat="43.36135" lon="2.57338">
        <ele>592.31</ele>
        <time>2012-09-20T12:00:29Z</time>
      </trkpt>
      <trkpt lat="43.36136" lon="2.57332">
        <ele>592.79</ele>
        <time>2012-09-20T12:00:33Z</time>
      </trkpt>
      <trkpt lat="43.36137" lon="2.57327">
        <ele>592.31</ele>
        <time>2012-09-20T12:00:37Z</time>
      </trkpt>
      <trkpt lat="43.36138" lon="2.57323">
        <ele>592.31</ele>
        <time>2012-09-20T12:00:40Z</time>
      </trkpt>
      <trkpt lat="43.36138" lon="2.5732">
        <ele>592.31</ele>
        <time>2012-09-20T12:00:42Z</time>
      </trkpt>
      <trkpt lat="43.36139" lon="2.57312">
        <ele>592.31</ele>
        <time>2012-09-20T12:00:47Z</time>
      </trkpt>
      <trkpt lat="43.36143" lon="2.57294">
        <ele>592.79</ele>
        <time>2012-09-20T12:01:01Z</time>
      </trkpt>
      <trkpt lat="43.36143" lon="2.57288">
        <ele>592.79</ele>
        <time>2012-09-20T12:01:05Z</time>
      </trkpt>
      <trkpt lat="43.36145" lon="2.57277">
        <ele>592.79</ele>
        <time>2012-09-20T12:01:12Z</time>
      </trkpt>
      <trkpt lat="43.36147" lon="2.57268">
        <ele>592.79</ele>
        <time>2012-09-20T12:01:18Z</time>
      </trkpt>
      <trkpt lat="43.36153" lon="2.57252">
        <ele>593.27</ele>
        <time>2012-09-20T12:01:33Z</time>
      </trkpt>
      <trkpt lat="43.36159" lon="2.57238">
        <ele>593.27</ele>
        <time>2012-09-20T12:01:44Z</time>
      </trkpt>
      <trkpt lat="43.36165" lon="2.57227">
        <ele>593.75</ele>
        <time>2012-09-20T12:01:58Z</time>
      </trkpt>
      <trkpt lat="43.36166" lon="2.57225">
        <ele>593.75</ele>
        <time>2012-09-20T12:02:13Z</time>
      </trkpt>
      <trkpt lat="43.36166" lon="2.57219">
        <ele>593.75</ele>
        <time>2012-09-20T12:02:23Z</time>
      </trkpt>
      <trkpt lat="43.36164" lon="2.57216">
        <ele>594.71</ele>
        <time>2012-09-20T12:02:38Z</time>
      </trkpt>
      <trkpt lat="43.36165" lon="2.57217">
        <ele>594.23</ele>
        <time>2012-09-20T12:02:52Z</time>
      </trkpt>
      <trkpt lat="43.36163" lon="2.57215">
        <ele>594.71</ele>
        <time>2012-09-20T12:03:07Z</time>
      </trkpt>
      <trkpt lat="43.36161" lon="2.57207">
        <ele>596.15</ele>
        <time>2012-09-20T12:03:17Z</time>
      </trkpt>
      <trkpt lat="43.3616" lon="2.57203">
        <ele>596.15</ele>
        <time>2012-09-20T12:03:26Z</time>
      </trkpt>
      <trkpt lat="43.3616" lon="2.57201">
        <ele>597.6</ele>
        <time>2012-09-20T12:03:31Z</time>
      </trkpt>
      <trkpt lat="43.36162" lon="2.572">
        <ele>597.6</ele>
        <time>2012-09-20T12:03:42Z</time>
      </trkpt>
      <trkpt lat="43.36162" lon="2.57199">
        <ele>597.12</ele>
        <time>2012-09-20T12:04:01Z</time>
      </trkpt>
      <trkpt lat="43.36163" lon="2.57199">
        <ele>597.6</ele>
        <time>2012-09-20T12:04:08Z</time>
      </trkpt>
      <trkpt lat="43.36166" lon="2.57192">
        <ele>596.64</ele>
        <time>2012-09-20T12:04:17Z</time>
      </trkpt>
      <trkpt lat="43.36167" lon="2.57188">
        <ele>597.12</ele>
        <time>2012-09-20T12:04:21Z</time>
      </trkpt>
      <trkpt lat="43.36165" lon="2.57173">
        <ele>599.04</ele>
        <time>2012-09-20T12:04:35Z</time>
      </trkpt>
      <trkpt lat="43.36165" lon="2.57164">
        <ele>600.48</ele>
        <time>2012-09-20T12:04:44Z</time>
      </trkpt>
      <trkpt lat="43.36166" lon="2.57154">
        <ele>600.48</ele>
        <time>2012-09-20T12:04:53Z</time>
      </trkpt>
      <trkpt lat="43.36173" lon="2.57141">
        <ele>600.48</ele>
        <time>2012-09-20T12:05:04Z</time>
      </trkpt>
      <trkpt lat="43.36182" lon="2.57128">
        <ele>601.44</ele>
        <time>2012-09-20T12:05:18Z</time>
      </trkpt>
      <trkpt lat="43.36189" lon="2.57116">
        <ele>602.4</ele>
        <time>2012-09-20T12:05:29Z</time>
      </trkpt>
      <trkpt lat="43.36197" lon="2.57109">
        <ele>603.36</ele>
        <time>2012-09-20T12:05:42Z</time>
      </trkpt>
      <trkpt lat="43.36199" lon="2.57103">
        <ele>603.36</ele>
        <time>2012-09-20T12:05:59Z</time>
      </trkpt>
      <trkpt lat="43.36199" lon="2.57103">
        <ele>602.88</ele>
        <time>2012-09-20T12:06:14Z</time>
      </trkpt>
      <trkpt lat="43.36199" lon="2.57103">
        <ele>602.88</ele>
        <time>2012-09-20T12:06:15Z</time>
      </trkpt>
      <trkpt lat="43.362" lon="2.57104">
        <ele>601.92</ele>
        <time>2012-09-20T12:06:33Z</time>
      </trkpt>
      <trkpt lat="43.36199" lon="2.57104">
        <ele>602.88</ele>
        <time>2012-09-20T12:07:03Z</time>
      </trkpt>
      <trkpt lat="43.36199" lon="2.57099">
        <ele>601.44</ele>
        <time>2012-09-20T12:07:17Z</time>
      </trkpt>
      <trkpt lat="43.36199" lon="2.57098">
        <ele>600.96</ele>
        <time>2012-09-20T12:07:39Z</time>
      </trkpt>
      <trkpt lat="43.36198" lon="2.57099">
        <ele>600.96</ele>
        <time>2012-09-20T12:07:43Z</time>
      </trkpt>
      <trkpt lat="43.362" lon="2.57098">
        <ele>601.44</ele>
        <time>2012-09-20T12:07:57Z</time>
      </trkpt>
      <trkpt lat="43.36201" lon="2.57099">
        <ele>601.92</ele>
        <time>2012-09-20T12:08:13Z</time>
      </trkpt>
      <trkpt lat="43.36201" lon="2.571">
        <ele>602.88</ele>
        <time>2012-09-20T12:08:27Z</time>
      </trkpt>
      <trkpt lat="43.362" lon="2.57099">
        <ele>602.88</ele>
        <time>2012-09-20T12:08:41Z</time>
      </trkpt>
      <trkpt lat="43.362" lon="2.57099">
        <ele>602.4</ele>
        <time>2012-09-20T12:09:03Z</time>
      </trkpt>
      <trkpt lat="43.36199" lon="2.571">
        <ele>602.4</ele>
        <time>2012-09-20T12:09:17Z</time>
      </trkpt>
      <trkpt lat="43.36199" lon="2.57097">
        <ele>603.85</ele>
        <time>2012-09-20T12:09:32Z</time>
      </trkpt>
      <trkpt lat="43.36198" lon="2.57095">
        <ele>604.33</ele>
        <time>2012-09-20T12:09:43Z</time>
      </trkpt>
      <trkpt lat="43.36199" lon="2.57092">
        <ele>603.85</ele>
        <time>2012-09-20T12:10:06Z</time>
      </trkpt>
      <trkpt lat="43.36201" lon="2.57088">
        <ele>603.85</ele>
        <time>2012-09-20T12:10:13Z</time>
      </trkpt>
      <trkpt lat="43.36204" lon="2.57076">
        <ele>604.33</ele>
        <time>2012-09-20T12:10:26Z</time>
      </trkpt>
      <trkpt lat="43.36204" lon="2.57069">
        <ele>604.33</ele>
        <time>2012-09-20T12:10:37Z</time>
      </trkpt>
      <trkpt lat="43.36205" lon="2.57066">
        <ele>604.81</ele>
        <time>2012-09-20T12:10:53Z</time>
      </trkpt>
      <trkpt lat="43.36206" lon="2.57063">
        <ele>604.33</ele>
        <time>2012-09-20T12:11:04Z</time>
      </trkpt>
      <trkpt lat="43.36206" lon="2.57062">
        <ele>603.85</ele>
        <time>2012-09-20T12:11:20Z</time>
      </trkpt>
      <trkpt lat="43.36204" lon="2.57054">
        <ele>603.36</ele>
        <time>2012-09-20T12:11:35Z</time>
      </trkpt>
      <trkpt lat="43.36202" lon="2.57049">
        <ele>602.88</ele>
        <time>2012-09-20T12:11:45Z</time>
      </trkpt>
      <trkpt lat="43.362" lon="2.57045">
        <ele>603.36</ele>
        <time>2012-09-20T12:11:52Z</time>
      </trkpt>
      <trkpt lat="43.36197" lon="2.57033">
        <ele>602.4</ele>
        <time>2012-09-20T12:12:05Z</time>
      </trkpt>
      <trkpt lat="43.36191" lon="2.57021">
        <ele>601.92</ele>
        <time>2012-09-20T12:12:17Z</time>
      </trkpt>
      <trkpt lat="43.36189" lon="2.57018">
        <ele>601.92</ele>
        <time>2012-09-20T12:12:20Z</time>
      </trkpt>
      <trkpt lat="43.36182" lon="2.57006">
        <ele>601.44</ele>
        <time>2012-09-20T12:12:33Z</time>
      </trkpt>
      <trkpt lat="43.36181" lon="2.56993">
        <ele>600.48</ele>
        <time>2012-09-20T12:12:45Z</time>
      </trkpt>
      <trkpt lat="43.36176" lon="2.56978">
        <ele>600</ele>
        <time>2012-09-20T12:12:59Z</time>
      </trkpt>
      <trkpt lat="43.36172" lon="2.56973">
        <ele>599.52</ele>
        <time>2012-09-20T12:13:08Z</time>
      </trkpt>
      <trkpt lat="43.36169" lon="2.56966">
        <ele>599.04</ele>
        <time>2012-09-20T12:13:14Z</time>
      </trkpt>
      <trkpt lat="43.36166" lon="2.56954">
        <ele>598.08</ele>
        <time>2012-09-20T12:13:24Z</time>
      </trkpt>
      <trkpt lat="43.36166" lon="2.56949">
        <ele>598.08</ele>
        <time>2012-09-20T12:13:28Z</time>
      </trkpt>
      <trkpt lat="43.36165" lon="2.56939">
        <ele>596.64</ele>
        <time>2012-09-20T12:13:40Z</time>
      </trkpt>
      <trkpt lat="43.36166" lon="2.56934">
        <ele>596.15</ele>
        <time>2012-09-20T12:13:43Z</time>
      </trkpt>
      <trkpt lat="43.36162" lon="2.5692">
        <ele>595.19</ele>
        <time>2012-09-20T12:13:56Z</time>
      </trkpt>
      <trkpt lat="43.36163" lon="2.56911">
        <ele>594.23</ele>
        <time>2012-09-20T12:14:08Z</time>
      </trkpt>
      <trkpt lat="43.36162" lon="2.56909">
        <ele>594.23</ele>
        <time>2012-09-20T12:14:10Z</time>
      </trkpt>
      <trkpt lat="43.36156" lon="2.56898">
        <ele>592.79</ele>
        <time>2012-09-20T12:14:22Z</time>
      </trkpt>
      <trkpt lat="43.36149" lon="2.56889">
        <ele>591.83</ele>
        <time>2012-09-20T12:14:33Z</time>
      </trkpt>
      <trkpt lat="43.36143" lon="2.5688">
        <ele>590.87</ele>
        <time>2012-09-20T12:14:44Z</time>
      </trkpt>
      <trkpt lat="43.3614" lon="2.56879">
        <ele>589.91</ele>
        <time>2012-09-20T12:14:48Z</time>
      </trkpt>
      <trkpt lat="43.36134" lon="2.56877">
        <ele>589.43</ele>
        <time>2012-09-20T12:14:55Z</time>
      </trkpt>
      <trkpt lat="43.36127" lon="2.5687">
        <ele>587.5</ele>
        <time>2012-09-20T12:15:05Z</time>
      </trkpt>
      <trkpt lat="43.36122" lon="2.56863">
        <ele>586.54</ele>
        <time>2012-09-20T12:15:16Z</time>
      </trkpt>
      <trkpt lat="43.36112" lon="2.56861">
        <ele>585.58</ele>
        <time>2012-09-20T12:15:28Z</time>
      </trkpt>
      <trkpt lat="43.3611" lon="2.5686">
        <ele>584.62</ele>
        <time>2012-09-20T12:15:30Z</time>
      </trkpt>
      <trkpt lat="43.36108" lon="2.56859">
        <ele>584.62</ele>
        <time>2012-09-20T12:15:32Z</time>
      </trkpt>
      <trkpt lat="43.36098" lon="2.56853">
        <ele>583.18</ele>
        <time>2012-09-20T12:15:47Z</time>
      </trkpt>
      <trkpt lat="43.36097" lon="2.56852">
        <ele>582.7</ele>
        <time>2012-09-20T12:15:51Z</time>
      </trkpt>
      <trkpt lat="43.36093" lon="2.56848">
        <ele>582.22</ele>
        <time>2012-09-20T12:15:56Z</time>
      </trkpt>
      <trkpt lat="43.3609" lon="2.56843">
        <ele>581.25</ele>
        <time>2012-09-20T12:16:01Z</time>
      </trkpt>
      <trkpt lat="43.36085" lon="2.5684">
        <ele>580.29</ele>
        <time>2012-09-20T12:16:06Z</time>
      </trkpt>
      <trkpt lat="43.36077" lon="2.56829">
        <ele>578.85</ele>
        <time>2012-09-20T12:16:18Z</time>
      </trkpt>
      <trkpt lat="43.3607" lon="2.56822">
        <ele>577.41</ele>
        <time>2012-09-20T12:16:29Z</time>
      </trkpt>
      <trkpt lat="43.36058" lon="2.56813">
        <ele>575.01</ele>
        <time>2012-09-20T12:16:43Z</time>
      </trkpt>
      <trkpt lat="43.36053" lon="2.56803">
        <ele>573.56</ele>
        <time>2012-09-20T12:16:55Z</time>
      </trkpt>
      <trkpt lat="43.36045" lon="2.56803">
        <ele>572.12</ele>
        <time>2012-09-20T12:17:07Z</time>
      </trkpt>
      <trkpt lat="43.36041" lon="2.56804">
        <ele>571.64</ele>
        <time>2012-09-20T12:17:11Z</time>
      </trkpt>
      <trkpt lat="43.36039" lon="2.56805">
        <ele>571.16</ele>
        <time>2012-09-20T12:17:15Z</time>
      </trkpt>
      <trkpt lat="43.3603" lon="2.56802">
        <ele>570.68</ele>
        <time>2012-09-20T12:17:29Z</time>
      </trkpt>
      <trkpt lat="43.36027" lon="2.56806">
        <ele>570.2</ele>
        <time>2012-09-20T12:17:35Z</time>
      </trkpt>
      <trkpt lat="43.36018" lon="2.5681">
        <ele>568.76</ele>
        <time>2012-09-20T12:17:47Z</time>
      </trkpt>
      <trkpt lat="43.3601" lon="2.56806">
        <ele>568.28</ele>
        <time>2012-09-20T12:17:58Z</time>
      </trkpt>
      <trkpt lat="43.36005" lon="2.56811">
        <ele>565.87</ele>
        <time>2012-09-20T12:18:10Z</time>
      </trkpt>
      <trkpt lat="43.35996" lon="2.56818">
        <ele>562.99</ele>
        <time>2012-09-20T12:18:24Z</time>
      </trkpt>
      <trkpt lat="43.35989" lon="2.56817">
        <ele>561.55</ele>
        <time>2012-09-20T12:18:33Z</time>
      </trkpt>
      <trkpt lat="43.35981" lon="2.56811">
        <ele>560.11</ele>
        <time>2012-09-20T12:18:47Z</time>
      </trkpt>
      <trkpt lat="43.35973" lon="2.56809">
        <ele>558.18</ele>
        <time>2012-09-20T12:18:58Z</time>
      </trkpt>
      <trkpt lat="43.35966" lon="2.56808">
        <ele>556.74</ele>
        <time>2012-09-20T12:19:10Z</time>
      </trkpt>
      <trkpt lat="43.3596" lon="2.56805">
        <ele>556.74</ele>
        <time>2012-09-20T12:19:16Z</time>
      </trkpt>
      <trkpt lat="43.35957" lon="2.56804">
        <ele>555.3</ele>
        <time>2012-09-20T12:19:28Z</time>
      </trkpt>
      <trkpt lat="43.35954" lon="2.56813">
        <ele>554.34</ele>
        <time>2012-09-20T12:19:41Z</time>
      </trkpt>
      <trkpt lat="43.35952" lon="2.56817">
        <ele>553.86</ele>
        <time>2012-09-20T12:19:51Z</time>
      </trkpt>
      <trkpt lat="43.35949" lon="2.56827">
        <ele>552.9</ele>
        <time>2012-09-20T12:19:59Z</time>
      </trkpt>
      <trkpt lat="43.35942" lon="2.56852">
        <ele>551.45</ele>
        <time>2012-09-20T12:20:16Z</time>
      </trkpt>
      <trkpt lat="43.35941" lon="2.56853">
        <ele>550.97</ele>
        <time>2012-09-20T12:20:18Z</time>
      </trkpt>
      <trkpt lat="43.35933" lon="2.56863">
        <ele>550.01</ele>
        <time>2012-09-20T12:20:28Z</time>
      </trkpt>
      <trkpt lat="43.3592" lon="2.56873">
        <ele>551.93</ele>
        <time>2012-09-20T12:20:42Z</time>
      </trkpt>
      <trkpt lat="43.35909" lon="2.56872">
        <ele>551.93</ele>
        <time>2012-09-20T12:20:50Z</time>
      </trkpt>
      <trkpt lat="43.35906" lon="2.56872">
        <ele>551.45</ele>
        <time>2012-09-20T12:20:52Z</time>
      </trkpt>
      <trkpt lat="43.35899" lon="2.56877">
        <ele>551.45</ele>
        <time>2012-09-20T12:20:59Z</time>
      </trkpt>
      <trkpt lat="43.35897" lon="2.56879">
        <ele>551.45</ele>
        <time>2012-09-20T12:21:02Z</time>
      </trkpt>
      <trkpt lat="43.35889" lon="2.56889">
        <ele>551.93</ele>
        <time>2012-09-20T12:21:12Z</time>
      </trkpt>
      <trkpt lat="43.35887" lon="2.56892">
        <ele>552.41</ele>
        <time>2012-09-20T12:21:15Z</time>
      </trkpt>
      <trkpt lat="43.35885" lon="2.569">
        <ele>552.9</ele>
        <time>2012-09-20T12:21:20Z</time>
      </trkpt>
      <trkpt lat="43.35885" lon="2.56909">
        <ele>552.9</ele>
        <time>2012-09-20T12:21:27Z</time>
      </trkpt>
      <trkpt lat="43.35883" lon="2.56916">
        <ele>553.86</ele>
        <time>2012-09-20T12:21:32Z</time>
      </trkpt>
      <trkpt lat="43.3588" lon="2.5692">
        <ele>553.86</ele>
        <time>2012-09-20T12:21:35Z</time>
      </trkpt>
      <trkpt lat="43.35872" lon="2.56928">
        <ele>555.3</ele>
        <time>2012-09-20T12:21:44Z</time>
      </trkpt>
      <trkpt lat="43.35871" lon="2.56935">
        <ele>556.26</ele>
        <time>2012-09-20T12:21:49Z</time>
      </trkpt>
      <trkpt lat="43.35871" lon="2.56937">
        <ele>556.26</ele>
        <time>2012-09-20T12:21:51Z</time>
      </trkpt>
      <trkpt lat="43.35869" lon="2.56942">
        <ele>557.22</ele>
        <time>2012-09-20T12:21:55Z</time>
      </trkpt>
      <trkpt lat="43.35866" lon="2.56949">
        <ele>558.18</ele>
        <time>2012-09-20T12:22:02Z</time>
      </trkpt>
      <trkpt lat="43.3586" lon="2.56964">
        <ele>560.11</ele>
        <time>2012-09-20T12:22:16Z</time>
      </trkpt>
      <trkpt lat="43.3585" lon="2.56975">
        <ele>562.51</ele>
        <time>2012-09-20T12:22:30Z</time>
      </trkpt>
      <trkpt lat="43.35849" lon="2.56975">
        <ele>562.51</ele>
        <time>2012-09-20T12:22:31Z</time>
      </trkpt>
      <trkpt lat="43.35841" lon="2.56987">
        <ele>565.39</ele>
        <time>2012-09-20T12:22:46Z</time>
      </trkpt>
      <trkpt lat="43.35833" lon="2.56996">
        <ele>566.83</ele>
        <time>2012-09-20T12:23:00Z</time>
      </trkpt>
      <trkpt lat="43.35824" lon="2.57003">
        <ele>567.8</ele>
        <time>2012-09-20T12:23:11Z</time>
      </trkpt>
      <trkpt lat="43.35813" lon="2.57013">
        <ele>568.76</ele>
        <time>2012-09-20T12:23:24Z</time>
      </trkpt>
      <trkpt lat="43.35811" lon="2.57018">
        <ele>569.24</ele>
        <time>2012-09-20T12:23:28Z</time>
      </trkpt>
      <trkpt lat="43.35798" lon="2.57028">
        <ele>570.2</ele>
        <time>2012-09-20T12:23:42Z</time>
      </trkpt>
      <trkpt lat="43.35786" lon="2.57031">
        <ele>570.68</ele>
        <time>2012-09-20T12:23:55Z</time>
      </trkpt>
      <trkpt lat="43.35774" lon="2.57028">
        <ele>571.16</ele>
        <time>2012-09-20T12:24:10Z</time>
      </trkpt>
      <trkpt lat="43.35769" lon="2.57023">
        <ele>571.16</ele>
        <time>2012-09-20T12:24:23Z</time>
      </trkpt>
      <trkpt lat="43.35757" lon="2.57023">
        <ele>571.16</ele>
        <time>2012-09-20T12:24:38Z</time>
      </trkpt>
      <trkpt lat="43.35751" lon="2.57017">
        <ele>571.16</ele>
        <time>2012-09-20T12:24:50Z</time>
      </trkpt>
      <trkpt lat="43.3574" lon="2.57008">
        <ele>571.16</ele>
        <time>2012-09-20T12:25:06Z</time>
      </trkpt>
      <trkpt lat="43.35738" lon="2.57008">
        <ele>569.24</ele>
        <time>2012-09-20T12:25:08Z</time>
      </trkpt>
      <trkpt lat="43.35734" lon="2.57">
        <ele>569.72</ele>
        <time>2012-09-20T12:25:19Z</time>
      </trkpt>
      <trkpt lat="43.35733" lon="2.56994">
        <ele>568.76</ele>
        <time>2012-09-20T12:25:23Z</time>
      </trkpt>
      <trkpt lat="43.35734" lon="2.56987">
        <ele>569.24</ele>
        <time>2012-09-20T12:25:28Z</time>
      </trkpt>
      <trkpt lat="43.35734" lon="2.5698">
        <ele>569.24</ele>
        <time>2012-09-20T12:25:32Z</time>
      </trkpt>
      <trkpt lat="43.35732" lon="2.56963">
        <ele>568.76</ele>
        <time>2012-09-20T12:25:43Z</time>
      </trkpt>
      <trkpt lat="43.35728" lon="2.56943">
        <ele>568.28</ele>
        <time>2012-09-20T12:25:55Z</time>
      </trkpt>
      <trkpt lat="43.3572" lon="2.56925">
        <ele>566.83</ele>
        <time>2012-09-20T12:26:07Z</time>
      </trkpt>
      <trkpt lat="43.35716" lon="2.56913">
        <ele>566.35</ele>
        <time>2012-09-20T12:26:15Z</time>
      </trkpt>
      <trkpt lat="43.35725" lon="2.5689">
        <ele>564.91</ele>
        <time>2012-09-20T12:26:29Z</time>
      </trkpt>
      <trkpt lat="43.35729" lon="2.56881">
        <ele>564.91</ele>
        <time>2012-09-20T12:26:34Z</time>
      </trkpt>
      <trkpt lat="43.35731" lon="2.56859">
        <ele>563.95</ele>
        <time>2012-09-20T12:26:46Z</time>
      </trkpt>
      <trkpt lat="43.35728" lon="2.56848">
        <ele>562.99</ele>
        <time>2012-09-20T12:26:53Z</time>
      </trkpt>
      <trkpt lat="43.35722" lon="2.56835">
        <ele>562.03</ele>
        <time>2012-09-20T12:27:03Z</time>
      </trkpt>
      <trkpt lat="43.35719" lon="2.56818">
        <ele>561.55</ele>
        <time>2012-09-20T12:27:13Z</time>
      </trkpt>
      <trkpt lat="43.35713" lon="2.56809">
        <ele>562.03</ele>
        <time>2012-09-20T12:27:26Z</time>
      </trkpt>
      <trkpt lat="43.35705" lon="2.56809">
        <ele>562.03</ele>
        <time>2012-09-20T12:27:38Z</time>
      </trkpt>
      <trkpt lat="43.35702" lon="2.56809">
        <ele>557.7</ele>
        <time>2012-09-20T12:27:43Z</time>
      </trkpt>
      <trkpt lat="43.35701" lon="2.56809">
        <ele>557.7</ele>
        <time>2012-09-20T12:27:44Z</time>
      </trkpt>
      <trkpt lat="43.35691" lon="2.56814">
        <ele>557.22</ele>
        <time>2012-09-20T12:27:57Z</time>
      </trkpt>
      <trkpt lat="43.35676" lon="2.56811">
        <ele>557.22</ele>
        <time>2012-09-20T12:28:14Z</time>
      </trkpt>
      <trkpt lat="43.35669" lon="2.56807">
        <ele>553.86</ele>
        <time>2012-09-20T12:28:22Z</time>
      </trkpt>
      <trkpt lat="43.35668" lon="2.56807">
        <ele>553.86</ele>
        <time>2012-09-20T12:28:23Z</time>
      </trkpt>
      <trkpt lat="43.35667" lon="2.56807">
        <ele>553.38</ele>
        <time>2012-09-20T12:28:24Z</time>
      </trkpt>
      <trkpt lat="43.35656" lon="2.56795">
        <ele>551.45</ele>
        <time>2012-09-20T12:28:37Z</time>
      </trkpt>
      <trkpt lat="43.35654" lon="2.56789">
        <ele>550.01</ele>
        <time>2012-09-20T12:28:44Z</time>
      </trkpt>
      <trkpt lat="43.35647" lon="2.56778">
        <ele>548.09</ele>
        <time>2012-09-20T12:28:56Z</time>
      </trkpt>
      <trkpt lat="43.35641" lon="2.5677">
        <ele>546.65</ele>
        <time>2012-09-20T12:29:06Z</time>
      </trkpt>
      <trkpt lat="43.35638" lon="2.56765">
        <ele>545.69</ele>
        <time>2012-09-20T12:29:12Z</time>
      </trkpt>
      <trkpt lat="43.35632" lon="2.56753">
        <ele>543.76</ele>
        <time>2012-09-20T12:29:25Z</time>
      </trkpt>
      <trkpt lat="43.35626" lon="2.56749">
        <ele>542.32</ele>
        <time>2012-09-20T12:29:34Z</time>
      </trkpt>
      <trkpt lat="43.35615" lon="2.56745">
        <ele>540.88</ele>
        <time>2012-09-20T12:29:47Z</time>
      </trkpt>
      <trkpt lat="43.35604" lon="2.56741">
        <ele>539.44</ele>
        <time>2012-09-20T12:29:58Z</time>
      </trkpt>
      <trkpt lat="43.356" lon="2.56742">
        <ele>538.48</ele>
        <time>2012-09-20T12:30:03Z</time>
      </trkpt>
      <trkpt lat="43.35591" lon="2.56759">
        <ele>537.99</ele>
        <time>2012-09-20T12:30:19Z</time>
      </trkpt>
      <trkpt lat="43.35587" lon="2.56774">
        <ele>538.48</ele>
        <time>2012-09-20T12:30:30Z</time>
      </trkpt>
      <trkpt lat="43.35587" lon="2.56778">
        <ele>537.99</ele>
        <time>2012-09-20T12:30:33Z</time>
      </trkpt>
      <trkpt lat="43.35582" lon="2.56791">
        <ele>537.51</ele>
        <time>2012-09-20T12:30:44Z</time>
      </trkpt>
      <trkpt lat="43.35581" lon="2.56792">
        <ele>537.03</ele>
        <time>2012-09-20T12:30:46Z</time>
      </trkpt>
      <trkpt lat="43.35569" lon="2.56806">
        <ele>536.55</ele>
        <time>2012-09-20T12:30:59Z</time>
      </trkpt>
      <trkpt lat="43.35555" lon="2.56812">
        <ele>534.63</ele>
        <time>2012-09-20T12:31:11Z</time>
      </trkpt>
      <trkpt lat="43.35547" lon="2.56815">
        <ele>534.15</ele>
        <time>2012-09-20T12:31:18Z</time>
      </trkpt>
      <trkpt lat="43.3554" lon="2.56818">
        <ele>533.19</ele>
        <time>2012-09-20T12:31:24Z</time>
      </trkpt>
      <trkpt lat="43.35525" lon="2.5681">
        <ele>533.67</ele>
        <time>2012-09-20T12:31:37Z</time>
      </trkpt>
      <trkpt lat="43.35521" lon="2.5681">
        <ele>533.67</ele>
        <time>2012-09-20T12:31:40Z</time>
      </trkpt>
      <trkpt lat="43.35508" lon="2.56807">
        <ele>535.11</ele>
        <time>2012-09-20T12:31:52Z</time>
      </trkpt>
      <trkpt lat="43.35504" lon="2.56802">
        <ele>535.59</ele>
        <time>2012-09-20T12:31:56Z</time>
      </trkpt>
      <trkpt lat="43.35497" lon="2.56798">
        <ele>536.55</ele>
        <time>2012-09-20T12:32:01Z</time>
      </trkpt>
      <trkpt lat="43.35493" lon="2.56793">
        <ele>536.07</ele>
        <time>2012-09-20T12:32:06Z</time>
      </trkpt>
      <trkpt lat="43.35489" lon="2.56785">
        <ele>536.07</ele>
        <time>2012-09-20T12:32:20Z</time>
      </trkpt>
      <trkpt lat="43.35486" lon="2.56779">
        <ele>536.55</ele>
        <time>2012-09-20T12:32:37Z</time>
      </trkpt>
      <trkpt lat="43.35483" lon="2.56771">
        <ele>536.07</ele>
        <time>2012-09-20T12:32:43Z</time>
      </trkpt>
      <trkpt lat="43.35481" lon="2.56755">
        <ele>536.07</ele>
        <time>2012-09-20T12:32:57Z</time>
      </trkpt>
      <trkpt lat="43.35481" lon="2.56751">
        <ele>536.07</ele>
        <time>2012-09-20T12:33:06Z</time>
      </trkpt>
      <trkpt lat="43.3548" lon="2.5673">
        <ele>535.11</ele>
        <time>2012-09-20T12:33:19Z</time>
      </trkpt>
      <trkpt lat="43.3548" lon="2.56719">
        <ele>535.11</ele>
        <time>2012-09-20T12:33:26Z</time>
      </trkpt>
      <trkpt lat="43.35481" lon="2.567">
        <ele>534.63</ele>
        <time>2012-09-20T12:33:38Z</time>
      </trkpt>
      <trkpt lat="43.35481" lon="2.56689">
        <ele>534.63</ele>
        <time>2012-09-20T12:33:44Z</time>
      </trkpt>
      <trkpt lat="43.3548" lon="2.56669">
        <ele>534.63</ele>
        <time>2012-09-20T12:33:56Z</time>
      </trkpt>
      <trkpt lat="43.35479" lon="2.56664">
        <ele>534.15</ele>
        <time>2012-09-20T12:33:59Z</time>
      </trkpt>
      <trkpt lat="43.35479" lon="2.56659">
        <ele>533.67</ele>
        <time>2012-09-20T12:34:02Z</time>
      </trkpt>
      <trkpt lat="43.35478" lon="2.56651">
        <ele>534.15</ele>
        <time>2012-09-20T12:34:07Z</time>
      </trkpt>
      <trkpt lat="43.35478" lon="2.56637">
        <ele>533.19</ele>
        <time>2012-09-20T12:34:16Z</time>
      </trkpt>
      <trkpt lat="43.3548" lon="2.56623">
        <ele>533.19</ele>
        <time>2012-09-20T12:34:24Z</time>
      </trkpt>
      <trkpt lat="43.35481" lon="2.56616">
        <ele>533.19</ele>
        <time>2012-09-20T12:34:28Z</time>
      </trkpt>
      <trkpt lat="43.35481" lon="2.56593">
        <ele>532.71</ele>
        <time>2012-09-20T12:34:42Z</time>
      </trkpt>
      <trkpt lat="43.35482" lon="2.56584">
        <ele>533.19</ele>
        <time>2012-09-20T12:34:48Z</time>
      </trkpt>
      <trkpt lat="43.3548" lon="2.56557">
        <ele>533.19</ele>
        <time>2012-09-20T12:35:04Z</time>
      </trkpt>
      <trkpt lat="43.35479" lon="2.56554">
        <ele>532.71</ele>
        <time>2012-09-20T12:35:06Z</time>
      </trkpt>
      <trkpt lat="43.35478" lon="2.56538">
        <ele>533.19</ele>
        <time>2012-09-20T12:35:17Z</time>
      </trkpt>
      <trkpt lat="43.35479" lon="2.56527">
        <ele>533.67</ele>
        <time>2012-09-20T12:35:24Z</time>
      </trkpt>
      <trkpt lat="43.35485" lon="2.56505">
        <ele>533.19</ele>
        <time>2012-09-20T12:35:37Z</time>
      </trkpt>
      <trkpt lat="43.35487" lon="2.56498">
        <ele>533.19</ele>
        <time>2012-09-20T12:35:43Z</time>
      </trkpt>
      <trkpt lat="43.3549" lon="2.56486">
        <ele>533.19</ele>
        <time>2012-09-20T12:35:51Z</time>
      </trkpt>
      <trkpt lat="43.35492" lon="2.56475">
        <ele>533.19</ele>
        <time>2012-09-20T12:35:58Z</time>
      </trkpt>
      <trkpt lat="43.35491" lon="2.56465">
        <ele>532.71</ele>
        <time>2012-09-20T12:36:13Z</time>
      </trkpt>
      <trkpt lat="43.35491" lon="2.56465">
        <ele>533.19</ele>
        <time>2012-09-20T12:36:29Z</time>
      </trkpt>
      <trkpt lat="43.35492" lon="2.56464">
        <ele>532.71</ele>
        <time>2012-09-20T12:36:49Z</time>
      </trkpt>
      <trkpt lat="43.35492" lon="2.56464">
        <ele>533.19</ele>
        <time>2012-09-20T12:37:04Z</time>
      </trkpt>
      <trkpt lat="43.35492" lon="2.56464">
        <ele>532.71</ele>
        <time>2012-09-20T12:37:18Z</time>
      </trkpt>
      <trkpt lat="43.35493" lon="2.56463">
        <ele>533.19</ele>
        <time>2012-09-20T12:37:30Z</time>
      </trkpt>
      <trkpt lat="43.35493" lon="2.56463">
        <ele>533.19</ele>
        <time>2012-09-20T12:37:46Z</time>
      </trkpt>
      <trkpt lat="43.35492" lon="2.56463">
        <ele>533.19</ele>
        <time>2012-09-20T12:38:06Z</time>
      </trkpt>
      <trkpt lat="43.35491" lon="2.56463">
        <ele>533.19</ele>
        <time>2012-09-20T12:38:22Z</time>
      </trkpt>
      <trkpt lat="43.35491" lon="2.56463">
        <ele>533.67</ele>
        <time>2012-09-20T12:38:49Z</time>
      </trkpt>
      <trkpt lat="43.35492" lon="2.56463">
        <ele>533.19</ele>
        <time>2012-09-20T12:39:13Z</time>
      </trkpt>
      <trkpt lat="43.35491" lon="2.56463">
        <ele>533.19</ele>
        <time>2012-09-20T12:39:35Z</time>
      </trkpt>
      <trkpt lat="43.35491" lon="2.56462">
        <ele>532.71</ele>
        <time>2012-09-20T12:40:02Z</time>
      </trkpt>
      <trkpt lat="43.35491" lon="2.56462">
        <ele>529.82</ele>
        <time>2012-09-20T12:40:07Z</time>
      </trkpt>
      <trkpt lat="43.35491" lon="2.56463">
        <ele>532.23</ele>
        <time>2012-09-20T12:40:14Z</time>
      </trkpt>
      <trkpt lat="43.35491" lon="2.56462">
        <ele>532.23</ele>
        <time>2012-09-20T12:40:35Z</time>
      </trkpt>
      <trkpt lat="43.35492" lon="2.56462">
        <ele>532.71</ele>
        <time>2012-09-20T12:40:54Z</time>
      </trkpt>
      <trkpt lat="43.35492" lon="2.5646">
        <ele>532.23</ele>
        <time>2012-09-20T12:41:05Z</time>
      </trkpt>
      <trkpt lat="43.35491" lon="2.5646">
        <ele>532.71</ele>
        <time>2012-09-20T12:41:25Z</time>
      </trkpt>
      <trkpt lat="43.35492" lon="2.56461">
        <ele>532.71</ele>
        <time>2012-09-20T12:41:43Z</time>
      </trkpt>
      <trkpt lat="43.35492" lon="2.56462">
        <ele>533.19</ele>
        <time>2012-09-20T12:42:00Z</time>
      </trkpt>
      <trkpt lat="43.35492" lon="2.56462">
        <ele>532.23</ele>
        <time>2012-09-20T12:42:25Z</time>
      </trkpt>
      <trkpt lat="43.35493" lon="2.56463">
        <ele>533.19</ele>
        <time>2012-09-20T12:42:48Z</time>
      </trkpt>
      <trkpt lat="43.35493" lon="2.56464">
        <ele>532.71</ele>
        <time>2012-09-20T12:43:13Z</time>
      </trkpt>
      <trkpt lat="43.35493" lon="2.56464">
        <ele>533.19</ele>
        <time>2012-09-20T12:43:25Z</time>
      </trkpt>
      <trkpt lat="43.35494" lon="2.56463">
        <ele>533.19</ele>
        <time>2012-09-20T12:43:43Z</time>
      </trkpt>
      <trkpt lat="43.35498" lon="2.56463">
        <ele>533.67</ele>
        <time>2012-09-20T12:44:04Z</time>
      </trkpt>
      <trkpt lat="43.35505" lon="2.56468">
        <ele>534.15</ele>
        <time>2012-09-20T12:44:16Z</time>
      </trkpt>
      <trkpt lat="43.35515" lon="2.56466">
        <ele>534.63</ele>
        <time>2012-09-20T12:44:30Z</time>
      </trkpt>
      <trkpt lat="43.35521" lon="2.56465">
        <ele>535.59</ele>
        <time>2012-09-20T12:44:42Z</time>
      </trkpt>
      <trkpt lat="43.35532" lon="2.56463">
        <ele>536.55</ele>
        <time>2012-09-20T12:44:55Z</time>
      </trkpt>
      <trkpt lat="43.35535" lon="2.56464">
        <ele>536.55</ele>
        <time>2012-09-20T12:44:59Z</time>
      </trkpt>
      <trkpt lat="43.35543" lon="2.56462">
        <ele>537.03</ele>
        <time>2012-09-20T12:45:08Z</time>
      </trkpt>
      <trkpt lat="43.35549" lon="2.56452">
        <ele>537.03</ele>
        <time>2012-09-20T12:45:21Z</time>
      </trkpt>
      <trkpt lat="43.35555" lon="2.56452">
        <ele>537.51</ele>
        <time>2012-09-20T12:45:28Z</time>
      </trkpt>
      <trkpt lat="43.35567" lon="2.56448">
        <ele>538.48</ele>
        <time>2012-09-20T12:45:40Z</time>
      </trkpt>
      <trkpt lat="43.35572" lon="2.56441">
        <ele>538.96</ele>
        <time>2012-09-20T12:45:51Z</time>
      </trkpt>
      <trkpt lat="43.35574" lon="2.56435">
        <ele>539.44</ele>
        <time>2012-09-20T12:45:57Z</time>
      </trkpt>
      <trkpt lat="43.35575" lon="2.56426">
        <ele>537.99</ele>
        <time>2012-09-20T12:46:05Z</time>
      </trkpt>
      <trkpt lat="43.35575" lon="2.56422">
        <ele>538.48</ele>
        <time>2012-09-20T12:46:08Z</time>
      </trkpt>
      <trkpt lat="43.35575" lon="2.56414">
        <ele>538.48</ele>
        <time>2012-09-20T12:46:16Z</time>
      </trkpt>
      <trkpt lat="43.35573" lon="2.56406">
        <ele>537.51</ele>
        <time>2012-09-20T12:46:25Z</time>
      </trkpt>
      <trkpt lat="43.35571" lon="2.56394">
        <ele>537.03</ele>
        <time>2012-09-20T12:46:38Z</time>
      </trkpt>
      <trkpt lat="43.3558" lon="2.5639">
        <ele>537.51</ele>
        <time>2012-09-20T12:46:50Z</time>
      </trkpt>
      <trkpt lat="43.35589" lon="2.56385">
        <ele>537.99</ele>
        <time>2012-09-20T12:47:03Z</time>
      </trkpt>
      <trkpt lat="43.35596" lon="2.56378">
        <ele>538.48</ele>
        <time>2012-09-20T12:47:17Z</time>
      </trkpt>
      <trkpt lat="43.35596" lon="2.56377">
        <ele>537.99</ele>
        <time>2012-09-20T12:47:18Z</time>
      </trkpt>
      <trkpt lat="43.35596" lon="2.56377">
        <ele>537.99</ele>
        <time>2012-09-20T12:47:32Z</time>
      </trkpt>
      <trkpt lat="43.35598" lon="2.56376">
        <ele>538.48</ele>
        <time>2012-09-20T12:47:58Z</time>
      </trkpt>
      <trkpt lat="43.35601" lon="2.56372">
        <ele>538.48</ele>
        <time>2012-09-20T12:48:03Z</time>
      </trkpt>
      <trkpt lat="43.35608" lon="2.56369">
        <ele>538.48</ele>
        <time>2012-09-20T12:48:15Z</time>
      </trkpt>
      <trkpt lat="43.3561" lon="2.56363">
        <ele>537.03</ele>
        <time>2012-09-20T12:48:27Z</time>
      </trkpt>
      <trkpt lat="43.35607" lon="2.56359">
        <ele>536.07</ele>
        <time>2012-09-20T12:48:38Z</time>
      </trkpt>
      <trkpt lat="43.35606" lon="2.56357">
        <ele>536.07</ele>
        <time>2012-09-20T12:48:40Z</time>
      </trkpt>
      <trkpt lat="43.35601" lon="2.56345">
        <ele>534.63</ele>
        <time>2012-09-20T12:48:54Z</time>
      </trkpt>
      <trkpt lat="43.35595" lon="2.5634">
        <ele>534.63</ele>
        <time>2012-09-20T12:49:02Z</time>
      </trkpt>
      <trkpt lat="43.35594" lon="2.56338">
        <ele>533.67</ele>
        <time>2012-09-20T12:49:04Z</time>
      </trkpt>
      <trkpt lat="43.35592" lon="2.56337">
        <ele>533.67</ele>
        <time>2012-09-20T12:49:06Z</time>
      </trkpt>
      <trkpt lat="43.35592" lon="2.56327">
        <ele>532.23</ele>
        <time>2012-09-20T12:49:18Z</time>
      </trkpt>
      <trkpt lat="43.35603" lon="2.56322">
        <ele>531.75</ele>
        <time>2012-09-20T12:49:32Z</time>
      </trkpt>
      <trkpt lat="43.3561" lon="2.56322">
        <ele>531.27</ele>
        <time>2012-09-20T12:49:43Z</time>
      </trkpt>
      <trkpt lat="43.35616" lon="2.56321">
        <ele>529.82</ele>
        <time>2012-09-20T12:49:56Z</time>
      </trkpt>
      <trkpt lat="43.35618" lon="2.5632">
        <ele>529.34</ele>
        <time>2012-09-20T12:50:11Z</time>
      </trkpt>
      <trkpt lat="43.3562" lon="2.5632">
        <ele>529.82</ele>
        <time>2012-09-20T12:50:26Z</time>
      </trkpt>
      <trkpt lat="43.35621" lon="2.5632">
        <ele>529.34</ele>
        <time>2012-09-20T12:50:46Z</time>
      </trkpt>
      <trkpt lat="43.35621" lon="2.5632">
        <ele>529.82</ele>
        <time>2012-09-20T12:51:07Z</time>
      </trkpt>
      <trkpt lat="43.35622" lon="2.5632">
        <ele>528.86</ele>
        <time>2012-09-20T12:51:18Z</time>
      </trkpt>
      <trkpt lat="43.35624" lon="2.5632">
        <ele>527.42</ele>
        <time>2012-09-20T12:51:31Z</time>
      </trkpt>
      <trkpt lat="43.35629" lon="2.56319">
        <ele>526.46</ele>
        <time>2012-09-20T12:51:43Z</time>
      </trkpt>
      <trkpt lat="43.3563" lon="2.56318">
        <ele>525.5</ele>
        <time>2012-09-20T12:51:54Z</time>
      </trkpt>
      <trkpt lat="43.35633" lon="2.56315">
        <ele>524.54</ele>
        <time>2012-09-20T12:52:07Z</time>
      </trkpt>
      <trkpt lat="43.35634" lon="2.56306">
        <ele>523.09</ele>
        <time>2012-09-20T12:52:16Z</time>
      </trkpt>
      <trkpt lat="43.35631" lon="2.56299">
        <ele>523.58</ele>
        <time>2012-09-20T12:52:27Z</time>
      </trkpt>
      <trkpt lat="43.35629" lon="2.56299">
        <ele>523.58</ele>
        <time>2012-09-20T12:52:49Z</time>
      </trkpt>
      <trkpt lat="43.35628" lon="2.56298">
        <ele>523.58</ele>
        <time>2012-09-20T12:52:51Z</time>
      </trkpt>
      <trkpt lat="43.35623" lon="2.56296">
        <ele>524.54</ele>
        <time>2012-09-20T12:52:56Z</time>
      </trkpt>
      <trkpt lat="43.35618" lon="2.56294">
        <ele>525.02</ele>
        <time>2012-09-20T12:53:02Z</time>
      </trkpt>
      <trkpt lat="43.35611" lon="2.5629">
        <ele>525.98</ele>
        <time>2012-09-20T12:53:13Z</time>
      </trkpt>
      <trkpt lat="43.35603" lon="2.56284">
        <ele>526.94</ele>
        <time>2012-09-20T12:53:22Z</time>
      </trkpt>
      <trkpt lat="43.35601" lon="2.56284">
        <ele>526.94</ele>
        <time>2012-09-20T12:53:24Z</time>
      </trkpt>
      <trkpt lat="43.35598" lon="2.56281">
        <ele>526.94</ele>
        <time>2012-09-20T12:53:27Z</time>
      </trkpt>
      <trkpt lat="43.35594" lon="2.56281">
        <ele>527.42</ele>
        <time>2012-09-20T12:53:30Z</time>
      </trkpt>
      <trkpt lat="43.35588" lon="2.56279">
        <ele>527.9</ele>
        <time>2012-09-20T12:53:35Z</time>
      </trkpt>
      <trkpt lat="43.35583" lon="2.56279">
        <ele>528.38</ele>
        <time>2012-09-20T12:53:40Z</time>
      </trkpt>
      <trkpt lat="43.35581" lon="2.56279">
        <ele>529.34</ele>
        <time>2012-09-20T12:53:42Z</time>
      </trkpt>
      <trkpt lat="43.35579" lon="2.56278">
        <ele>528.38</ele>
        <time>2012-09-20T12:53:44Z</time>
      </trkpt>
      <trkpt lat="43.35577" lon="2.56277">
        <ele>528.86</ele>
        <time>2012-09-20T12:53:46Z</time>
      </trkpt>
      <trkpt lat="43.3558" lon="2.56274">
        <ele>528.86</ele>
        <time>2012-09-20T12:53:58Z</time>
      </trkpt>
      <trkpt lat="43.35581" lon="2.56275">
        <ele>528.86</ele>
        <time>2012-09-20T12:54:14Z</time>
      </trkpt>
      <trkpt lat="43.3558" lon="2.56275">
        <ele>528.86</ele>
        <time>2012-09-20T12:54:15Z</time>
      </trkpt>
      <trkpt lat="43.35575" lon="2.56274">
        <ele>529.34</ele>
        <time>2012-09-20T12:54:22Z</time>
      </trkpt>
      <trkpt lat="43.35571" lon="2.56276">
        <ele>529.34</ele>
        <time>2012-09-20T12:54:27Z</time>
      </trkpt>
      <trkpt lat="43.35566" lon="2.56264">
        <ele>529.82</ele>
        <time>2012-09-20T12:54:38Z</time>
      </trkpt>
      <trkpt lat="43.35563" lon="2.56262">
        <ele>528.86</ele>
        <time>2012-09-20T12:54:42Z</time>
      </trkpt>
      <trkpt lat="43.35559" lon="2.56261">
        <ele>528.86</ele>
        <time>2012-09-20T12:54:46Z</time>
      </trkpt>
      <trkpt lat="43.35557" lon="2.56262">
        <ele>529.34</ele>
        <time>2012-09-20T12:54:48Z</time>
      </trkpt>
      <trkpt lat="43.35552" lon="2.56269">
        <ele>529.34</ele>
        <time>2012-09-20T12:54:57Z</time>
      </trkpt>
      <trkpt lat="43.35546" lon="2.56276">
        <ele>529.34</ele>
        <time>2012-09-20T12:55:05Z</time>
      </trkpt>
      <trkpt lat="43.35541" lon="2.56281">
        <ele>529.34</ele>
        <time>2012-09-20T12:55:11Z</time>
      </trkpt>
      <trkpt lat="43.35537" lon="2.56281">
        <ele>528.86</ele>
        <time>2012-09-20T12:55:15Z</time>
      </trkpt>
      <trkpt lat="43.35534" lon="2.56283">
        <ele>529.34</ele>
        <time>2012-09-20T12:55:19Z</time>
      </trkpt>
      <trkpt lat="43.35529" lon="2.56282">
        <ele>529.82</ele>
        <time>2012-09-20T12:55:24Z</time>
      </trkpt>
      <trkpt lat="43.35516" lon="2.56282">
        <ele>528.86</ele>
        <time>2012-09-20T12:55:37Z</time>
      </trkpt>
      <trkpt lat="43.35507" lon="2.56279">
        <ele>527.9</ele>
        <time>2012-09-20T12:55:47Z</time>
      </trkpt>
      <trkpt lat="43.35498" lon="2.56279">
        <ele>527.42</ele>
        <time>2012-09-20T12:55:56Z</time>
      </trkpt>
      <trkpt lat="43.35494" lon="2.56279">
        <ele>527.42</ele>
        <time>2012-09-20T12:56:00Z</time>
      </trkpt>
      <trkpt lat="43.35493" lon="2.56281">
        <ele>526.94</ele>
        <time>2012-09-20T12:56:02Z</time>
      </trkpt>
      <trkpt lat="43.35485" lon="2.5628">
        <ele>525.98</ele>
        <time>2012-09-20T12:56:08Z</time>
      </trkpt>
      <trkpt lat="43.35482" lon="2.56282">
        <ele>525.98</ele>
        <time>2012-09-20T12:56:12Z</time>
      </trkpt>
      <trkpt lat="43.35475" lon="2.5629">
        <ele>525.5</ele>
        <time>2012-09-20T12:56:19Z</time>
      </trkpt>
      <trkpt lat="43.35472" lon="2.56293">
        <ele>525.98</ele>
        <time>2012-09-20T12:56:23Z</time>
      </trkpt>
      <trkpt lat="43.35465" lon="2.56298">
        <ele>525.02</ele>
        <time>2012-09-20T12:56:35Z</time>
      </trkpt>
      <trkpt lat="43.35465" lon="2.56296">
        <ele>524.54</ele>
        <time>2012-09-20T12:56:46Z</time>
      </trkpt>
      <trkpt lat="43.3546" lon="2.56284">
        <ele>524.06</ele>
        <time>2012-09-20T12:56:56Z</time>
      </trkpt>
      <trkpt lat="43.35454" lon="2.56264">
        <ele>523.58</ele>
        <time>2012-09-20T12:57:10Z</time>
      </trkpt>
      <trkpt lat="43.35448" lon="2.56249">
        <ele>522.13</ele>
        <time>2012-09-20T12:57:20Z</time>
      </trkpt>
      <trkpt lat="43.35448" lon="2.56246">
        <ele>522.13</ele>
        <time>2012-09-20T12:57:22Z</time>
      </trkpt>
      <trkpt lat="43.35442" lon="2.56226">
        <ele>520.69</ele>
        <time>2012-09-20T12:57:37Z</time>
      </trkpt>
      <trkpt lat="43.3544" lon="2.56218">
        <ele>520.69</ele>
        <time>2012-09-20T12:57:42Z</time>
      </trkpt>
      <trkpt lat="43.35438" lon="2.56211">
        <ele>520.69</ele>
        <time>2012-09-20T12:57:47Z</time>
      </trkpt>
      <trkpt lat="43.35435" lon="2.56204">
        <ele>519.73</ele>
        <time>2012-09-20T12:57:53Z</time>
      </trkpt>
      <trkpt lat="43.35427" lon="2.56181">
        <ele>519.25</ele>
        <time>2012-09-20T12:58:09Z</time>
      </trkpt>
      <trkpt lat="43.35425" lon="2.56178">
        <ele>519.25</ele>
        <time>2012-09-20T12:58:11Z</time>
      </trkpt>
      <trkpt lat="43.35423" lon="2.56163">
        <ele>518.29</ele>
        <time>2012-09-20T12:58:22Z</time>
      </trkpt>
      <trkpt lat="43.35419" lon="2.56156">
        <ele>518.29</ele>
        <time>2012-09-20T12:58:29Z</time>
      </trkpt>
      <trkpt lat="43.35413" lon="2.56138">
        <ele>517.33</ele>
        <time>2012-09-20T12:58:43Z</time>
      </trkpt>
      <trkpt lat="43.35408" lon="2.56126">
        <ele>516.85</ele>
        <time>2012-09-20T12:58:52Z</time>
      </trkpt>
      <trkpt lat="43.35406" lon="2.56121">
        <ele>517.33</ele>
        <time>2012-09-20T12:58:55Z</time>
      </trkpt>
      <trkpt lat="43.354" lon="2.56105">
        <ele>515.88</ele>
        <time>2012-09-20T12:59:07Z</time>
      </trkpt>
      <trkpt lat="43.35399" lon="2.56104">
        <ele>516.37</ele>
        <time>2012-09-20T12:59:08Z</time>
      </trkpt>
      <trkpt lat="43.35396" lon="2.56089">
        <ele>515.88</ele>
        <time>2012-09-20T12:59:17Z</time>
      </trkpt>
      <trkpt lat="43.35392" lon="2.56068">
        <ele>515.4</ele>
        <time>2012-09-20T12:59:30Z</time>
      </trkpt>
      <trkpt lat="43.3539" lon="2.56055">
        <ele>515.4</ele>
        <time>2012-09-20T12:59:39Z</time>
      </trkpt>
      <trkpt lat="43.35389" lon="2.56046">
        <ele>515.4</ele>
        <time>2012-09-20T12:59:45Z</time>
      </trkpt>
      <trkpt lat="43.35388" lon="2.56038">
        <ele>515.4</ele>
        <time>2012-09-20T12:59:50Z</time>
      </trkpt>
      <trkpt lat="43.35385" lon="2.56024">
        <ele>515.88</ele>
        <time>2012-09-20T13:00:00Z</time>
      </trkpt>
      <trkpt lat="43.35384" lon="2.56016">
        <ele>515.4</ele>
        <time>2012-09-20T13:00:06Z</time>
      </trkpt>
      <trkpt lat="43.35383" lon="2.56007">
        <ele>514.92</ele>
        <time>2012-09-20T13:00:12Z</time>
      </trkpt>
      <trkpt lat="43.35382" lon="2.56">
        <ele>515.4</ele>
        <time>2012-09-20T13:00:17Z</time>
      </trkpt>
      <trkpt lat="43.35383" lon="2.55988">
        <ele>515.4</ele>
        <time>2012-09-20T13:00:24Z</time>
      </trkpt>
      <trkpt lat="43.35387" lon="2.55975">
        <ele>515.4</ele>
        <time>2012-09-20T13:00:34Z</time>
      </trkpt>
      <trkpt lat="43.35387" lon="2.55972">
        <ele>515.88</ele>
        <time>2012-09-20T13:00:36Z</time>
      </trkpt>
      <trkpt lat="43.35388" lon="2.55965">
        <ele>515.88</ele>
        <time>2012-09-20T13:00:42Z</time>
      </trkpt>
      <trkpt lat="43.35388" lon="2.55962">
        <ele>515.88</ele>
        <time>2012-09-20T13:00:44Z</time>
      </trkpt>
      <trkpt lat="43.35387" lon="2.55953">
        <ele>516.37</ele>
        <time>2012-09-20T13:00:50Z</time>
      </trkpt>
      <trkpt lat="43.35385" lon="2.55942">
        <ele>515.88</ele>
        <time>2012-09-20T13:00:57Z</time>
      </trkpt>
      <trkpt lat="43.35386" lon="2.55927">
        <ele>515.88</ele>
        <time>2012-09-20T13:01:06Z</time>
      </trkpt>
      <trkpt lat="43.35386" lon="2.55917">
        <ele>516.85</ele>
        <time>2012-09-20T13:01:13Z</time>
      </trkpt>
      <trkpt lat="43.35386" lon="2.55899">
        <ele>516.37</ele>
        <time>2012-09-20T13:01:25Z</time>
      </trkpt>
      <trkpt lat="43.35384" lon="2.55882">
        <ele>516.37</ele>
        <time>2012-09-20T13:01:35Z</time>
      </trkpt>
      <trkpt lat="43.3539" lon="2.55862">
        <ele>516.37</ele>
        <time>2012-09-20T13:01:49Z</time>
      </trkpt>
      <trkpt lat="43.35391" lon="2.55855">
        <ele>516.37</ele>
        <time>2012-09-20T13:01:53Z</time>
      </trkpt>
      <trkpt lat="43.35392" lon="2.55853">
        <ele>516.85</ele>
        <time>2012-09-20T13:01:55Z</time>
      </trkpt>
      <trkpt lat="43.35393" lon="2.55847">
        <ele>516.37</ele>
        <time>2012-09-20T13:01:59Z</time>
      </trkpt>
      <trkpt lat="43.3539" lon="2.55832">
        <ele>515.4</ele>
        <time>2012-09-20T13:02:10Z</time>
      </trkpt>
      <trkpt lat="43.35383" lon="2.55812">
        <ele>513.96</ele>
        <time>2012-09-20T13:02:24Z</time>
      </trkpt>
      <trkpt lat="43.35382" lon="2.55798">
        <ele>513.96</ele>
        <time>2012-09-20T13:02:33Z</time>
      </trkpt>
      <trkpt lat="43.35377" lon="2.55792">
        <ele>513.48</ele>
        <time>2012-09-20T13:02:39Z</time>
      </trkpt>
      <trkpt lat="43.35368" lon="2.55785">
        <ele>512.52</ele>
        <time>2012-09-20T13:02:48Z</time>
      </trkpt>
      <trkpt lat="43.3536" lon="2.5578">
        <ele>512.04</ele>
        <time>2012-09-20T13:02:56Z</time>
      </trkpt>
      <trkpt lat="43.35356" lon="2.55761">
        <ele>511.56</ele>
        <time>2012-09-20T13:03:09Z</time>
      </trkpt>
      <trkpt lat="43.35355" lon="2.55754">
        <ele>511.56</ele>
        <time>2012-09-20T13:03:14Z</time>
      </trkpt>
      <trkpt lat="43.35355" lon="2.55735">
        <ele>510.6</ele>
        <time>2012-09-20T13:03:27Z</time>
      </trkpt>
      <trkpt lat="43.35354" lon="2.55732">
        <ele>511.56</ele>
        <time>2012-09-20T13:03:30Z</time>
      </trkpt>
      <trkpt lat="43.3535" lon="2.55727">
        <ele>510.12</ele>
        <time>2012-09-20T13:03:35Z</time>
      </trkpt>
      <trkpt lat="43.35349" lon="2.55725">
        <ele>513</ele>
        <time>2012-09-20T13:03:37Z</time>
      </trkpt>
      <trkpt lat="43.35349" lon="2.55724">
        <ele>511.08</ele>
        <time>2012-09-20T13:03:38Z</time>
      </trkpt>
      <trkpt lat="43.35344" lon="2.55703">
        <ele>510.6</ele>
        <time>2012-09-20T13:03:52Z</time>
      </trkpt>
      <trkpt lat="43.35343" lon="2.55689">
        <ele>509.64</ele>
        <time>2012-09-20T13:04:03Z</time>
      </trkpt>
      <trkpt lat="43.35343" lon="2.55688">
        <ele>509.16</ele>
        <time>2012-09-20T13:04:04Z</time>
      </trkpt>
      <trkpt lat="43.35342" lon="2.55682">
        <ele>509.16</ele>
        <time>2012-09-20T13:04:09Z</time>
      </trkpt>
      <trkpt lat="43.35341" lon="2.5568">
        <ele>508.67</ele>
        <time>2012-09-20T13:04:11Z</time>
      </trkpt>
      <trkpt lat="43.3533" lon="2.55676">
        <ele>508.19</ele>
        <time>2012-09-20T13:04:21Z</time>
      </trkpt>
      <trkpt lat="43.35327" lon="2.55675">
        <ele>507.71</ele>
        <time>2012-09-20T13:04:24Z</time>
      </trkpt>
      <trkpt lat="43.35324" lon="2.55674">
        <ele>507.71</ele>
        <time>2012-09-20T13:04:27Z</time>
      </trkpt>
      <trkpt lat="43.35314" lon="2.55666">
        <ele>506.27</ele>
        <time>2012-09-20T13:04:37Z</time>
      </trkpt>
      <trkpt lat="43.35313" lon="2.55666">
        <ele>506.27</ele>
        <time>2012-09-20T13:04:38Z</time>
      </trkpt>
      <trkpt lat="43.3531" lon="2.55667">
        <ele>505.79</ele>
        <time>2012-09-20T13:04:40Z</time>
      </trkpt>
      <trkpt lat="43.35308" lon="2.55668">
        <ele>505.79</ele>
        <time>2012-09-20T13:04:42Z</time>
      </trkpt>
      <trkpt lat="43.35294" lon="2.55663">
        <ele>504.35</ele>
        <time>2012-09-20T13:04:55Z</time>
      </trkpt>
      <trkpt lat="43.3529" lon="2.55663">
        <ele>503.87</ele>
        <time>2012-09-20T13:04:59Z</time>
      </trkpt>
      <trkpt lat="43.35286" lon="2.55664">
        <ele>503.87</ele>
        <time>2012-09-20T13:05:03Z</time>
      </trkpt>
      <trkpt lat="43.35275" lon="2.55666">
        <ele>502.91</ele>
        <time>2012-09-20T13:05:13Z</time>
      </trkpt>
      <trkpt lat="43.35264" lon="2.55669">
        <ele>501.46</ele>
        <time>2012-09-20T13:05:24Z</time>
      </trkpt>
      <trkpt lat="43.35252" lon="2.55668">
        <ele>500.02</ele>
        <time>2012-09-20T13:05:35Z</time>
      </trkpt>
      <trkpt lat="43.35251" lon="2.55668">
        <ele>500.02</ele>
        <time>2012-09-20T13:05:36Z</time>
      </trkpt>
      <trkpt lat="43.35238" lon="2.55666">
        <ele>498.58</ele>
        <time>2012-09-20T13:05:48Z</time>
      </trkpt>
      <trkpt lat="43.35236" lon="2.55668">
        <ele>498.1</ele>
        <time>2012-09-20T13:05:50Z</time>
      </trkpt>
      <trkpt lat="43.35234" lon="2.55668">
        <ele>498.1</ele>
        <time>2012-09-20T13:05:53Z</time>
      </trkpt>
      <trkpt lat="43.35231" lon="2.55668">
        <ele>497.62</ele>
        <time>2012-09-20T13:05:56Z</time>
      </trkpt>
      <trkpt lat="43.35229" lon="2.55668">
        <ele>497.62</ele>
        <time>2012-09-20T13:05:59Z</time>
      </trkpt>
      <trkpt lat="43.35215" lon="2.55666">
        <ele>496.18</ele>
        <time>2012-09-20T13:06:13Z</time>
      </trkpt>
      <trkpt lat="43.35205" lon="2.55659">
        <ele>493.29</ele>
        <time>2012-09-20T13:06:27Z</time>
      </trkpt>
      <trkpt lat="43.35204" lon="2.55659">
        <ele>492.81</ele>
        <time>2012-09-20T13:06:31Z</time>
      </trkpt>
      <trkpt lat="43.35193" lon="2.55658">
        <ele>490.89</ele>
        <time>2012-09-20T13:06:43Z</time>
      </trkpt>
      <trkpt lat="43.35189" lon="2.55658">
        <ele>490.89</ele>
        <time>2012-09-20T13:06:46Z</time>
      </trkpt>
      <trkpt lat="43.35178" lon="2.55668">
        <ele>489.45</ele>
        <time>2012-09-20T13:06:59Z</time>
      </trkpt>
      <trkpt lat="43.35173" lon="2.5568">
        <ele>488.49</ele>
        <time>2012-09-20T13:07:09Z</time>
      </trkpt>
      <trkpt lat="43.3517" lon="2.5568">
        <ele>488.97</ele>
        <time>2012-09-20T13:07:11Z</time>
      </trkpt>
      <trkpt lat="43.35159" lon="2.55677">
        <ele>487.05</ele>
        <time>2012-09-20T13:07:24Z</time>
      </trkpt>
      <trkpt lat="43.35155" lon="2.55671">
        <ele>486.56</ele>
        <time>2012-09-20T13:07:30Z</time>
      </trkpt>
      <trkpt lat="43.35148" lon="2.55656">
        <ele>485.12</ele>
        <time>2012-09-20T13:07:43Z</time>
      </trkpt>
      <trkpt lat="43.35146" lon="2.55654">
        <ele>485.12</ele>
        <time>2012-09-20T13:07:46Z</time>
      </trkpt>
      <trkpt lat="43.35144" lon="2.55651">
        <ele>485.12</ele>
        <time>2012-09-20T13:07:49Z</time>
      </trkpt>
      <trkpt lat="43.3514" lon="2.5565">
        <ele>484.64</ele>
        <time>2012-09-20T13:07:53Z</time>
      </trkpt>
      <trkpt lat="43.35138" lon="2.55649">
        <ele>484.16</ele>
        <time>2012-09-20T13:07:56Z</time>
      </trkpt>
      <trkpt lat="43.35128" lon="2.55648">
        <ele>482.72</ele>
        <time>2012-09-20T13:08:06Z</time>
      </trkpt>
      <trkpt lat="43.35116" lon="2.55646">
        <ele>482.24</ele>
        <time>2012-09-20T13:08:17Z</time>
      </trkpt>
      <trkpt lat="43.35112" lon="2.55645">
        <ele>481.28</ele>
        <time>2012-09-20T13:08:22Z</time>
      </trkpt>
      <trkpt lat="43.35108" lon="2.55648">
        <ele>481.28</ele>
        <time>2012-09-20T13:08:26Z</time>
      </trkpt>
      <trkpt lat="43.35103" lon="2.55654">
        <ele>480.32</ele>
        <time>2012-09-20T13:08:32Z</time>
      </trkpt>
      <trkpt lat="43.35095" lon="2.55664">
        <ele>479.84</ele>
        <time>2012-09-20T13:08:42Z</time>
      </trkpt>
      <trkpt lat="43.3509" lon="2.55667">
        <ele>479.35</ele>
        <time>2012-09-20T13:08:46Z</time>
      </trkpt>
      <trkpt lat="43.35085" lon="2.55672">
        <ele>479.35</ele>
        <time>2012-09-20T13:08:51Z</time>
      </trkpt>
      <trkpt lat="43.35082" lon="2.55674">
        <ele>478.87</ele>
        <time>2012-09-20T13:08:54Z</time>
      </trkpt>
      <trkpt lat="43.35069" lon="2.55688">
        <ele>478.87</ele>
        <time>2012-09-20T13:09:10Z</time>
      </trkpt>
      <trkpt lat="43.35059" lon="2.55705">
        <ele>477.91</ele>
        <time>2012-09-20T13:09:26Z</time>
      </trkpt>
      <trkpt lat="43.35053" lon="2.55714">
        <ele>476.95</ele>
        <time>2012-09-20T13:09:36Z</time>
      </trkpt>
      <trkpt lat="43.35042" lon="2.55711">
        <ele>475.99</ele>
        <time>2012-09-20T13:09:47Z</time>
      </trkpt>
      <trkpt lat="43.35038" lon="2.557">
        <ele>475.51</ele>
        <time>2012-09-20T13:09:59Z</time>
      </trkpt>
      <trkpt lat="43.35035" lon="2.55693">
        <ele>475.51</ele>
        <time>2012-09-20T13:10:16Z</time>
      </trkpt>
      <trkpt lat="43.35027" lon="2.55682">
        <ele>474.07</ele>
        <time>2012-09-20T13:10:28Z</time>
      </trkpt>
      <trkpt lat="43.35016" lon="2.55671">
        <ele>472.63</ele>
        <time>2012-09-20T13:10:43Z</time>
      </trkpt>
      <trkpt lat="43.35013" lon="2.55666">
        <ele>472.14</ele>
        <time>2012-09-20T13:10:48Z</time>
      </trkpt>
      <trkpt lat="43.35006" lon="2.55651">
        <ele>470.7</ele>
        <time>2012-09-20T13:11:00Z</time>
      </trkpt>
      <trkpt lat="43.34999" lon="2.55633">
        <ele>469.74</ele>
        <time>2012-09-20T13:11:15Z</time>
      </trkpt>
      <trkpt lat="43.34992" lon="2.55622">
        <ele>468.3</ele>
        <time>2012-09-20T13:11:26Z</time>
      </trkpt>
      <trkpt lat="43.34989" lon="2.55621">
        <ele>468.3</ele>
        <time>2012-09-20T13:11:28Z</time>
      </trkpt>
      <trkpt lat="43.34986" lon="2.55618">
        <ele>467.82</ele>
        <time>2012-09-20T13:11:31Z</time>
      </trkpt>
      <trkpt lat="43.3498" lon="2.55618">
        <ele>467.34</ele>
        <time>2012-09-20T13:11:37Z</time>
      </trkpt>
      <trkpt lat="43.34974" lon="2.55623">
        <ele>466.38</ele>
        <time>2012-09-20T13:11:44Z</time>
      </trkpt>
      <trkpt lat="43.34971" lon="2.55628">
        <ele>466.38</ele>
        <time>2012-09-20T13:11:49Z</time>
      </trkpt>
      <trkpt lat="43.3496" lon="2.55643">
        <ele>464.45</ele>
        <time>2012-09-20T13:12:05Z</time>
      </trkpt>
      <trkpt lat="43.34958" lon="2.55645">
        <ele>464.45</ele>
        <time>2012-09-20T13:12:08Z</time>
      </trkpt>
      <trkpt lat="43.34952" lon="2.55636">
        <ele>463.49</ele>
        <time>2012-09-20T13:12:22Z</time>
      </trkpt>
      <trkpt lat="43.34951" lon="2.55628">
        <ele>463.49</ele>
        <time>2012-09-20T13:12:33Z</time>
      </trkpt>
      <trkpt lat="43.34952" lon="2.55617">
        <ele>463.49</ele>
        <time>2012-09-20T13:12:48Z</time>
      </trkpt>
      <trkpt lat="43.34952" lon="2.5561">
        <ele>463.49</ele>
        <time>2012-09-20T13:13:06Z</time>
      </trkpt>
      <trkpt lat="43.34953" lon="2.55602">
        <ele>463.97</ele>
        <time>2012-09-20T13:13:17Z</time>
      </trkpt>
      <trkpt lat="43.34954" lon="2.5559">
        <ele>463.97</ele>
        <time>2012-09-20T13:13:26Z</time>
      </trkpt>
      <trkpt lat="43.34955" lon="2.55588">
        <ele>464.93</ele>
        <time>2012-09-20T13:13:28Z</time>
      </trkpt>
      <trkpt lat="43.34958" lon="2.55574">
        <ele>464.45</ele>
        <time>2012-09-20T13:13:39Z</time>
      </trkpt>
      <trkpt lat="43.34959" lon="2.55553">
        <ele>464.45</ele>
        <time>2012-09-20T13:13:55Z</time>
      </trkpt>
      <trkpt lat="43.34959" lon="2.55551">
        <ele>463.97</ele>
        <time>2012-09-20T13:13:56Z</time>
      </trkpt>
      <trkpt lat="43.34959" lon="2.55545">
        <ele>464.45</ele>
        <time>2012-09-20T13:14:01Z</time>
      </trkpt>
      <trkpt lat="43.34958" lon="2.55523">
        <ele>463.97</ele>
        <time>2012-09-20T13:14:15Z</time>
      </trkpt>
      <trkpt lat="43.34958" lon="2.55522">
        <ele>463.97</ele>
        <time>2012-09-20T13:14:16Z</time>
      </trkpt>
      <trkpt lat="43.34959" lon="2.55506">
        <ele>463.49</ele>
        <time>2012-09-20T13:14:27Z</time>
      </trkpt>
      <trkpt lat="43.34958" lon="2.55499">
        <ele>463.01</ele>
        <time>2012-09-20T13:14:32Z</time>
      </trkpt>
      <trkpt lat="43.34958" lon="2.55493">
        <ele>463.01</ele>
        <time>2012-09-20T13:14:36Z</time>
      </trkpt>
      <trkpt lat="43.34957" lon="2.55489">
        <ele>462.53</ele>
        <time>2012-09-20T13:14:38Z</time>
      </trkpt>
      <trkpt lat="43.34958" lon="2.55484">
        <ele>462.53</ele>
        <time>2012-09-20T13:14:41Z</time>
      </trkpt>
      <trkpt lat="43.34959" lon="2.55478">
        <ele>462.05</ele>
        <time>2012-09-20T13:14:45Z</time>
      </trkpt>
      <trkpt lat="43.3496" lon="2.5547">
        <ele>462.53</ele>
        <time>2012-09-20T13:14:50Z</time>
      </trkpt>
      <trkpt lat="43.34961" lon="2.55466">
        <ele>462.53</ele>
        <time>2012-09-20T13:14:53Z</time>
      </trkpt>
      <trkpt lat="43.34961" lon="2.55463">
        <ele>462.53</ele>
        <time>2012-09-20T13:14:55Z</time>
      </trkpt>
      <trkpt lat="43.34963" lon="2.55459">
        <ele>462.53</ele>
        <time>2012-09-20T13:14:58Z</time>
      </trkpt>
      <trkpt lat="43.34963" lon="2.55439">
        <ele>462.53</ele>
        <time>2012-09-20T13:15:11Z</time>
      </trkpt>
      <trkpt lat="43.34963" lon="2.55438">
        <ele>462.05</ele>
        <time>2012-09-20T13:15:12Z</time>
      </trkpt>
      <trkpt lat="43.34963" lon="2.55429">
        <ele>461.57</ele>
        <time>2012-09-20T13:15:18Z</time>
      </trkpt>
      <trkpt lat="43.34966" lon="2.55422">
        <ele>462.05</ele>
        <time>2012-09-20T13:15:23Z</time>
      </trkpt>
      <trkpt lat="43.34973" lon="2.55408">
        <ele>461.09</ele>
        <time>2012-09-20T13:15:35Z</time>
      </trkpt>
      <trkpt lat="43.34978" lon="2.55402">
        <ele>460.61</ele>
        <time>2012-09-20T13:15:41Z</time>
      </trkpt>
      <trkpt lat="43.34986" lon="2.55387">
        <ele>459.65</ele>
        <time>2012-09-20T13:15:52Z</time>
      </trkpt>
      <trkpt lat="43.34986" lon="2.55386">
        <ele>459.65</ele>
        <time>2012-09-20T13:15:53Z</time>
      </trkpt>
      <trkpt lat="43.34986" lon="2.5538">
        <ele>459.65</ele>
        <time>2012-09-20T13:15:57Z</time>
      </trkpt>
      <trkpt lat="43.34985" lon="2.55367">
        <ele>458.21</ele>
        <time>2012-09-20T13:16:05Z</time>
      </trkpt>
      <trkpt lat="43.34983" lon="2.5536">
        <ele>456.76</ele>
        <time>2012-09-20T13:16:11Z</time>
      </trkpt>
      <trkpt lat="43.34981" lon="2.55347">
        <ele>455.8</ele>
        <time>2012-09-20T13:16:23Z</time>
      </trkpt>
      <trkpt lat="43.3498" lon="2.55346">
        <ele>455.8</ele>
        <time>2012-09-20T13:16:24Z</time>
      </trkpt>
      <trkpt lat="43.34973" lon="2.5533">
        <ele>455.8</ele>
        <time>2012-09-20T13:16:36Z</time>
      </trkpt>
      <trkpt lat="43.34969" lon="2.55325">
        <ele>455.32</ele>
        <time>2012-09-20T13:16:40Z</time>
      </trkpt>
      <trkpt lat="43.34966" lon="2.5532">
        <ele>455.32</ele>
        <time>2012-09-20T13:16:44Z</time>
      </trkpt>
      <trkpt lat="43.3496" lon="2.55312">
        <ele>455.32</ele>
        <time>2012-09-20T13:16:51Z</time>
      </trkpt>
      <trkpt lat="43.34957" lon="2.55309">
        <ele>455.32</ele>
        <time>2012-09-20T13:16:55Z</time>
      </trkpt>
      <trkpt lat="43.34953" lon="2.55302">
        <ele>454.84</ele>
        <time>2012-09-20T13:17:01Z</time>
      </trkpt>
      <trkpt lat="43.34951" lon="2.55302">
        <ele>454.84</ele>
        <time>2012-09-20T13:17:03Z</time>
      </trkpt>
      <trkpt lat="43.34945" lon="2.55298">
        <ele>454.84</ele>
        <time>2012-09-20T13:17:08Z</time>
      </trkpt>
      <trkpt lat="43.34941" lon="2.55298">
        <ele>454.36</ele>
        <time>2012-09-20T13:17:12Z</time>
      </trkpt>
      <trkpt lat="43.34931" lon="2.55295">
        <ele>454.36</ele>
        <time>2012-09-20T13:17:21Z</time>
      </trkpt>
      <trkpt lat="43.34927" lon="2.55291">
        <ele>454.36</ele>
        <time>2012-09-20T13:17:25Z</time>
      </trkpt>
      <trkpt lat="43.34923" lon="2.55285">
        <ele>454.84</ele>
        <time>2012-09-20T13:17:31Z</time>
      </trkpt>
      <trkpt lat="43.34917" lon="2.55278">
        <ele>454.36</ele>
        <time>2012-09-20T13:17:37Z</time>
      </trkpt>
      <trkpt lat="43.34906" lon="2.5527">
        <ele>454.36</ele>
        <time>2012-09-20T13:17:47Z</time>
      </trkpt>
      <trkpt lat="43.34904" lon="2.5527">
        <ele>454.36</ele>
        <time>2012-09-20T13:17:48Z</time>
      </trkpt>
      <trkpt lat="43.34898" lon="2.55271">
        <ele>453.88</ele>
        <time>2012-09-20T13:17:55Z</time>
      </trkpt>
      <trkpt lat="43.34894" lon="2.55268">
        <ele>453.88</ele>
        <time>2012-09-20T13:17:57Z</time>
      </trkpt>
      <trkpt lat="43.3488" lon="2.55262">
        <ele>454.84</ele>
        <time>2012-09-20T13:18:09Z</time>
      </trkpt>
      <trkpt lat="43.34864" lon="2.55263">
        <ele>455.32</ele>
        <time>2012-09-20T13:18:22Z</time>
      </trkpt>
      <trkpt lat="43.34857" lon="2.55265">
        <ele>455.32</ele>
        <time>2012-09-20T13:18:28Z</time>
      </trkpt>
      <trkpt lat="43.34841" lon="2.55265">
        <ele>455.8</ele>
        <time>2012-09-20T13:18:41Z</time>
      </trkpt>
      <trkpt lat="43.34835" lon="2.55263">
        <ele>455.8</ele>
        <time>2012-09-20T13:18:46Z</time>
      </trkpt>
      <trkpt lat="43.34827" lon="2.55255">
        <ele>455.8</ele>
        <time>2012-09-20T13:18:53Z</time>
      </trkpt>
      <trkpt lat="43.34823" lon="2.55252">
        <ele>456.28</ele>
        <time>2012-09-20T13:18:56Z</time>
      </trkpt>
      <trkpt lat="43.34814" lon="2.55245">
        <ele>455.32</ele>
        <time>2012-09-20T13:19:04Z</time>
      </trkpt>
      <trkpt lat="43.34809" lon="2.55243">
        <ele>454.84</ele>
        <time>2012-09-20T13:19:08Z</time>
      </trkpt>
      <trkpt lat="43.34802" lon="2.5524">
        <ele>454.84</ele>
        <time>2012-09-20T13:19:14Z</time>
      </trkpt>
      <trkpt lat="43.348" lon="2.5524">
        <ele>453.88</ele>
        <time>2012-09-20T13:19:17Z</time>
      </trkpt>
      <trkpt lat="43.34793" lon="2.55241">
        <ele>453.88</ele>
        <time>2012-09-20T13:19:24Z</time>
      </trkpt>
      <trkpt lat="43.34779" lon="2.55241">
        <ele>452.44</ele>
        <time>2012-09-20T13:19:37Z</time>
      </trkpt>
      <trkpt lat="43.34766" lon="2.55237">
        <ele>451.48</ele>
        <time>2012-09-20T13:19:50Z</time>
      </trkpt>
      <trkpt lat="43.34758" lon="2.55234">
        <ele>450.52</ele>
        <time>2012-09-20T13:19:58Z</time>
      </trkpt>
      <trkpt lat="43.34745" lon="2.55236">
        <ele>449.07</ele>
        <time>2012-09-20T13:20:10Z</time>
      </trkpt>
      <trkpt lat="43.34739" lon="2.55237">
        <ele>448.59</ele>
        <time>2012-09-20T13:20:17Z</time>
      </trkpt>
      <trkpt lat="43.3473" lon="2.55233">
        <ele>447.63</ele>
        <time>2012-09-20T13:20:27Z</time>
      </trkpt>
      <trkpt lat="43.34725" lon="2.55232">
        <ele>446.19</ele>
        <time>2012-09-20T13:20:31Z</time>
      </trkpt>
      <trkpt lat="43.34709" lon="2.55227">
        <ele>444.75</ele>
        <time>2012-09-20T13:20:45Z</time>
      </trkpt>
      <trkpt lat="43.34708" lon="2.55227">
        <ele>444.27</ele>
        <time>2012-09-20T13:20:46Z</time>
      </trkpt>
      <trkpt lat="43.34704" lon="2.55225">
        <ele>444.27</ele>
        <time>2012-09-20T13:20:50Z</time>
      </trkpt>
      <trkpt lat="43.34702" lon="2.55225">
        <ele>444.27</ele>
        <time>2012-09-20T13:20:52Z</time>
      </trkpt>
      <trkpt lat="43.34696" lon="2.55228">
        <ele>442.82</ele>
        <time>2012-09-20T13:20:58Z</time>
      </trkpt>
      <trkpt lat="43.34687" lon="2.55226">
        <ele>442.82</ele>
        <time>2012-09-20T13:21:05Z</time>
      </trkpt>
      <trkpt lat="43.34684" lon="2.55226">
        <ele>441.38</ele>
        <time>2012-09-20T13:21:08Z</time>
      </trkpt>
      <trkpt lat="43.34682" lon="2.55227">
        <ele>441.86</ele>
        <time>2012-09-20T13:21:10Z</time>
      </trkpt>
      <trkpt lat="43.34677" lon="2.55224">
        <ele>440.9</ele>
        <time>2012-09-20T13:21:14Z</time>
      </trkpt>
      <trkpt lat="43.34673" lon="2.55224">
        <ele>440.9</ele>
        <time>2012-09-20T13:21:18Z</time>
      </trkpt>
      <trkpt lat="43.34668" lon="2.5522">
        <ele>439.94</ele>
        <time>2012-09-20T13:21:31Z</time>
      </trkpt>
      <trkpt lat="43.34666" lon="2.5522">
        <ele>439.46</ele>
        <time>2012-09-20T13:21:33Z</time>
      </trkpt>
      <trkpt lat="43.34658" lon="2.55218">
        <ele>438.5</ele>
        <time>2012-09-20T13:21:41Z</time>
      </trkpt>
      <trkpt lat="43.34653" lon="2.55215">
        <ele>437.54</ele>
        <time>2012-09-20T13:21:46Z</time>
      </trkpt>
      <trkpt lat="43.34651" lon="2.55214">
        <ele>438.02</ele>
        <time>2012-09-20T13:21:48Z</time>
      </trkpt>
      <trkpt lat="43.34641" lon="2.55205">
        <ele>436.58</ele>
        <time>2012-09-20T13:21:58Z</time>
      </trkpt>
      <trkpt lat="43.34638" lon="2.55203">
        <ele>435.61</ele>
        <time>2012-09-20T13:22:02Z</time>
      </trkpt>
      <trkpt lat="43.34628" lon="2.55196">
        <ele>434.65</ele>
        <time>2012-09-20T13:22:13Z</time>
      </trkpt>
      <trkpt lat="43.34619" lon="2.55191">
        <ele>433.69</ele>
        <time>2012-09-20T13:22:22Z</time>
      </trkpt>
      <trkpt lat="43.34607" lon="2.5518">
        <ele>432.73</ele>
        <time>2012-09-20T13:22:33Z</time>
      </trkpt>
      <trkpt lat="43.34606" lon="2.55179">
        <ele>432.25</ele>
        <time>2012-09-20T13:22:35Z</time>
      </trkpt>
      <trkpt lat="43.34595" lon="2.55167">
        <ele>431.29</ele>
        <time>2012-09-20T13:22:46Z</time>
      </trkpt>
      <trkpt lat="43.34593" lon="2.55166">
        <ele>431.77</ele>
        <time>2012-09-20T13:22:49Z</time>
      </trkpt>
      <trkpt lat="43.34582" lon="2.55155">
        <ele>430.33</ele>
        <time>2012-09-20T13:23:00Z</time>
      </trkpt>
      <trkpt lat="43.34578" lon="2.55151">
        <ele>430.33</ele>
        <time>2012-09-20T13:23:04Z</time>
      </trkpt>
      <trkpt lat="43.34575" lon="2.55145">
        <ele>429.37</ele>
        <time>2012-09-20T13:23:09Z</time>
      </trkpt>
      <trkpt lat="43.34571" lon="2.55137">
        <ele>429.37</ele>
        <time>2012-09-20T13:23:16Z</time>
      </trkpt>
      <trkpt lat="43.34564" lon="2.5512">
        <ele>428.4</ele>
        <time>2012-09-20T13:23:28Z</time>
      </trkpt>
      <trkpt lat="43.34563" lon="2.55112">
        <ele>428.4</ele>
        <time>2012-09-20T13:23:33Z</time>
      </trkpt>
      <trkpt lat="43.34561" lon="2.55107">
        <ele>427.92</ele>
        <time>2012-09-20T13:23:47Z</time>
      </trkpt>
      <trkpt lat="43.34559" lon="2.55102">
        <ele>427.44</ele>
        <time>2012-09-20T13:23:52Z</time>
      </trkpt>
      <trkpt lat="43.34557" lon="2.55093">
        <ele>427.92</ele>
        <time>2012-09-20T13:23:59Z</time>
      </trkpt>
      <trkpt lat="43.34553" lon="2.55079">
        <ele>426.96</ele>
        <time>2012-09-20T13:24:09Z</time>
      </trkpt>
      <trkpt lat="43.34549" lon="2.55062">
        <ele>426.96</ele>
        <time>2012-09-20T13:24:20Z</time>
      </trkpt>
      <trkpt lat="43.34548" lon="2.5506">
        <ele>426.48</ele>
        <time>2012-09-20T13:24:22Z</time>
      </trkpt>
      <trkpt lat="43.34546" lon="2.55055">
        <ele>426.48</ele>
        <time>2012-09-20T13:24:26Z</time>
      </trkpt>
      <trkpt lat="43.34541" lon="2.55037">
        <ele>426.96</ele>
        <time>2012-09-20T13:24:39Z</time>
      </trkpt>
      <trkpt lat="43.34537" lon="2.5502">
        <ele>426.48</ele>
        <time>2012-09-20T13:24:51Z</time>
      </trkpt>
      <trkpt lat="43.34533" lon="2.55007">
        <ele>426.96</ele>
        <time>2012-09-20T13:25:00Z</time>
      </trkpt>
      <trkpt lat="43.3453" lon="2.54997">
        <ele>426.48</ele>
        <time>2012-09-20T13:25:07Z</time>
      </trkpt>
      <trkpt lat="43.34528" lon="2.54993">
        <ele>426.96</ele>
        <time>2012-09-20T13:25:10Z</time>
      </trkpt>
      <trkpt lat="43.34517" lon="2.54979">
        <ele>425.52</ele>
        <time>2012-09-20T13:25:23Z</time>
      </trkpt>
      <trkpt lat="43.34515" lon="2.54978">
        <ele>426</ele>
        <time>2012-09-20T13:25:26Z</time>
      </trkpt>
      <trkpt lat="43.3451" lon="2.54973">
        <ele>425.04</ele>
        <time>2012-09-20T13:25:32Z</time>
      </trkpt>
      <trkpt lat="43.34496" lon="2.54963">
        <ele>423.6</ele>
        <time>2012-09-20T13:25:46Z</time>
      </trkpt>
      <trkpt lat="43.34484" lon="2.54957">
        <ele>423.12</ele>
        <time>2012-09-20T13:25:57Z</time>
      </trkpt>
      <trkpt lat="43.34483" lon="2.54956">
        <ele>422.16</ele>
        <time>2012-09-20T13:25:58Z</time>
      </trkpt>
      <trkpt lat="43.34475" lon="2.54948">
        <ele>422.16</ele>
        <time>2012-09-20T13:26:07Z</time>
      </trkpt>
      <trkpt lat="43.34464" lon="2.5494">
        <ele>421.19</ele>
        <time>2012-09-20T13:26:18Z</time>
      </trkpt>
      <trkpt lat="43.3446" lon="2.5494">
        <ele>420.23</ele>
        <time>2012-09-20T13:26:22Z</time>
      </trkpt>
      <trkpt lat="43.34454" lon="2.54939">
        <ele>420.71</ele>
        <time>2012-09-20T13:26:27Z</time>
      </trkpt>
      <trkpt lat="43.34452" lon="2.5494">
        <ele>420.23</ele>
        <time>2012-09-20T13:26:29Z</time>
      </trkpt>
      <trkpt lat="43.34448" lon="2.54939">
        <ele>420.23</ele>
        <time>2012-09-20T13:26:32Z</time>
      </trkpt>
      <trkpt lat="43.34431" lon="2.54943">
        <ele>419.75</ele>
        <time>2012-09-20T13:26:47Z</time>
      </trkpt>
      <trkpt lat="43.34416" lon="2.54946">
        <ele>418.79</ele>
        <time>2012-09-20T13:27:01Z</time>
      </trkpt>
      <trkpt lat="43.34412" lon="2.54946">
        <ele>418.79</ele>
        <time>2012-09-20T13:27:04Z</time>
      </trkpt>
      <trkpt lat="43.34402" lon="2.54949">
        <ele>418.79</ele>
        <time>2012-09-20T13:27:13Z</time>
      </trkpt>
      <trkpt lat="43.34397" lon="2.54951">
        <ele>418.79</ele>
        <time>2012-09-20T13:27:18Z</time>
      </trkpt>
      <trkpt lat="43.34386" lon="2.54958">
        <ele>417.35</ele>
        <time>2012-09-20T13:27:30Z</time>
      </trkpt>
      <trkpt lat="43.34384" lon="2.5496">
        <ele>416.87</ele>
        <time>2012-09-20T13:27:33Z</time>
      </trkpt>
      <trkpt lat="43.34374" lon="2.54968">
        <ele>414.95</ele>
        <time>2012-09-20T13:27:46Z</time>
      </trkpt>
      <trkpt lat="43.34371" lon="2.54971">
        <ele>413.5</ele>
        <time>2012-09-20T13:27:57Z</time>
      </trkpt>
      <trkpt lat="43.3437" lon="2.54972">
        <ele>413.5</ele>
        <time>2012-09-20T13:27:59Z</time>
      </trkpt>
      <trkpt lat="43.34367" lon="2.54976">
        <ele>413.5</ele>
        <time>2012-09-20T13:28:04Z</time>
      </trkpt>
      <trkpt lat="43.34362" lon="2.54982">
        <ele>413.02</ele>
        <time>2012-09-20T13:28:18Z</time>
      </trkpt>
      <trkpt lat="43.34362" lon="2.54981">
        <ele>413.5</ele>
        <time>2012-09-20T13:28:30Z</time>
      </trkpt>
      <trkpt lat="43.34362" lon="2.54981">
        <ele>413.98</ele>
        <time>2012-09-20T13:28:43Z</time>
      </trkpt>
      <trkpt lat="43.34362" lon="2.54982">
        <ele>413.98</ele>
        <time>2012-09-20T13:29:04Z</time>
      </trkpt>
      <trkpt lat="43.34362" lon="2.54988">
        <ele>413.98</ele>
        <time>2012-09-20T13:29:16Z</time>
      </trkpt>
      <trkpt lat="43.34356" lon="2.54998">
        <ele>412.06</ele>
        <time>2012-09-20T13:29:31Z</time>
      </trkpt>
      <trkpt lat="43.34352" lon="2.55006">
        <ele>411.58</ele>
        <time>2012-09-20T13:29:43Z</time>
      </trkpt>
      <trkpt lat="43.34351" lon="2.55009">
        <ele>411.1</ele>
        <time>2012-09-20T13:29:53Z</time>
      </trkpt>
      <trkpt lat="43.34347" lon="2.55012">
        <ele>411.1</ele>
        <time>2012-09-20T13:30:05Z</time>
      </trkpt>
      <trkpt lat="43.34344" lon="2.55012">
        <ele>410.14</ele>
        <time>2012-09-20T13:30:13Z</time>
      </trkpt>
      <trkpt lat="43.34336" lon="2.55016">
        <ele>408.22</ele>
        <time>2012-09-20T13:30:26Z</time>
      </trkpt>
      <trkpt lat="43.3433" lon="2.55015">
        <ele>407.74</ele>
        <time>2012-09-20T13:30:39Z</time>
      </trkpt>
      <trkpt lat="43.34326" lon="2.55015">
        <ele>407.26</ele>
        <time>2012-09-20T13:30:51Z</time>
      </trkpt>
      <trkpt lat="43.34326" lon="2.55014">
        <ele>406.77</ele>
        <time>2012-09-20T13:31:05Z</time>
      </trkpt>
      <trkpt lat="43.34323" lon="2.55015">
        <ele>406.77</ele>
        <time>2012-09-20T13:31:17Z</time>
      </trkpt>
      <trkpt lat="43.34325" lon="2.55018">
        <ele>406.77</ele>
        <time>2012-09-20T13:31:31Z</time>
      </trkpt>
      <trkpt lat="43.34318" lon="2.55026">
        <ele>407.26</ele>
        <time>2012-09-20T13:31:42Z</time>
      </trkpt>
      <trkpt lat="43.34316" lon="2.55027">
        <ele>407.26</ele>
        <time>2012-09-20T13:31:45Z</time>
      </trkpt>
      <trkpt lat="43.34309" lon="2.55029">
        <ele>405.81</ele>
        <time>2012-09-20T13:31:57Z</time>
      </trkpt>
      <trkpt lat="43.34307" lon="2.55028">
        <ele>405.33</ele>
        <time>2012-09-20T13:32:00Z</time>
      </trkpt>
      <trkpt lat="43.34305" lon="2.55028">
        <ele>405.33</ele>
        <time>2012-09-20T13:32:02Z</time>
      </trkpt>
      <trkpt lat="43.34302" lon="2.5502">
        <ele>405.33</ele>
        <time>2012-09-20T13:32:12Z</time>
      </trkpt>
      <trkpt lat="43.34304" lon="2.55011">
        <ele>405.81</ele>
        <time>2012-09-20T13:32:20Z</time>
      </trkpt>
      <trkpt lat="43.34305" lon="2.55001">
        <ele>405.81</ele>
        <time>2012-09-20T13:32:32Z</time>
      </trkpt>
      <trkpt lat="43.34301" lon="2.54994">
        <ele>404.85</ele>
        <time>2012-09-20T13:32:45Z</time>
      </trkpt>
      <trkpt lat="43.34298" lon="2.54991">
        <ele>402.93</ele>
        <time>2012-09-20T13:32:57Z</time>
      </trkpt>
      <trkpt lat="43.34296" lon="2.54988">
        <ele>402.93</ele>
        <time>2012-09-20T13:33:07Z</time>
      </trkpt>
      <trkpt lat="43.34295" lon="2.54987">
        <ele>402.93</ele>
        <time>2012-09-20T13:33:08Z</time>
      </trkpt>
      <trkpt lat="43.34292" lon="2.5498">
        <ele>402.45</ele>
        <time>2012-09-20T13:33:14Z</time>
      </trkpt>
      <trkpt lat="43.3429" lon="2.5498">
        <ele>402.45</ele>
        <time>2012-09-20T13:33:16Z</time>
      </trkpt>
      <trkpt lat="43.34288" lon="2.54979">
        <ele>402.45</ele>
        <time>2012-09-20T13:33:18Z</time>
      </trkpt>
      <trkpt lat="43.34285" lon="2.54977">
        <ele>402.45</ele>
        <time>2012-09-20T13:33:21Z</time>
      </trkpt>
      <trkpt lat="43.34286" lon="2.54957">
        <ele>401.97</ele>
        <time>2012-09-20T13:33:34Z</time>
      </trkpt>
      <trkpt lat="43.34292" lon="2.54947">
        <ele>401.49</ele>
        <time>2012-09-20T13:33:42Z</time>
      </trkpt>
      <trkpt lat="43.34293" lon="2.5494">
        <ele>401.49</ele>
        <time>2012-09-20T13:33:46Z</time>
      </trkpt>
      <trkpt lat="43.34292" lon="2.54933">
        <ele>401.49</ele>
        <time>2012-09-20T13:33:52Z</time>
      </trkpt>
      <trkpt lat="43.34286" lon="2.54915">
        <ele>400.53</ele>
        <time>2012-09-20T13:34:05Z</time>
      </trkpt>
      <trkpt lat="43.34286" lon="2.54913">
        <ele>400.53</ele>
        <time>2012-09-20T13:34:06Z</time>
      </trkpt>
      <trkpt lat="43.34285" lon="2.54906">
        <ele>400.53</ele>
        <time>2012-09-20T13:34:10Z</time>
      </trkpt>
      <trkpt lat="43.34283" lon="2.54893">
        <ele>400.53</ele>
        <time>2012-09-20T13:34:19Z</time>
      </trkpt>
      <trkpt lat="43.34283" lon="2.54885">
        <ele>400.05</ele>
        <time>2012-09-20T13:34:24Z</time>
      </trkpt>
      <trkpt lat="43.34282" lon="2.54879">
        <ele>400.53</ele>
        <time>2012-09-20T13:34:28Z</time>
      </trkpt>
      <trkpt lat="43.34279" lon="2.54864">
        <ele>400.05</ele>
        <time>2012-09-20T13:34:38Z</time>
      </trkpt>
      <trkpt lat="43.34279" lon="2.54853">
        <ele>399.57</ele>
        <time>2012-09-20T13:34:45Z</time>
      </trkpt>
      <trkpt lat="43.34279" lon="2.54851">
        <ele>399.57</ele>
        <time>2012-09-20T13:34:47Z</time>
      </trkpt>
      <trkpt lat="43.34278" lon="2.54842">
        <ele>399.08</ele>
        <time>2012-09-20T13:34:52Z</time>
      </trkpt>
      <trkpt lat="43.3428" lon="2.54838">
        <ele>399.57</ele>
        <time>2012-09-20T13:34:55Z</time>
      </trkpt>
      <trkpt lat="43.3428" lon="2.54831">
        <ele>399.08</ele>
        <time>2012-09-20T13:34:59Z</time>
      </trkpt>
      <trkpt lat="43.3428" lon="2.54827">
        <ele>399.08</ele>
        <time>2012-09-20T13:35:02Z</time>
      </trkpt>
      <trkpt lat="43.34279" lon="2.54818">
        <ele>397.64</ele>
        <time>2012-09-20T13:35:08Z</time>
      </trkpt>
      <trkpt lat="43.34277" lon="2.54806">
        <ele>397.16</ele>
        <time>2012-09-20T13:35:15Z</time>
      </trkpt>
      <trkpt lat="43.34275" lon="2.54799">
        <ele>396.68</ele>
        <time>2012-09-20T13:35:20Z</time>
      </trkpt>
      <trkpt lat="43.34275" lon="2.54794">
        <ele>397.16</ele>
        <time>2012-09-20T13:35:23Z</time>
      </trkpt>
      <trkpt lat="43.3427" lon="2.54773">
        <ele>396.68</ele>
        <time>2012-09-20T13:35:35Z</time>
      </trkpt>
      <trkpt lat="43.34268" lon="2.54769">
        <ele>396.68</ele>
        <time>2012-09-20T13:35:38Z</time>
      </trkpt>
      <trkpt lat="43.34262" lon="2.54754">
        <ele>396.2</ele>
        <time>2012-09-20T13:35:51Z</time>
      </trkpt>
      <trkpt lat="43.34259" lon="2.5475">
        <ele>395.72</ele>
        <time>2012-09-20T13:35:54Z</time>
      </trkpt>
      <trkpt lat="43.34249" lon="2.54737">
        <ele>394.76</ele>
        <time>2012-09-20T13:36:03Z</time>
      </trkpt>
      <trkpt lat="43.34239" lon="2.54723">
        <ele>393.8</ele>
        <time>2012-09-20T13:36:13Z</time>
      </trkpt>
      <trkpt lat="43.34239" lon="2.54722">
        <ele>393.8</ele>
        <time>2012-09-20T13:36:14Z</time>
      </trkpt>
      <trkpt lat="43.34234" lon="2.54714">
        <ele>393.32</ele>
        <time>2012-09-20T13:36:21Z</time>
      </trkpt>
      <trkpt lat="43.34228" lon="2.547">
        <ele>392.84</ele>
        <time>2012-09-20T13:36:31Z</time>
      </trkpt>
      <trkpt lat="43.34223" lon="2.54691">
        <ele>392.36</ele>
        <time>2012-09-20T13:36:38Z</time>
      </trkpt>
      <trkpt lat="43.34218" lon="2.54687">
        <ele>391.87</ele>
        <time>2012-09-20T13:36:49Z</time>
      </trkpt>
      <trkpt lat="43.34218" lon="2.54686">
        <ele>391.87</ele>
        <time>2012-09-20T13:37:05Z</time>
      </trkpt>
      <trkpt lat="43.34217" lon="2.54687">
        <ele>391.39</ele>
        <time>2012-09-20T13:37:28Z</time>
      </trkpt>
      <trkpt lat="43.34217" lon="2.54688">
        <ele>391.87</ele>
        <time>2012-09-20T13:37:38Z</time>
      </trkpt>
      <trkpt lat="43.34216" lon="2.54688">
        <ele>389.95</ele>
        <time>2012-09-20T13:37:49Z</time>
      </trkpt>
      <trkpt lat="43.34217" lon="2.54688">
        <ele>390.91</ele>
        <time>2012-09-20T13:38:15Z</time>
      </trkpt>
      <trkpt lat="43.34217" lon="2.54688">
        <ele>390.91</ele>
        <time>2012-09-20T13:38:49Z</time>
      </trkpt>
      <trkpt lat="43.34217" lon="2.54688">
        <ele>391.87</ele>
        <time>2012-09-20T13:39:14Z</time>
      </trkpt>
      <trkpt lat="43.34216" lon="2.54688">
        <ele>391.87</ele>
        <time>2012-09-20T13:39:29Z</time>
      </trkpt>
      <trkpt lat="43.34216" lon="2.54687">
        <ele>391.87</ele>
        <time>2012-09-20T13:39:45Z</time>
      </trkpt>
      <trkpt lat="43.34216" lon="2.54686">
        <ele>391.87</ele>
        <time>2012-09-20T13:39:57Z</time>
      </trkpt>
      <trkpt lat="43.34217" lon="2.54688">
        <ele>391.87</ele>
        <time>2012-09-20T13:40:10Z</time>
      </trkpt>
      <trkpt lat="43.34216" lon="2.54688">
        <ele>391.39</ele>
        <time>2012-09-20T13:40:22Z</time>
      </trkpt>
      <trkpt lat="43.34215" lon="2.54687">
        <ele>391.39</ele>
        <time>2012-09-20T13:40:42Z</time>
      </trkpt>
      <trkpt lat="43.34215" lon="2.54686">
        <ele>391.87</ele>
        <time>2012-09-20T13:41:13Z</time>
      </trkpt>
      <trkpt lat="43.34215" lon="2.54685">
        <ele>392.36</ele>
        <time>2012-09-20T13:41:30Z</time>
      </trkpt>
      <trkpt lat="43.34216" lon="2.54685">
        <ele>391.87</ele>
        <time>2012-09-20T13:41:45Z</time>
      </trkpt>
      <trkpt lat="43.34216" lon="2.54685">
        <ele>391.87</ele>
        <time>2012-09-20T13:42:03Z</time>
      </trkpt>
      <trkpt lat="43.34216" lon="2.54685">
        <ele>392.36</ele>
        <time>2012-09-20T13:42:15Z</time>
      </trkpt>
      <trkpt lat="43.34216" lon="2.54685">
        <ele>391.87</ele>
        <time>2012-09-20T13:42:31Z</time>
      </trkpt>
      <trkpt lat="43.34216" lon="2.54685">
        <ele>391.87</ele>
        <time>2012-09-20T13:42:49Z</time>
      </trkpt>
      <trkpt lat="43.34209" lon="2.5469">
        <ele>391.87</ele>
        <time>2012-09-20T13:43:01Z</time>
      </trkpt>
      <trkpt lat="43.34202" lon="2.54695">
        <ele>390.43</ele>
        <time>2012-09-20T13:43:11Z</time>
      </trkpt>
      <trkpt lat="43.34196" lon="2.54699">
        <ele>389.95</ele>
        <time>2012-09-20T13:43:19Z</time>
      </trkpt>
      <trkpt lat="43.34185" lon="2.54709">
        <ele>388.99</ele>
        <time>2012-09-20T13:43:33Z</time>
      </trkpt>
      <trkpt lat="43.34184" lon="2.54722">
        <ele>387.55</ele>
        <time>2012-09-20T13:43:45Z</time>
      </trkpt>
      <trkpt lat="43.34182" lon="2.54733">
        <ele>386.59</ele>
        <time>2012-09-20T13:43:54Z</time>
      </trkpt>
      <trkpt lat="43.3418" lon="2.54743">
        <ele>386.59</ele>
        <time>2012-09-20T13:44:03Z</time>
      </trkpt>
      <trkpt lat="43.34174" lon="2.54755">
        <ele>386.11</ele>
        <time>2012-09-20T13:44:16Z</time>
      </trkpt>
      <trkpt lat="43.34165" lon="2.5476">
        <ele>385.15</ele>
        <time>2012-09-20T13:44:29Z</time>
      </trkpt>
      <trkpt lat="43.34162" lon="2.5476">
        <ele>384.18</ele>
        <time>2012-09-20T13:44:33Z</time>
      </trkpt>
      <trkpt lat="43.34156" lon="2.54758">
        <ele>382.74</ele>
        <time>2012-09-20T13:44:41Z</time>
      </trkpt>
      <trkpt lat="43.34151" lon="2.54751">
        <ele>381.78</ele>
        <time>2012-09-20T13:44:50Z</time>
      </trkpt>
      <trkpt lat="43.34147" lon="2.54745">
        <ele>381.3</ele>
        <time>2012-09-20T13:44:55Z</time>
      </trkpt>
      <trkpt lat="43.34146" lon="2.54741">
        <ele>380.82</ele>
        <time>2012-09-20T13:44:59Z</time>
      </trkpt>
      <trkpt lat="43.34144" lon="2.54738">
        <ele>380.34</ele>
        <time>2012-09-20T13:45:02Z</time>
      </trkpt>
      <trkpt lat="43.34138" lon="2.54733">
        <ele>379.86</ele>
        <time>2012-09-20T13:45:10Z</time>
      </trkpt>
      <trkpt lat="43.34133" lon="2.54733">
        <ele>379.86</ele>
        <time>2012-09-20T13:45:14Z</time>
      </trkpt>
      <trkpt lat="43.34127" lon="2.54727">
        <ele>378.9</ele>
        <time>2012-09-20T13:45:20Z</time>
      </trkpt>
      <trkpt lat="43.34124" lon="2.54725">
        <ele>378.9</ele>
        <time>2012-09-20T13:45:25Z</time>
      </trkpt>
      <trkpt lat="43.34123" lon="2.54723">
        <ele>379.38</ele>
        <time>2012-09-20T13:45:27Z</time>
      </trkpt>
      <trkpt lat="43.34115" lon="2.54718">
        <ele>377.94</ele>
        <time>2012-09-20T13:45:35Z</time>
      </trkpt>
      <trkpt lat="43.34102" lon="2.54714">
        <ele>377.45</ele>
        <time>2012-09-20T13:45:47Z</time>
      </trkpt>
      <trkpt lat="43.34092" lon="2.54706">
        <ele>376.97</ele>
        <time>2012-09-20T13:45:57Z</time>
      </trkpt>
      <trkpt lat="43.34089" lon="2.54704">
        <ele>376.49</ele>
        <time>2012-09-20T13:46:01Z</time>
      </trkpt>
      <trkpt lat="43.34087" lon="2.54705">
        <ele>376.01</ele>
        <time>2012-09-20T13:46:04Z</time>
      </trkpt>
      <trkpt lat="43.34084" lon="2.54705">
        <ele>376.01</ele>
        <time>2012-09-20T13:46:07Z</time>
      </trkpt>
      <trkpt lat="43.3408" lon="2.54704">
        <ele>375.53</ele>
        <time>2012-09-20T13:46:10Z</time>
      </trkpt>
      <trkpt lat="43.34078" lon="2.54705">
        <ele>376.01</ele>
        <time>2012-09-20T13:46:13Z</time>
      </trkpt>
      <trkpt lat="43.34075" lon="2.54704">
        <ele>375.53</ele>
        <time>2012-09-20T13:46:16Z</time>
      </trkpt>
      <trkpt lat="43.34071" lon="2.54699">
        <ele>374.57</ele>
        <time>2012-09-20T13:46:26Z</time>
      </trkpt>
      <trkpt lat="43.34067" lon="2.54699">
        <ele>373.61</ele>
        <time>2012-09-20T13:46:39Z</time>
      </trkpt>
      <trkpt lat="43.34057" lon="2.54702">
        <ele>372.65</ele>
        <time>2012-09-20T13:46:56Z</time>
      </trkpt>
      <trkpt lat="43.34055" lon="2.54701">
        <ele>372.65</ele>
        <time>2012-09-20T13:46:58Z</time>
      </trkpt>
      <trkpt lat="43.34046" lon="2.54706">
        <ele>370.73</ele>
        <time>2012-09-20T13:47:13Z</time>
      </trkpt>
      <trkpt lat="43.34037" lon="2.54709">
        <ele>369.76</ele>
        <time>2012-09-20T13:47:25Z</time>
      </trkpt>
      <trkpt lat="43.34036" lon="2.54707">
        <ele>369.76</ele>
        <time>2012-09-20T13:47:38Z</time>
      </trkpt>
      <trkpt lat="43.34035" lon="2.54708">
        <ele>369.28</ele>
        <time>2012-09-20T13:47:52Z</time>
      </trkpt>
      <trkpt lat="43.34035" lon="2.54711">
        <ele>368.8</ele>
        <time>2012-09-20T13:48:07Z</time>
      </trkpt>
      <trkpt lat="43.34036" lon="2.54711">
        <ele>369.28</ele>
        <time>2012-09-20T13:48:26Z</time>
      </trkpt>
      <trkpt lat="43.34033" lon="2.54713">
        <ele>368.8</ele>
        <time>2012-09-20T13:48:44Z</time>
      </trkpt>
      <trkpt lat="43.34027" lon="2.54715">
        <ele>367.36</ele>
        <time>2012-09-20T13:48:56Z</time>
      </trkpt>
      <trkpt lat="43.34018" lon="2.54722">
        <ele>366.4</ele>
        <time>2012-09-20T13:49:09Z</time>
      </trkpt>
      <trkpt lat="43.34013" lon="2.54723">
        <ele>365.44</ele>
        <time>2012-09-20T13:49:15Z</time>
      </trkpt>
      <trkpt lat="43.34009" lon="2.54722">
        <ele>364.96</ele>
        <time>2012-09-20T13:49:18Z</time>
      </trkpt>
      <trkpt lat="43.33999" lon="2.54728">
        <ele>364.48</ele>
        <time>2012-09-20T13:49:31Z</time>
      </trkpt>
      <trkpt lat="43.33988" lon="2.54733">
        <ele>362.07</ele>
        <time>2012-09-20T13:49:43Z</time>
      </trkpt>
      <trkpt lat="43.33982" lon="2.54734">
        <ele>361.59</ele>
        <time>2012-09-20T13:49:50Z</time>
      </trkpt>
      <trkpt lat="43.33974" lon="2.54735">
        <ele>360.63</ele>
        <time>2012-09-20T13:50:00Z</time>
      </trkpt>
      <trkpt lat="43.33965" lon="2.54739">
        <ele>358.71</ele>
        <time>2012-09-20T13:50:13Z</time>
      </trkpt>
      <trkpt lat="43.33956" lon="2.54742">
        <ele>357.75</ele>
        <time>2012-09-20T13:50:26Z</time>
      </trkpt>
      <trkpt lat="43.33952" lon="2.5474">
        <ele>356.79</ele>
        <time>2012-09-20T13:50:34Z</time>
      </trkpt>
      <trkpt lat="43.33946" lon="2.54741">
        <ele>354.86</ele>
        <time>2012-09-20T13:50:44Z</time>
      </trkpt>
      <trkpt lat="43.33945" lon="2.54742">
        <ele>354.86</ele>
        <time>2012-09-20T13:50:48Z</time>
      </trkpt>
      <trkpt lat="43.33939" lon="2.54744">
        <ele>353.9</ele>
        <time>2012-09-20T13:51:00Z</time>
      </trkpt>
      <trkpt lat="43.33935" lon="2.54744">
        <ele>352.94</ele>
        <time>2012-09-20T13:51:04Z</time>
      </trkpt>
      <trkpt lat="43.33926" lon="2.54747">
        <ele>351.98</ele>
        <time>2012-09-20T13:51:17Z</time>
      </trkpt>
      <trkpt lat="43.3392" lon="2.54748">
        <ele>351.5</ele>
        <time>2012-09-20T13:51:24Z</time>
      </trkpt>
      <trkpt lat="43.33909" lon="2.54753">
        <ele>349.58</ele>
        <time>2012-09-20T13:51:37Z</time>
      </trkpt>
      <trkpt lat="43.339" lon="2.54754">
        <ele>348.13</ele>
        <time>2012-09-20T13:51:48Z</time>
      </trkpt>
      <trkpt lat="43.33895" lon="2.54756">
        <ele>348.13</ele>
        <time>2012-09-20T13:52:00Z</time>
      </trkpt>
      <trkpt lat="43.3389" lon="2.54762">
        <ele>348.62</ele>
        <time>2012-09-20T13:52:08Z</time>
      </trkpt>
      <trkpt lat="43.33888" lon="2.54767">
        <ele>349.1</ele>
        <time>2012-09-20T13:52:13Z</time>
      </trkpt>
      <trkpt lat="43.33881" lon="2.54771">
        <ele>348.13</ele>
        <time>2012-09-20T13:52:25Z</time>
      </trkpt>
      <trkpt lat="43.3388" lon="2.54773">
        <ele>347.65</ele>
        <time>2012-09-20T13:52:28Z</time>
      </trkpt>
      <trkpt lat="43.33871" lon="2.54777">
        <ele>345.73</ele>
        <time>2012-09-20T13:52:41Z</time>
      </trkpt>
      <trkpt lat="43.33865" lon="2.54779">
        <ele>343.81</ele>
        <time>2012-09-20T13:52:55Z</time>
      </trkpt>
      <trkpt lat="43.33862" lon="2.54781">
        <ele>342.37</ele>
        <time>2012-09-20T13:53:08Z</time>
      </trkpt>
      <trkpt lat="43.33855" lon="2.54787">
        <ele>342.37</ele>
        <time>2012-09-20T13:53:21Z</time>
      </trkpt>
      <trkpt lat="43.3385" lon="2.5479">
        <ele>341.41</ele>
        <time>2012-09-20T13:53:29Z</time>
      </trkpt>
      <trkpt lat="43.33848" lon="2.54791">
        <ele>340.44</ele>
        <time>2012-09-20T13:53:42Z</time>
      </trkpt>
      <trkpt lat="43.33841" lon="2.54793">
        <ele>338.52</ele>
        <time>2012-09-20T13:53:55Z</time>
      </trkpt>
      <trkpt lat="43.3384" lon="2.54793">
        <ele>337.56</ele>
        <time>2012-09-20T13:53:57Z</time>
      </trkpt>
      <trkpt lat="43.33838" lon="2.54796">
        <ele>336.6</ele>
        <time>2012-09-20T13:54:02Z</time>
      </trkpt>
      <trkpt lat="43.33837" lon="2.54796">
        <ele>337.08</ele>
        <time>2012-09-20T13:54:03Z</time>
      </trkpt>
      <trkpt lat="43.33835" lon="2.54801">
        <ele>336.6</ele>
        <time>2012-09-20T13:54:07Z</time>
      </trkpt>
      <trkpt lat="43.33829" lon="2.54816">
        <ele>335.16</ele>
        <time>2012-09-20T13:54:22Z</time>
      </trkpt>
      <trkpt lat="43.33828" lon="2.54822">
        <ele>336.6</ele>
        <time>2012-09-20T13:54:32Z</time>
      </trkpt>
      <trkpt lat="43.33829" lon="2.54832">
        <ele>337.08</ele>
        <time>2012-09-20T13:54:43Z</time>
      </trkpt>
      <trkpt lat="43.33829" lon="2.54837">
        <ele>337.56</ele>
        <time>2012-09-20T13:54:47Z</time>
      </trkpt>
      <trkpt lat="43.33827" lon="2.54851">
        <ele>338.52</ele>
        <time>2012-09-20T13:55:00Z</time>
      </trkpt>
      <trkpt lat="43.3383" lon="2.54857">
        <ele>340.44</ele>
        <time>2012-09-20T13:55:11Z</time>
      </trkpt>
      <trkpt lat="43.33826" lon="2.54867">
        <ele>340.92</ele>
        <time>2012-09-20T13:55:22Z</time>
      </trkpt>
      <trkpt lat="43.33821" lon="2.54875">
        <ele>339.96</ele>
        <time>2012-09-20T13:55:35Z</time>
      </trkpt>
      <trkpt lat="43.33819" lon="2.54879">
        <ele>337.56</ele>
        <time>2012-09-20T13:55:48Z</time>
      </trkpt>
      <trkpt lat="43.33812" lon="2.54887">
        <ele>334.68</ele>
        <time>2012-09-20T13:56:03Z</time>
      </trkpt>
      <trkpt lat="43.33809" lon="2.54892">
        <ele>332.27</ele>
        <time>2012-09-20T13:56:17Z</time>
      </trkpt>
      <trkpt lat="43.33809" lon="2.54896">
        <ele>331.79</ele>
        <time>2012-09-20T13:56:24Z</time>
      </trkpt>
      <trkpt lat="43.3381" lon="2.5491">
        <ele>330.83</ele>
        <time>2012-09-20T13:56:39Z</time>
      </trkpt>
      <trkpt lat="43.3381" lon="2.54915">
        <ele>329.87</ele>
        <time>2012-09-20T13:56:43Z</time>
      </trkpt>
      <trkpt lat="43.33814" lon="2.54931">
        <ele>328.43</ele>
        <time>2012-09-20T13:56:57Z</time>
      </trkpt>
      <trkpt lat="43.33814" lon="2.54936">
        <ele>326.5</ele>
        <time>2012-09-20T13:57:13Z</time>
      </trkpt>
      <trkpt lat="43.33815" lon="2.54944">
        <ele>325.54</ele>
        <time>2012-09-20T13:57:23Z</time>
      </trkpt>
      <trkpt lat="43.33814" lon="2.54955">
        <ele>323.14</ele>
        <time>2012-09-20T13:57:35Z</time>
      </trkpt>
      <trkpt lat="43.33816" lon="2.54967">
        <ele>321.7</ele>
        <time>2012-09-20T13:57:47Z</time>
      </trkpt>
      <trkpt lat="43.33814" lon="2.54977">
        <ele>318.33</ele>
        <time>2012-09-20T13:57:59Z</time>
      </trkpt>
      <trkpt lat="43.33811" lon="2.5498">
        <ele>317.37</ele>
        <time>2012-09-20T13:58:11Z</time>
      </trkpt>
      <trkpt lat="43.33811" lon="2.54987">
        <ele>316.41</ele>
        <time>2012-09-20T13:58:25Z</time>
      </trkpt>
      <trkpt lat="43.3381" lon="2.54997">
        <ele>313.53</ele>
        <time>2012-09-20T13:58:36Z</time>
      </trkpt>
      <trkpt lat="43.3381" lon="2.55008">
        <ele>311.12</ele>
        <time>2012-09-20T13:58:46Z</time>
      </trkpt>
      <trkpt lat="43.33804" lon="2.55012">
        <ele>309.2</ele>
        <time>2012-09-20T13:59:00Z</time>
      </trkpt>
      <trkpt lat="43.33801" lon="2.55015">
        <ele>307.28</ele>
        <time>2012-09-20T13:59:12Z</time>
      </trkpt>
      <trkpt lat="43.33795" lon="2.5502">
        <ele>304.39</ele>
        <time>2012-09-20T13:59:25Z</time>
      </trkpt>
      <trkpt lat="43.33792" lon="2.55025">
        <ele>302.47</ele>
        <time>2012-09-20T13:59:37Z</time>
      </trkpt>
      <trkpt lat="43.33792" lon="2.5503">
        <ele>301.03</ele>
        <time>2012-09-20T13:59:49Z</time>
      </trkpt>
      <trkpt lat="43.33791" lon="2.55031">
        <ele>300.55</ele>
        <time>2012-09-20T13:59:56Z</time>
      </trkpt>
      <trkpt lat="43.3379" lon="2.55027">
        <ele>300.07</ele>
        <time>2012-09-20T13:59:59Z</time>
      </trkpt>
      <trkpt lat="43.33787" lon="2.55021">
        <ele>300.07</ele>
        <time>2012-09-20T14:00:10Z</time>
      </trkpt>
      <trkpt lat="43.33788" lon="2.55015">
        <ele>300.07</ele>
        <time>2012-09-20T14:00:16Z</time>
      </trkpt>
      <trkpt lat="43.33791" lon="2.54999">
        <ele>300.07</ele>
        <time>2012-09-20T14:00:30Z</time>
      </trkpt>
      <trkpt lat="43.33789" lon="2.5499">
        <ele>300.07</ele>
        <time>2012-09-20T14:00:42Z</time>
      </trkpt>
      <trkpt lat="43.33785" lon="2.54982">
        <ele>300.55</ele>
        <time>2012-09-20T14:00:53Z</time>
      </trkpt>
      <trkpt lat="43.33785" lon="2.54976">
        <ele>300.55</ele>
        <time>2012-09-20T14:01:05Z</time>
      </trkpt>
      <trkpt lat="43.33787" lon="2.54973">
        <ele>300.55</ele>
        <time>2012-09-20T14:01:13Z</time>
      </trkpt>
      <trkpt lat="43.33785" lon="2.54968">
        <ele>300.55</ele>
        <time>2012-09-20T14:01:24Z</time>
      </trkpt>
      <trkpt lat="43.33786" lon="2.54964">
        <ele>300.55</ele>
        <time>2012-09-20T14:01:32Z</time>
      </trkpt>
      <trkpt lat="43.33792" lon="2.54961">
        <ele>301.03</ele>
        <time>2012-09-20T14:01:43Z</time>
      </trkpt>
      <trkpt lat="43.33795" lon="2.54953">
        <ele>301.03</ele>
        <time>2012-09-20T14:01:54Z</time>
      </trkpt>
      <trkpt lat="43.33796" lon="2.54944">
        <ele>302.47</ele>
        <time>2012-09-20T14:02:07Z</time>
      </trkpt>
      <trkpt lat="43.33794" lon="2.54944">
        <ele>302.47</ele>
        <time>2012-09-20T14:02:25Z</time>
      </trkpt>
      <trkpt lat="43.33793" lon="2.54946">
        <ele>302.47</ele>
        <time>2012-09-20T14:02:41Z</time>
      </trkpt>
      <trkpt lat="43.33794" lon="2.54954">
        <ele>301.99</ele>
        <time>2012-09-20T14:02:55Z</time>
      </trkpt>
      <trkpt lat="43.33794" lon="2.54961">
        <ele>300.55</ele>
        <time>2012-09-20T14:03:08Z</time>
      </trkpt>
      <trkpt lat="43.33793" lon="2.54963">
        <ele>300.55</ele>
        <time>2012-09-20T14:03:24Z</time>
      </trkpt>
      <trkpt lat="43.33791" lon="2.54966">
        <ele>300.07</ele>
        <time>2012-09-20T14:03:37Z</time>
      </trkpt>
      <trkpt lat="43.33796" lon="2.54976">
        <ele>301.03</ele>
        <time>2012-09-20T14:03:50Z</time>
      </trkpt>
      <trkpt lat="43.338" lon="2.54988">
        <ele>300.55</ele>
        <time>2012-09-20T14:04:04Z</time>
      </trkpt>
      <trkpt lat="43.33795" lon="2.54991">
        <ele>300.55</ele>
        <time>2012-09-20T14:04:22Z</time>
      </trkpt>
      <trkpt lat="43.33794" lon="2.54994">
        <ele>301.03</ele>
        <time>2012-09-20T14:04:40Z</time>
      </trkpt>
      <trkpt lat="43.3379" lon="2.55006">
        <ele>300.07</ele>
        <time>2012-09-20T14:04:54Z</time>
      </trkpt>
      <trkpt lat="43.33785" lon="2.55018">
        <ele>300.07</ele>
        <time>2012-09-20T14:05:07Z</time>
      </trkpt>
      <trkpt lat="43.3379" lon="2.55029">
        <ele>300.55</ele>
        <time>2012-09-20T14:05:21Z</time>
      </trkpt>
      <trkpt lat="43.33793" lon="2.55035">
        <ele>300.55</ele>
        <time>2012-09-20T14:05:34Z</time>
      </trkpt>
      <trkpt lat="43.33794" lon="2.5504">
        <ele>299.59</ele>
        <time>2012-09-20T14:05:45Z</time>
      </trkpt>
      <trkpt lat="43.33798" lon="2.55046">
        <ele>299.11</ele>
        <time>2012-09-20T14:05:52Z</time>
      </trkpt>
      <trkpt lat="43.33806" lon="2.55055">
        <ele>299.59</ele>
        <time>2012-09-20T14:06:05Z</time>
      </trkpt>
      <trkpt lat="43.33809" lon="2.55063">
        <ele>299.59</ele>
        <time>2012-09-20T14:06:18Z</time>
      </trkpt>
      <trkpt lat="43.33816" lon="2.55074">
        <ele>300.07</ele>
        <time>2012-09-20T14:06:30Z</time>
      </trkpt>
      <trkpt lat="43.33824" lon="2.5508">
        <ele>299.59</ele>
        <time>2012-09-20T14:06:42Z</time>
      </trkpt>
      <trkpt lat="43.33825" lon="2.55085">
        <ele>300.07</ele>
        <time>2012-09-20T14:06:53Z</time>
      </trkpt>
      <trkpt lat="43.33827" lon="2.55088">
        <ele>299.59</ele>
        <time>2012-09-20T14:07:14Z</time>
      </trkpt>
      <trkpt lat="43.33829" lon="2.55091">
        <ele>299.59</ele>
        <time>2012-09-20T14:07:27Z</time>
      </trkpt>
      <trkpt lat="43.33832" lon="2.55096">
        <ele>300.07</ele>
        <time>2012-09-20T14:07:35Z</time>
      </trkpt>
      <trkpt lat="43.33834" lon="2.55097">
        <ele>299.59</ele>
        <time>2012-09-20T14:07:37Z</time>
      </trkpt>
      <trkpt lat="43.33841" lon="2.55105">
        <ele>300.55</ele>
        <time>2012-09-20T14:07:45Z</time>
      </trkpt>
      <trkpt lat="43.33849" lon="2.55113">
        <ele>299.59</ele>
        <time>2012-09-20T14:07:55Z</time>
      </trkpt>
      <trkpt lat="43.33852" lon="2.55115">
        <ele>299.59</ele>
        <time>2012-09-20T14:07:59Z</time>
      </trkpt>
      <trkpt lat="43.33861" lon="2.55123">
        <ele>300.55</ele>
        <time>2012-09-20T14:08:12Z</time>
      </trkpt>
      <trkpt lat="43.33863" lon="2.55126">
        <ele>300.55</ele>
        <time>2012-09-20T14:08:17Z</time>
      </trkpt>
      <trkpt lat="43.33865" lon="2.55133">
        <ele>299.11</ele>
        <time>2012-09-20T14:08:23Z</time>
      </trkpt>
      <trkpt lat="43.33866" lon="2.5515">
        <ele>300.07</ele>
        <time>2012-09-20T14:08:33Z</time>
      </trkpt>
      <trkpt lat="43.33869" lon="2.55166">
        <ele>299.59</ele>
        <time>2012-09-20T14:08:45Z</time>
      </trkpt>
      <trkpt lat="43.33874" lon="2.55176">
        <ele>299.11</ele>
        <time>2012-09-20T14:08:56Z</time>
      </trkpt>
      <trkpt lat="43.33875" lon="2.55186">
        <ele>297.67</ele>
        <time>2012-09-20T14:09:09Z</time>
      </trkpt>
      <trkpt lat="43.33876" lon="2.55198">
        <ele>295.74</ele>
        <time>2012-09-20T14:09:22Z</time>
      </trkpt>
      <trkpt lat="43.33873" lon="2.55202">
        <ele>292.38</ele>
        <time>2012-09-20T14:09:33Z</time>
      </trkpt>
      <trkpt lat="43.33871" lon="2.55207">
        <ele>291.42</ele>
        <time>2012-09-20T14:09:42Z</time>
      </trkpt>
      <trkpt lat="43.33868" lon="2.55217">
        <ele>288.53</ele>
        <time>2012-09-20T14:09:55Z</time>
      </trkpt>
      <trkpt lat="43.33867" lon="2.55218">
        <ele>288.05</ele>
        <time>2012-09-20T14:10:00Z</time>
      </trkpt>
      <trkpt lat="43.33866" lon="2.55224">
        <ele>286.13</ele>
        <time>2012-09-20T14:10:07Z</time>
      </trkpt>
      <trkpt lat="43.33862" lon="2.55237">
        <ele>283.25</ele>
        <time>2012-09-20T14:10:20Z</time>
      </trkpt>
      <trkpt lat="43.3386" lon="2.55249">
        <ele>281.32</ele>
        <time>2012-09-20T14:10:34Z</time>
      </trkpt>
      <trkpt lat="43.33859" lon="2.55251">
        <ele>279.88</ele>
        <time>2012-09-20T14:10:45Z</time>
      </trkpt>
      <trkpt lat="43.33858" lon="2.55251">
        <ele>279.88</ele>
        <time>2012-09-20T14:10:46Z</time>
      </trkpt>
      <trkpt lat="43.33854" lon="2.55253">
        <ele>278.92</ele>
        <time>2012-09-20T14:10:51Z</time>
      </trkpt>
      <trkpt lat="43.3385" lon="2.55258">
        <ele>279.4</ele>
        <time>2012-09-20T14:10:56Z</time>
      </trkpt>
      <trkpt lat="43.33849" lon="2.55277">
        <ele>278.44</ele>
        <time>2012-09-20T14:11:10Z</time>
      </trkpt>
      <trkpt lat="43.33848" lon="2.5529">
        <ele>277.96</ele>
        <time>2012-09-20T14:11:22Z</time>
      </trkpt>
      <trkpt lat="43.33848" lon="2.55292">
        <ele>277.48</ele>
        <time>2012-09-20T14:11:24Z</time>
      </trkpt>
      <trkpt lat="43.33849" lon="2.55306">
        <ele>277</ele>
        <time>2012-09-20T14:11:35Z</time>
      </trkpt>
      <trkpt lat="43.33852" lon="2.55321">
        <ele>275.56</ele>
        <time>2012-09-20T14:11:47Z</time>
      </trkpt>
      <trkpt lat="43.33861" lon="2.55339">
        <ele>273.15</ele>
        <time>2012-09-20T14:12:02Z</time>
      </trkpt>
      <trkpt lat="43.33854" lon="2.55342">
        <ele>272.19</ele>
        <time>2012-09-20T14:12:08Z</time>
      </trkpt>
      <trkpt lat="43.33847" lon="2.5534">
        <ele>272.19</ele>
        <time>2012-09-20T14:12:13Z</time>
      </trkpt>
      <trkpt lat="43.33839" lon="2.55338">
        <ele>271.71</ele>
        <time>2012-09-20T14:12:21Z</time>
      </trkpt>
      <trkpt lat="43.33836" lon="2.55334">
        <ele>271.23</ele>
        <time>2012-09-20T14:12:26Z</time>
      </trkpt>
      <trkpt lat="43.33833" lon="2.5533">
        <ele>271.23</ele>
        <time>2012-09-20T14:12:30Z</time>
      </trkpt>
      <trkpt lat="43.33831" lon="2.55328">
        <ele>271.23</ele>
        <time>2012-09-20T14:12:32Z</time>
      </trkpt>
      <trkpt lat="43.33827" lon="2.55309">
        <ele>270.27</ele>
        <time>2012-09-20T14:12:46Z</time>
      </trkpt>
      <trkpt lat="43.33826" lon="2.55293">
        <ele>268.35</ele>
        <time>2012-09-20T14:12:57Z</time>
      </trkpt>
      <trkpt lat="43.33827" lon="2.55269">
        <ele>266.9</ele>
        <time>2012-09-20T14:13:11Z</time>
      </trkpt>
      <trkpt lat="43.33827" lon="2.55268">
        <ele>266.9</ele>
        <time>2012-09-20T14:13:12Z</time>
      </trkpt>
      <trkpt lat="43.33824" lon="2.55243">
        <ele>265.94</ele>
        <time>2012-09-20T14:13:26Z</time>
      </trkpt>
      <trkpt lat="43.3382" lon="2.5523">
        <ele>265.46</ele>
        <time>2012-09-20T14:13:34Z</time>
      </trkpt>
      <trkpt lat="43.33815" lon="2.55213">
        <ele>264.98</ele>
        <time>2012-09-20T14:13:44Z</time>
      </trkpt>
      <trkpt lat="43.33813" lon="2.55191">
        <ele>264.02</ele>
        <time>2012-09-20T14:13:55Z</time>
      </trkpt>
      <trkpt lat="43.33813" lon="2.55177">
        <ele>264.02</ele>
        <time>2012-09-20T14:14:09Z</time>
      </trkpt>
      <trkpt lat="43.33811" lon="2.55169">
        <ele>263.06</ele>
        <time>2012-09-20T14:14:15Z</time>
      </trkpt>
      <trkpt lat="43.33806" lon="2.55163">
        <ele>263.54</ele>
        <time>2012-09-20T14:14:21Z</time>
      </trkpt>
      <trkpt lat="43.33791" lon="2.55155">
        <ele>263.54</ele>
        <time>2012-09-20T14:14:33Z</time>
      </trkpt>
      <trkpt lat="43.33788" lon="2.55154">
        <ele>265.46</ele>
        <time>2012-09-20T14:14:36Z</time>
      </trkpt>
      <trkpt lat="43.33781" lon="2.55149">
        <ele>264.5</ele>
        <time>2012-09-20T14:14:42Z</time>
      </trkpt>
      <trkpt lat="43.33779" lon="2.55148">
        <ele>264.98</ele>
        <time>2012-09-20T14:14:44Z</time>
      </trkpt>
      <trkpt lat="43.3377" lon="2.55141">
        <ele>264.5</ele>
        <time>2012-09-20T14:14:52Z</time>
      </trkpt>
      <trkpt lat="43.33759" lon="2.55133">
        <ele>264.98</ele>
        <time>2012-09-20T14:15:02Z</time>
      </trkpt>
      <trkpt lat="43.33746" lon="2.55125">
        <ele>265.46</ele>
        <time>2012-09-20T14:15:13Z</time>
      </trkpt>
      <trkpt lat="43.33739" lon="2.55118">
        <ele>265.94</ele>
        <time>2012-09-20T14:15:20Z</time>
      </trkpt>
      <trkpt lat="43.3373" lon="2.5511">
        <ele>266.9</ele>
        <time>2012-09-20T14:15:29Z</time>
      </trkpt>
      <trkpt lat="43.33727" lon="2.55107">
        <ele>266.42</ele>
        <time>2012-09-20T14:15:32Z</time>
      </trkpt>
      <trkpt lat="43.33724" lon="2.55104">
        <ele>267.38</ele>
        <time>2012-09-20T14:15:36Z</time>
      </trkpt>
      <trkpt lat="43.33717" lon="2.55096">
        <ele>267.86</ele>
        <time>2012-09-20T14:15:45Z</time>
      </trkpt>
      <trkpt lat="43.33712" lon="2.55079">
        <ele>268.83</ele>
        <time>2012-09-20T14:15:55Z</time>
      </trkpt>
      <trkpt lat="43.3371" lon="2.55055">
        <ele>268.83</ele>
        <time>2012-09-20T14:16:08Z</time>
      </trkpt>
      <trkpt lat="43.33709" lon="2.55034">
        <ele>268.83</ele>
        <time>2012-09-20T14:16:20Z</time>
      </trkpt>
      <trkpt lat="43.33709" lon="2.55011">
        <ele>269.31</ele>
        <time>2012-09-20T14:16:32Z</time>
      </trkpt>
      <trkpt lat="43.33706" lon="2.54994">
        <ele>269.31</ele>
        <time>2012-09-20T14:16:42Z</time>
      </trkpt>
      <trkpt lat="43.33701" lon="2.54977">
        <ele>267.86</ele>
        <time>2012-09-20T14:16:52Z</time>
      </trkpt>
      <trkpt lat="43.33691" lon="2.54961">
        <ele>267.38</ele>
        <time>2012-09-20T14:17:03Z</time>
      </trkpt>
      <trkpt lat="43.3368" lon="2.54954">
        <ele>267.38</ele>
        <time>2012-09-20T14:17:13Z</time>
      </trkpt>
      <trkpt lat="43.33677" lon="2.54953">
        <ele>267.38</ele>
        <time>2012-09-20T14:17:16Z</time>
      </trkpt>
      <trkpt lat="43.33675" lon="2.54953">
        <ele>267.86</ele>
        <time>2012-09-20T14:17:18Z</time>
      </trkpt>
      <trkpt lat="43.33671" lon="2.54952">
        <ele>268.35</ele>
        <time>2012-09-20T14:17:23Z</time>
      </trkpt>
      <trkpt lat="43.3366" lon="2.54952">
        <ele>269.31</ele>
        <time>2012-09-20T14:17:35Z</time>
      </trkpt>
      <trkpt lat="43.33653" lon="2.54952">
        <ele>269.79</ele>
        <time>2012-09-20T14:17:42Z</time>
      </trkpt>
      <trkpt lat="43.33651" lon="2.54951">
        <ele>269.79</ele>
        <time>2012-09-20T14:17:44Z</time>
      </trkpt>
      <trkpt lat="43.33647" lon="2.54951">
        <ele>269.31</ele>
        <time>2012-09-20T14:17:48Z</time>
      </trkpt>
      <trkpt lat="43.3364" lon="2.54952">
        <ele>270.75</ele>
        <time>2012-09-20T14:17:55Z</time>
      </trkpt>
      <trkpt lat="43.33639" lon="2.54952">
        <ele>270.75</ele>
        <time>2012-09-20T14:17:56Z</time>
      </trkpt>
      <trkpt lat="43.33628" lon="2.54946">
        <ele>271.23</ele>
        <time>2012-09-20T14:18:08Z</time>
      </trkpt>
      <trkpt lat="43.3362" lon="2.54933">
        <ele>272.19</ele>
        <time>2012-09-20T14:18:18Z</time>
      </trkpt>
      <trkpt lat="43.33619" lon="2.54932">
        <ele>271.71</ele>
        <time>2012-09-20T14:18:19Z</time>
      </trkpt>
      <trkpt lat="43.33617" lon="2.54928">
        <ele>271.71</ele>
        <time>2012-09-20T14:18:22Z</time>
      </trkpt>
      <trkpt lat="43.33609" lon="2.54916">
        <ele>272.67</ele>
        <time>2012-09-20T14:18:33Z</time>
      </trkpt>
      <trkpt lat="43.336" lon="2.54904">
        <ele>270.75</ele>
        <time>2012-09-20T14:18:44Z</time>
      </trkpt>
      <trkpt lat="43.33593" lon="2.54898">
        <ele>269.79</ele>
        <time>2012-09-20T14:18:54Z</time>
      </trkpt>
      <trkpt lat="43.33583" lon="2.54891">
        <ele>269.79</ele>
        <time>2012-09-20T14:19:04Z</time>
      </trkpt>
      <trkpt lat="43.33576" lon="2.54882">
        <ele>268.83</ele>
        <time>2012-09-20T14:19:15Z</time>
      </trkpt>
      <trkpt lat="43.33575" lon="2.54877">
        <ele>268.35</ele>
        <time>2012-09-20T14:19:26Z</time>
      </trkpt>
      <trkpt lat="43.33574" lon="2.54873">
        <ele>268.35</ele>
        <time>2012-09-20T14:19:35Z</time>
      </trkpt>
      <trkpt lat="43.33575" lon="2.5487">
        <ele>268.35</ele>
        <time>2012-09-20T14:19:37Z</time>
      </trkpt>
      <trkpt lat="43.33574" lon="2.54861">
        <ele>267.86</ele>
        <time>2012-09-20T14:19:49Z</time>
      </trkpt>
      <trkpt lat="43.33573" lon="2.54851">
        <ele>266.42</ele>
        <time>2012-09-20T14:20:04Z</time>
      </trkpt>
      <trkpt lat="43.33574" lon="2.54847">
        <ele>265.46</ele>
        <time>2012-09-20T14:20:08Z</time>
      </trkpt>
      <trkpt lat="43.33577" lon="2.54843">
        <ele>265.46</ele>
        <time>2012-09-20T14:20:13Z</time>
      </trkpt>
      <trkpt lat="43.33579" lon="2.5484">
        <ele>265.94</ele>
        <time>2012-09-20T14:20:16Z</time>
      </trkpt>
      <trkpt lat="43.33578" lon="2.54836">
        <ele>264.5</ele>
        <time>2012-09-20T14:20:19Z</time>
      </trkpt>
      <trkpt lat="43.33577" lon="2.54831">
        <ele>262.58</ele>
        <time>2012-09-20T14:20:31Z</time>
      </trkpt>
      <trkpt lat="43.33572" lon="2.54815">
        <ele>260.65</ele>
        <time>2012-09-20T14:20:44Z</time>
      </trkpt>
      <trkpt lat="43.33571" lon="2.54808">
        <ele>258.73</ele>
        <time>2012-09-20T14:20:51Z</time>
      </trkpt>
      <trkpt lat="43.3357" lon="2.54804">
        <ele>258.25</ele>
        <time>2012-09-20T14:20:55Z</time>
      </trkpt>
      <trkpt lat="43.33569" lon="2.54788">
        <ele>255.85</ele>
        <time>2012-09-20T14:21:08Z</time>
      </trkpt>
      <trkpt lat="43.33566" lon="2.54783">
        <ele>254.89</ele>
        <time>2012-09-20T14:21:14Z</time>
      </trkpt>
      <trkpt lat="43.3356" lon="2.54776">
        <ele>252.96</ele>
        <time>2012-09-20T14:21:25Z</time>
      </trkpt>
      <trkpt lat="43.33559" lon="2.54774">
        <ele>252.48</ele>
        <time>2012-09-20T14:21:27Z</time>
      </trkpt>
      <trkpt lat="43.33555" lon="2.54761">
        <ele>251.52</ele>
        <time>2012-09-20T14:21:38Z</time>
      </trkpt>
      <trkpt lat="43.33553" lon="2.54757">
        <ele>251.04</ele>
        <time>2012-09-20T14:21:41Z</time>
      </trkpt>
      <trkpt lat="43.33546" lon="2.54743">
        <ele>249.12</ele>
        <time>2012-09-20T14:21:53Z</time>
      </trkpt>
      <trkpt lat="43.33542" lon="2.5473">
        <ele>246.72</ele>
        <time>2012-09-20T14:22:04Z</time>
      </trkpt>
      <trkpt lat="43.3354" lon="2.54725">
        <ele>245.27</ele>
        <time>2012-09-20T14:22:10Z</time>
      </trkpt>
      <trkpt lat="43.33538" lon="2.5472">
        <ele>244.79</ele>
        <time>2012-09-20T14:22:16Z</time>
      </trkpt>
      <trkpt lat="43.33535" lon="2.54711">
        <ele>242.87</ele>
        <time>2012-09-20T14:22:27Z</time>
      </trkpt>
      <trkpt lat="43.33528" lon="2.54704">
        <ele>239.99</ele>
        <time>2012-09-20T14:22:39Z</time>
      </trkpt>
      <trkpt lat="43.33526" lon="2.54691">
        <ele>238.06</ele>
        <time>2012-09-20T14:22:52Z</time>
      </trkpt>
      <trkpt lat="43.33522" lon="2.5468">
        <ele>235.18</ele>
        <time>2012-09-20T14:23:06Z</time>
      </trkpt>
      <trkpt lat="43.33518" lon="2.54674">
        <ele>232.78</ele>
        <time>2012-09-20T14:23:17Z</time>
      </trkpt>
      <trkpt lat="43.33512" lon="2.54667">
        <ele>231.33</ele>
        <time>2012-09-20T14:23:29Z</time>
      </trkpt>
      <trkpt lat="43.33508" lon="2.54663">
        <ele>229.89</ele>
        <time>2012-09-20T14:23:39Z</time>
      </trkpt>
      <trkpt lat="43.33509" lon="2.54662">
        <ele>229.41</ele>
        <time>2012-09-20T14:23:49Z</time>
      </trkpt>
      <trkpt lat="43.33509" lon="2.54661">
        <ele>229.41</ele>
        <time>2012-09-20T14:23:55Z</time>
      </trkpt>
      <trkpt lat="43.33504" lon="2.5464">
        <ele>227.97</ele>
        <time>2012-09-20T14:24:07Z</time>
      </trkpt>
      <trkpt lat="43.33498" lon="2.54622">
        <ele>226.53</ele>
        <time>2012-09-20T14:24:20Z</time>
      </trkpt>
      <trkpt lat="43.33494" lon="2.54609">
        <ele>225.09</ele>
        <time>2012-09-20T14:24:30Z</time>
      </trkpt>
      <trkpt lat="43.33493" lon="2.54605">
        <ele>224.12</ele>
        <time>2012-09-20T14:24:33Z</time>
      </trkpt>
      <trkpt lat="43.33493" lon="2.54602">
        <ele>224.12</ele>
        <time>2012-09-20T14:24:35Z</time>
      </trkpt>
      <trkpt lat="43.33491" lon="2.54594">
        <ele>223.16</ele>
        <time>2012-09-20T14:24:43Z</time>
      </trkpt>
      <trkpt lat="43.33492" lon="2.54574">
        <ele>220.76</ele>
        <time>2012-09-20T14:25:00Z</time>
      </trkpt>
      <trkpt lat="43.33496" lon="2.54556">
        <ele>219.8</ele>
        <time>2012-09-20T14:25:16Z</time>
      </trkpt>
      <trkpt lat="43.33497" lon="2.54553">
        <ele>219.32</ele>
        <time>2012-09-20T14:25:18Z</time>
      </trkpt>
      <trkpt lat="43.33494" lon="2.54543">
        <ele>218.36</ele>
        <time>2012-09-20T14:25:27Z</time>
      </trkpt>
      <trkpt lat="43.3349" lon="2.54538">
        <ele>217.88</ele>
        <time>2012-09-20T14:25:33Z</time>
      </trkpt>
      <trkpt lat="43.33477" lon="2.54528">
        <ele>216.91</ele>
        <time>2012-09-20T14:25:46Z</time>
      </trkpt>
      <trkpt lat="43.33471" lon="2.54524">
        <ele>216.43</ele>
        <time>2012-09-20T14:25:52Z</time>
      </trkpt>
      <trkpt lat="43.3346" lon="2.54518">
        <ele>215.47</ele>
        <time>2012-09-20T14:26:05Z</time>
      </trkpt>
      <trkpt lat="43.33459" lon="2.54517">
        <ele>214.99</ele>
        <time>2012-09-20T14:26:07Z</time>
      </trkpt>
      <trkpt lat="43.33453" lon="2.54513">
        <ele>214.99</ele>
        <time>2012-09-20T14:26:19Z</time>
      </trkpt>
      <trkpt lat="43.33451" lon="2.54514">
        <ele>214.03</ele>
        <time>2012-09-20T14:26:33Z</time>
      </trkpt>
      <trkpt lat="43.33445" lon="2.54518">
        <ele>214.03</ele>
        <time>2012-09-20T14:26:46Z</time>
      </trkpt>
      <trkpt lat="43.33441" lon="2.54529">
        <ele>214.99</ele>
        <time>2012-09-20T14:26:59Z</time>
      </trkpt>
      <trkpt lat="43.33439" lon="2.54529">
        <ele>214.51</ele>
        <time>2012-09-20T14:27:16Z</time>
      </trkpt>
      <trkpt lat="43.33437" lon="2.54531">
        <ele>215.47</ele>
        <time>2012-09-20T14:27:33Z</time>
      </trkpt>
      <trkpt lat="43.33429" lon="2.54534">
        <ele>215.95</ele>
        <time>2012-09-20T14:27:45Z</time>
      </trkpt>
      <trkpt lat="43.33425" lon="2.54534">
        <ele>216.91</ele>
        <time>2012-09-20T14:27:51Z</time>
      </trkpt>
      <trkpt lat="43.33423" lon="2.54533">
        <ele>216.91</ele>
        <time>2012-09-20T14:27:54Z</time>
      </trkpt>
      <trkpt lat="43.33419" lon="2.54526">
        <ele>218.36</ele>
        <time>2012-09-20T14:28:02Z</time>
      </trkpt>
      <trkpt lat="43.33417" lon="2.54515">
        <ele>218.84</ele>
        <time>2012-09-20T14:28:13Z</time>
      </trkpt>
      <trkpt lat="43.33413" lon="2.54503">
        <ele>219.8</ele>
        <time>2012-09-20T14:28:25Z</time>
      </trkpt>
      <trkpt lat="43.33413" lon="2.54491">
        <ele>221.24</ele>
        <time>2012-09-20T14:28:33Z</time>
      </trkpt>
      <trkpt lat="43.33415" lon="2.54478">
        <ele>222.68</ele>
        <time>2012-09-20T14:28:46Z</time>
      </trkpt>
      <trkpt lat="43.33416" lon="2.54477">
        <ele>222.2</ele>
        <time>2012-09-20T14:28:47Z</time>
      </trkpt>
      <trkpt lat="43.33417" lon="2.54469">
        <ele>223.16</ele>
        <time>2012-09-20T14:28:55Z</time>
      </trkpt>
      <trkpt lat="43.33418" lon="2.54466">
        <ele>223.16</ele>
        <time>2012-09-20T14:28:58Z</time>
      </trkpt>
      <trkpt lat="43.33424" lon="2.5446">
        <ele>224.12</ele>
        <time>2012-09-20T14:29:06Z</time>
      </trkpt>
      <trkpt lat="43.3343" lon="2.54455">
        <ele>225.09</ele>
        <time>2012-09-20T14:29:18Z</time>
      </trkpt>
    </trkseg>
  </trk>
</gpx>